[[{"header":{"parameterUnit":"m.s-1","parameterCategory":1,"la1":30.6,"la2":28.766,"lo1":-90.7593,"lo2":-88.6598,"dy":0.0162,"dx":0.0183,"nx":116,"ny":114,"refTime":"2024-04-13T06:00:00:Z","depth":0,"parameterNumber":2,"parameterNumberName":"U-component_of_WINDS"},"data":[0.0,0.0,0.0,0.0,0.0,0.0,0.0,0.0,0.0,0.0,0.0,0.0,0.0,0.0,0.0,0.0,0.0,0.0,0.0,0.0,0.0,0.0,0.0,0.0,0.0,0.0,0.0,0.0,0.0,0.0,0.0,0.0,0.0,0.0,0.0,0.0,0.0,0.0,0.0,0.0,0.0,0.0,0.0,0.0,0.0,0.0,0.0,0.0,0.0,0.0,0.0,0.0,0.0,0.0,0.0,0.0,0.0,0.0,0.0,0.0,0.0,0.0,0.0,0.0,0.0,0.0,0.0,0.0,0.0,0.0,0.0,0.0,0.0,0.0,0.0,0.0,0.0,0.0,0.0,0.0,0.0,0.0,0.0,0.0,0.0,0.0,0.0,0.0,0.0,0.0,0.0,0.0,0.0,0.0,0.0,0.0,0.0,0.0,0.0,0.0,0.0,0.0,0.0,0.0,0.0,0.0,0.0,0.0,0.0,0.0,0.0,0.0,0.0,0.0,0.0,0.0,0.0,0.0,0.0,0.0,0.0,0.0,0.0,0.0,0.0,0.0,0.0,0.0,0.0,0.0,0.0,0.0,0.0,0.0,0.0,0.0,0.0,0.0,0.0,0.0,0.0,0.0,0.0,0.0,0.0,0.0,0.0,0.0,0.0,0.0,0.0,0.0,0.0,0.0,0.0,0.0,0.0,0.0,0.0,0.0,0.0,0.0,0.0,0.0,0.0,0.0,0.0,0.0,0.0,0.0,0.0,0.0,0.0,0.0,0.0,0.0,0.0,0.0,0.0,0.0,0.0,0.0,0.0,0.0,0.0,0.0,0.0,0.0,0.0,0.0,0.0,0.0,0.0,0.0,0.0,0.0,0.0,0.0,0.0,0.0,0.0,0.0,0.0,0.0,0.0,0.0,0.0,0.0,0.0,0.0,0.0,0.0,0.0,0.0,0.0,0.0,0.0,0.0,0.0,0.0,0.0,0.0,0.0,0.0,0.0,0.0,0.0,0.0,0.0,0.0,0.0,0.0,0.0,0.0,0.0,0.0,0.0,0.0,0.0,0.0,0.0,0.0,0.0,0.0,0.0,0.0,0.0,0.0,0.0,0.0,0.0,0.0,0.0,0.0,0.0,0.0,0.0,0.0,0.0,0.0,0.0,0.0,0.0,0.0,0.0,0.0,0.0,0.0,0.0,0.0,0.0,0.0,0.0,0.0,0.0,0.0,0.0,0.0,0.0,0.0,0.0,0.0,0.0,0.0,0.0,0.0,0.0,0.0,0.0,0.0,0.0,0.0,0.0,0.0,0.0,0.0,0.0,0.0,0.0,0.0,0.0,0.0,0.0,0.0,0.0,0.0,0.0,0.0,0.0,0.0,0.0,0.0,0.0,0.0,0.0,0.0,0.0,0.0,0.0,0.0,0.0,0.0,0.0,0.0,0.0,0.0,0.0,0.0,0.0,0.0,0.0,0.0,0.0,0.0,0.0,0.0,0.0,0.0,0.0,0.0,0.0,0.0,0.0,0.0,0.0,0.0,0.0,0.0,0.0,0.0,0.0,0.0,0.0,0.0,0.0,0.0,0.0,0.0,0.0,0.0,0.0,0.0,0.0,0.0,0.0,0.0,0.0,0.0,0.0,0.0,0.0,0.0,0.0,0.0,0.0,0.0,0.0,0.0,0.0,0.0,0.0,0.0,0.0,0.0,0.0,0.0,0.0,0.0,0.0,0.0,0.0,0.0,0.0,0.0,0.0,0.0,0.0,0.0,0.0,0.0,0.0,0.0,0.0,0.0,0.0,0.0,0.0,0.0,0.0,0.0,0.0,0.0,0.0,0.0,0.0,0.0,0.0,0.0,0.0,0.0,0.0,0.0,0.0,0.0,0.0,0.0,0.0,0.0,0.0,0.0,0.0,0.0,0.0,0.0,0.0,0.0,0.0,0.0,0.0,0.0,0.0,0.0,0.0,0.0,0.0,0.0,0.0,0.0,0.0,0.0,0.0,0.0,0.0,0.0,0.0,0.0,0.0,0.0,0.0,0.0,0.0,0.0,0.0,0.0,0.0,0.0,0.0,0.0,0.0,0.0,0.0,0.0,0.0,0.0,0.0,0.0,0.0,0.0,0.0,0.0,0.0,0.0,0.0,0.0,0.0,0.0,0.0,0.0,0.0,0.0,0.0,0.0,0.0,0.0,0.0,0.0,0.0,0.0,0.0,0.0,0.0,0.0,0.0,0.0,0.0,0.0,0.0,0.0,0.0,0.0,0.0,0.0,0.0,0.0,0.0,0.0,0.0,0.0,0.0,0.0,0.0,0.0,0.0,0.0,0.0,0.0,0.0,0.0,0.0,0.0,0.0,0.0,0.0,0.0,0.0,0.0,0.0,0.0,0.0,0.0,0.0,0.0,0.0,0.0,0.0,0.0,0.0,0.0,0.0,0.0,0.0,0.0,0.0,0.0,0.0,0.0,0.0,0.0,0.0,0.0,0.0,0.0,0.0,0.0,0.0,0.0,0.0,0.0,0.0,0.0,0.0,0.0,0.0,0.0,0.0,0.0,0.0,0.0,0.0,0.0,0.0,0.0,0.0,0.0,0.0,0.0,0.0,0.0,0.0,0.0,0.0,0.0,0.0,0.0,0.0,0.0,0.0,0.0,0.0,0.0,0.0,0.0,0.0,0.0,0.0,0.0,0.0,0.0,0.0,0.0,0.0,0.0,0.0,0.0,0.0,0.0,0.0,0.0,0.0,0.0,0.0,0.0,0.0,0.0,0.0,0.0,0.0,0.0,0.0,0.0,0.0,0.0,0.0,0.0,0.0,0.0,0.0,0.0,0.0,0.0,0.0,0.0,0.0,0.0,0.0,0.0,0.0,0.0,0.0,0.0,0.0,0.0,0.0,0.0,0.0,0.0,0.0,0.0,0.0,0.0,0.0,0.0,0.0,0.0,0.0,0.0,0.0,0.0,0.0,0.0,0.0,0.0,0.0,0.0,0.0,0.0,0.0,0.0,0.0,0.0,0.0,0.0,0.0,0.0,0.0,0.0,0.0,0.0,0.0,0.0,0.0,0.0,0.0,0.0,0.0,0.0,0.0,0.0,0.0,0.0,0.0,0.0,0.0,0.0,0.0,0.0,0.0,0.0,0.0,0.0,0.0,0.0,0.0,0.0,0.0,0.0,0.0,0.0,0.0,0.0,0.0,0.0,0.0,0.0,0.0,0.0,0.0,0.0,0.0,0.0,0.0,0.0,0.0,0.0,0.0,0.0,0.0,0.0,0.0,0.0,0.0,0.0,0.0,0.0,0.0,0.0,0.0,0.0,0.0,0.0,0.0,0.0,0.0,0.0,0.0,0.0,0.0,0.0,0.0,0.0,0.0,0.0,0.0,0.0,0.0,0.0,0.0,0.0,0.0,0.0,0.0,0.0,0.0,0.0,0.0,0.0,0.0,0.0,0.0,0.0,0.0,0.0,0.0,0.0,0.0,0.0,0.0,0.0,0.0,0.0,0.0,0.0,0.0,0.0,0.0,0.0,0.0,0.0,0.0,0.0,0.0,0.0,0.0,0.0,0.0,0.0,0.0,0.0,0.0,0.0,0.0,0.0,0.0,0.0,0.0,0.0,0.0,0.0,0.0,0.0,0.0,0.0,0.0,0.0,0.0,0.0,0.0,0.0,0.0,0.0,0.0,0.0,0.0,0.0,0.0,0.0,0.0,0.0,0.0,0.0,0.0,0.0,0.0,0.0,0.0,0.0,0.0,0.0,0.0,0.0,0.0,0.0,0.0,0.0,0.0,0.0,0.0,0.0,0.0,0.0,0.0,0.0,0.0,0.0,0.0,0.0,0.0,0.0,0.0,0.0,0.0,0.0,0.0,0.0,0.0,0.0,0.0,0.0,0.0,0.0,0.0,0.0,0.0,0.0,0.0,0.0,0.0,0.0,0.0,0.0,0.0,0.0,0.0,0.0,0.0,0.0,0.0,0.0,0.0,0.0,0.0,0.0,0.0,0.0,0.0,0.0,0.0,0.0,0.0,0.0,0.0,0.0,0.0,0.0,0.0,0.0,0.0,0.0,0.0,0.0,0.0,0.0,0.0,0.0,0.0,0.0,0.0,0.0,0.0,0.0,0.0,0.0,0.0,0.0,0.0,0.0,0.0,0.0,0.0,0.0,0.0,0.0,0.0,0.0,0.0,0.0,0.0,0.0,0.0,0.0,0.0,0.0,0.0,0.0,0.0,0.0,0.0,0.0,0.0,0.0,0.0,0.0,0.0,0.0,0.0,0.0,0.0,0.0,0.0,0.0,0.0,0.0,0.0,0.0,0.0,0.0,0.0,0.0,0.0,0.0,0.0,0.0,0.0,0.0,0.0,0.0,0.0,0.0,0.0,0.0,0.0,0.0,0.0,0.0,0.0,0.0,0.0,0.0,0.0,0.0,0.0,0.0,0.0,0.0,0.0,0.0,0.0,0.0,0.0,0.0,0.0,0.0,0.0,0.0,0.0,0.0,0.0,0.0,0.0,0.0,0.0,0.0,0.0,0.0,0.0,0.0,0.0,0.0,0.0,0.0,0.0,0.0,0.0,0.0,0.0,0.0,0.0,0.0,0.0,0.0,0.0,0.0,0.0,0.0,0.0,0.0,0.0,0.0,0.0,0.0,0.0,0.0,0.0,0.0,0.0,0.0,0.0,0.0,0.0,0.0,0.0,0.0,0.0,0.0,0.0,0.0,0.0,0.0,0.0,0.0,0.0,0.0,0.0,0.0,0.0,0.0,0.0,0.0,0.0,0.0,0.0,0.0,0.0,0.0,0.0,0.0,0.0,0.0,0.0,0.0,0.0,0.0,0.0,0.0,0.0,0.0,0.0,0.0,0.0,0.0,0.0,0.0,0.0,0.0,0.0,0.0,0.0,0.0,0.0,0.0,0.0,0.0,0.0,0.0,0.0,0.0,0.0,0.0,0.0,0.0,0.0,0.0,0.0,0.0,0.0,0.0,0.0,0.0,0.0,0.0,0.0,0.0,0.0,0.0,0.0,0.0,0.0,0.0,0.0,0.0,0.0,0.0,0.0,0.0,0.0,0.0,0.0,0.0,0.0,0.0,0.0,0.0,0.0,0.0,0.0,0.0,0.0,0.0,0.0,0.0,0.0,0.0,0.0,0.0,0.0,0.0,0.0,0.0,0.0,0.0,0.0,0.0,0.0,0.0,0.0,0.0,0.0,0.0,0.0,0.0,0.0,0.0,0.0,0.0,0.0,0.0,0.0,0.0,0.0,0.0,0.0,0.0,0.0,0.0,0.0,0.0,0.0,0.0,0.0,0.0,0.0,0.0,0.0,0.0,0.0,0.0,0.0,0.0,0.0,0.0,0.0,0.0,0.0,0.0,0.0,0.0,0.0,0.0,0.0,0.0,0.0,0.0,0.0,0.0,0.0,0.0,0.0,0.0,0.0,0.0,0.0,0.0,0.0,0.0,0.0,0.0,0.0,0.0,0.0,0.0,0.0,0.0,0.0,0.0,0.0,0.0,0.0,0.0,0.0,0.0,0.0,0.0,0.0,0.0,0.0,0.0,0.0,0.0,0.0,0.0,0.0,0.0,0.0,0.0,0.0,0.0,0.0,0.0,0.0,0.0,0.0,0.0,0.0,0.0,0.0,0.0,0.0,0.0,0.0,0.0,0.0,0.0,0.0,0.0,0.0,0.0,0.0,0.0,0.0,0.0,0.0,0.0,0.0,0.0,0.0,0.0,0.0,0.0,0.0,0.0,0.0,0.0,0.0,0.0,0.0,0.0,0.0,0.0,0.0,0.0,0.0,0.0,0.0,0.0,0.0,0.0,0.0,0.0,0.0,0.0,0.0,0.0,0.0,0.0,0.0,0.0,0.0,0.0,0.0,0.0,0.0,0.0,0.0,0.0,0.0,0.0,0.0,0.0,0.0,0.0,0.0,0.0,0.0,0.0,0.0,0.0,0.0,0.0,0.0,0.0,0.0,0.0,0.0,0.0,0.0,0.0,0.0,0.0,0.0,0.0,0.0,0.0,0.0,0.0,0.0,0.0,0.0,0.0,0.0,0.0,0.0,0.0,0.0,0.0,0.0,0.0,0.0,0.0,0.0,0.0,-5.0866,0.0,0.0,0.0,0.0,0.0,0.0,0.0,0.0,0.0,0.0,0.0,0.0,0.0,0.0,0.0,0.0,0.0,0.0,0.0,0.0,0.0,0.0,0.0,0.0,-4.0546,-4.0466,-4.0415,-4.0432,-4.0441,-4.0441,-4.0466,0.0,0.0,0.0,0.0,-4.0444,-4.0444,-4.0444,-4.0444,-4.0444,-4.0452,-4.0515,-4.0515,-4.0492,-4.0516,0.0,0.0,0.0,0.0,0.0,0.0,0.0,0.0,0.0,0.0,0.0,0.0,0.0,0.0,0.0,0.0,0.0,0.0,0.0,0.0,0.0,0.0,0.0,0.0,0.0,0.0,0.0,0.0,0.0,0.0,0.0,0.0,0.0,0.0,0.0,0.0,0.0,0.0,0.0,0.0,0.0,0.0,0.0,0.0,0.0,0.0,0.0,0.0,0.0,0.0,0.0,0.0,0.0,0.0,0.0,0.0,0.0,0.0,0.0,0.0,0.0,0.0,0.0,0.0,0.0,0.0,0.0,0.0,0.0,0.0,0.0,-5.0712,0.0,0.0,0.0,0.0,0.0,0.0,0.0,0.0,0.0,0.0,0.0,0.0,0.0,0.0,0.0,0.0,0.0,0.0,0.0,0.0,0.0,-4.0552,-4.059,-4.0554,-4.0474,-4.0424,-4.0466,-4.0499,-4.0499,-4.0484,-4.0508,-4.0516,-4.05,-4.0492,-4.05,-4.05,-4.05,-4.05,-4.0508,-4.0516,-4.0516,-4.0516,-4.0516,-4.0516,-4.0516,0.0,0.0,0.0,0.0,0.0,0.0,0.0,0.0,0.0,0.0,0.0,0.0,0.0,0.0,0.0,0.0,0.0,0.0,0.0,0.0,0.0,0.0,0.0,0.0,0.0,0.0,0.0,0.0,0.0,0.0,0.0,0.0,0.0,0.0,0.0,0.0,0.0,0.0,0.0,0.0,0.0,0.0,0.0,0.0,0.0,0.0,0.0,0.0,0.0,0.0,0.0,0.0,0.0,0.0,0.0,0.0,0.0,0.0,0.0,0.0,0.0,0.0,0.0,-5.0532,-5.0532,-5.0532,-5.0532,-5.0553,-5.0632,-5.0692,-5.0712,-5.0712,0.0,0.0,0.0,0.0,0.0,0.0,0.0,0.0,0.0,0.0,0.0,0.0,0.0,0.0,0.0,0.0,0.0,0.0,0.0,0.0,-4.0662,-4.0604,-4.0537,-4.0484,-4.0474,-4.0476,-4.0508,-4.0508,-4.0515,-4.0515,-4.0516,-4.0436,-4.0449,-4.0491,-4.0491,-4.0491,-4.0491,-4.0492,-4.0516,-4.0516,-4.0516,-4.0516,-4.0516,-4.0516,-4.0516,-4.0516,0.0,0.0,0.0,0.0,0.0,0.0,0.0,0.0,0.0,0.0,0.0,0.0,0.0,0.0,0.0,0.0,0.0,0.0,0.0,0.0,0.0,0.0,0.0,0.0,0.0,0.0,0.0,0.0,0.0,0.0,0.0,0.0,0.0,0.0,0.0,0.0,0.0,0.0,0.0,0.0,0.0,-4.5577,-4.5532,0.0,0.0,0.0,0.0,0.0,0.0,0.0,0.0,0.0,0.0,0.0,0.0,0.0,-5.0511,-5.05,-5.0553,-5.0612,-5.0612,-5.0663,-5.0692,-5.0692,-5.0692,-5.0692,-5.0702,-5.0702,0.0,-5.0712,-5.0712,0.0,0.0,0.0,0.0,0.0,0.0,0.0,0.0,0.0,0.0,0.0,0.0,0.0,0.0,0.0,0.0,0.0,0.0,0.0,0.0,0.0,-4.0581,-4.0602,-4.0619,-4.0668,-4.0649,-4.0609,-4.0566,-4.0554,-4.0515,-4.0449,-4.0415,-4.0441,-4.0466,-4.0499,-4.0484,-4.0508,-4.0516,-4.0516,-4.0516,-4.0516,-4.0516,-4.0516,-4.0516,-4.0516,-4.0507,0.0,0.0,0.0,0.0,0.0,0.0,0.0,0.0,0.0,0.0,0.0,0.0,0.0,0.0,0.0,0.0,0.0,0.0,0.0,0.0,0.0,0.0,0.0,0.0,0.0,0.0,0.0,0.0,0.0,0.0,0.0,0.0,0.0,0.0,0.0,0.0,0.0,0.0,0.0,-4.5523,-4.5695,-4.6167,-4.6522,-4.7117,0.0,0.0,0.0,0.0,0.0,0.0,0.0,0.0,0.0,-5.0401,-5.0435,-5.0435,-5.0401,-5.0424,-5.0435,-5.0435,-5.0468,-5.0478,-5.0478,-5.1009,-5.1282,-5.1352,-5.1844,-5.2067,-5.201,-5.1097,-5.0712,-5.0712,0.0,0.0,0.0,0.0,-5.0712,-5.0712,0.0,0.0,0.0,0.0,0.0,0.0,0.0,0.0,0.0,0.0,0.0,0.0,-4.0545,-4.0668,-4.0742,-4.0742,-4.0786,-4.0742,-4.0694,-4.061,-4.0559,-4.0474,-4.0407,-4.0381,-4.0407,-4.0458,-4.0507,-4.0516,-4.0516,-4.0631,-4.0816,-4.0816,-4.0939,-4.117,-4.0939,-4.0708,-4.0516,-4.0507,-4.0458,-4.0424,0.0,0.0,0.0,0.0,0.0,0.0,0.0,0.0,0.0,0.0,0.0,0.0,0.0,0.0,0.0,0.0,0.0,0.0,0.0,0.0,0.0,0.0,0.0,0.0,0.0,0.0,0.0,0.0,0.0,0.0,0.0,0.0,0.0,0.0,0.0,0.0,0.0,-4.5494,-4.584,-4.6704,-4.6935,-4.7606,0.0,0.0,0.0,0.0,0.0,0.0,-5.0344,-5.0379,-5.0379,-5.0283,-5.0356,-5.0367,-5.0283,-5.0524,-5.065,-5.065,-5.0903,-5.0979,-5.1017,-5.1725,-5.2077,-5.2121,-5.279,-5.314,-5.3067,-5.1856,-5.1318,-5.1318,-5.1318,-5.1318,-5.1318,-5.1318,-5.1318,-5.1318,0.0,0.0,0.0,0.0,0.0,0.0,0.0,0.0,0.0,0.0,0.0,-4.0775,-4.07,-4.0759,-4.0781,-4.0781,-4.0786,-4.0731,-4.061,-4.0531,-4.0484,-4.0415,-4.0327,-4.0318,-4.0407,-4.0458,-4.0507,-4.0516,-4.0516,-4.0931,-4.1731,-4.1731,-4.22,-4.2931,-4.2085,-4.1277,-4.0516,-4.0507,-4.0482,-4.0474,-4.0424,0.0,0.0,0.0,0.0,0.0,0.0,0.0,0.0,0.0,0.0,0.0,0.0,0.0,0.0,0.0,0.0,0.0,0.0,0.0,0.0,0.0,0.0,0.0,0.0,0.0,0.0,0.0,0.0,0.0,0.0,0.0,0.0,0.0,0.0,0.0,0.0,0.0,0.0,-4.6704,-4.7473,0.0,0.0,0.0,0.0,-5.0412,-5.0468,-5.0468,-5.0401,-5.0401,-5.0379,-5.0283,-5.0283,-5.0283,-5.0283,-5.1182,-5.1637,-5.1637,-5.246,-5.2866,-5.2866,-5.2916,-5.2954,-5.2954,-5.3048,-5.3108,-5.3119,-5.3056,-5.3087,-5.3087,-5.3087,-5.3087,-5.3087,-5.3087,-5.3087,-5.3087,0.0,0.0,0.0,0.0,0.0,-4.0595,-4.0492,-4.0609,-4.0681,-4.0629,-4.0706,-4.0738,-4.077,-4.0861,-4.0914,-4.0914,-4.0914,-4.0874,-4.0726,-4.061,-4.0514,-4.0466,-4.0389,-4.0389,-4.0458,-4.0474,-4.0776,-4.1354,-4.1354,-4.1777,-4.2624,-4.2624,-4.2816,-4.3085,-4.2777,-4.247,-4.2085,-4.1,-4.0515,-4.0482,-4.0466,-4.0424,0.0,0.0,0.0,0.0,0.0,0.0,0.0,0.0,0.0,0.0,0.0,0.0,0.0,0.0,0.0,0.0,0.0,0.0,0.0,0.0,0.0,0.0,0.0,0.0,0.0,0.0,0.0,0.0,0.0,0.0,0.0,0.0,0.0,0.0,0.0,0.0,0.0,-4.7402,-4.8214,0.0,-4.9877,-5.0199,-5.039,-5.0401,-5.039,-5.0379,-5.0356,-5.0344,-5.0306,-5.0283,-5.0856,-5.1162,-5.1162,-5.1988,-5.242,-5.242,-5.2712,-5.29,-5.2947,-5.3556,-5.387,-5.3942,-5.4452,-5.4715,-5.4786,-5.4765,-5.4133,-5.3203,-5.3203,-5.3203,-5.3203,-5.3203,-5.3203,-5.3203,0.0,0.0,0.0,0.0,0.0,-4.0595,-4.0492,-4.0566,-4.0642,-4.0694,-4.0736,-4.0765,-4.0866,-4.0987,-4.1017,-4.0994,-4.099,-4.0906,-4.0731,-4.0661,-4.0566,-4.0466,-4.0441,-4.0449,-4.0482,-4.0806,-4.1207,-4.1808,-4.2085,-4.2662,-4.3508,-4.3508,-4.3662,-4.3932,-4.3624,-4.3508,-4.3393,-4.197,-4.1223,-4.0929,-4.0622,-4.0474,-4.0432,0.0,0.0,0.0,0.0,0.0,0.0,0.0,0.0,0.0,0.0,0.0,0.0,0.0,0.0,0.0,0.0,0.0,0.0,0.0,0.0,0.0,0.0,0.0,0.0,0.0,0.0,0.0,0.0,0.0,0.0,0.0,0.0,0.0,0.0,0.0,-4.7065,-4.8214,-4.8783,-4.9449,-5.0325,-5.0356,-5.0333,-5.0367,-5.0344,-5.0283,-5.0283,-5.0588,-5.0741,-5.0741,-5.1544,-5.2002,-5.2002,-5.2843,-5.3225,-5.3225,-5.3531,-5.3708,-5.3757,-5.4391,-5.4718,-5.4752,-5.5335,-5.5638,-5.5671,-5.566,-5.5017,-5.4049,-5.4049,-5.4049,-5.4049,-5.4049,-5.4049,-5.4049,0.0,0.0,0.0,0.0,0.0,-4.0516,-4.0516,-4.0516,-4.0537,-4.0687,-4.0765,-4.0866,-4.0987,-4.1046,-4.1055,-4.0997,-4.099,-4.0874,-4.0623,-4.0597,-4.0552,-4.0424,-4.0458,-4.0521,-4.0521,-4.1368,-4.1808,-4.1885,-4.2739,-4.3585,-4.4393,-4.4393,-4.4855,-4.5633,-4.4778,-4.4393,-4.4316,-4.3508,-4.2662,-4.1808,-4.0893,-4.0523,-4.0482,0.0,0.0,0.0,0.0,0.0,0.0,0.0,0.0,0.0,0.0,0.0,0.0,0.0,0.0,0.0,0.0,0.0,0.0,0.0,0.0,0.0,0.0,0.0,0.0,0.0,0.0,0.0,0.0,0.0,0.0,0.0,0.0,0.0,-4.6684,-4.6732,-4.7384,-4.8994,-4.9182,-4.9483,-5.0325,-5.0356,-5.0321,-5.0359,-5.0359,-5.0359,-5.0397,-5.12,-5.1646,-5.1646,-5.2422,-5.2843,-5.2843,-5.3722,-5.4142,-5.4142,-5.5021,-5.5403,-5.5403,-5.539,-5.5389,-5.5401,-5.552,-5.5615,-5.5626,-5.5682,-5.5703,-5.5703,-5.5703,-5.5703,-5.5703,-5.5703,-5.5703,-5.5703,0.0,0.0,0.0,-4.0516,-4.0516,-4.0516,-4.0516,-4.0516,-4.0574,-4.0759,-4.0772,-4.0852,-4.1046,-4.1103,-4.1055,-4.0997,-4.0902,-4.0811,-4.0694,-4.0588,-4.05,-4.0476,-4.0492,-4.08,-4.1445,-4.1692,-4.2393,-4.3624,-4.447,-4.5355,-4.6201,-4.6778,-4.7163,-4.7394,-4.7163,-4.674,-4.6124,-4.5278,-4.4393,-4.3508,-4.2047,-4.1077,-4.0492,0.0,0.0,0.0,0.0,0.0,0.0,0.0,0.0,0.0,0.0,0.0,0.0,0.0,0.0,0.0,0.0,0.0,0.0,0.0,0.0,0.0,0.0,0.0,0.0,0.0,0.0,0.0,0.0,0.0,0.0,0.0,0.0,-4.6511,-4.6543,-4.7652,-4.8619,-4.9078,-4.9629,-5.0077,-5.0306,-5.0333,-5.055,-5.12,-5.1238,-5.1505,-5.2079,-5.2346,-5.2461,-5.2461,-5.3301,-5.3722,-5.3722,-5.46,-5.5059,-5.5059,-5.5288,-5.539,-5.539,-5.5415,-5.5437,-5.552,-5.5508,-5.5566,-5.5682,-5.5649,-5.5671,-5.5703,-5.5703,-5.5703,-5.5703,-5.5703,-5.5703,-5.5703,0.0,0.0,0.0,-4.0516,-4.0516,-4.0516,-4.0516,-4.0516,-4.0588,-4.0762,-4.0791,-4.0859,-4.1062,-4.1055,-4.1022,-4.0914,-4.0825,-4.0715,-4.0622,-4.053,-4.0516,-4.0516,-4.0854,-4.1277,-4.1769,-4.2508,-4.3508,-4.4855,-4.5701,-4.6586,-4.7432,-4.7894,-4.8086,-4.8086,-4.8086,-4.7855,-4.7355,-4.6509,-4.5624,-4.4739,-4.3393,-4.2124,-4.1046,-4.1046,-4.083,-4.0482,-4.0482,-4.0441,-4.0342,-4.0316,0.0,0.0,0.0,0.0,0.0,0.0,0.0,0.0,0.0,0.0,0.0,0.0,0.0,0.0,0.0,0.0,0.0,0.0,0.0,0.0,0.0,0.0,0.0,0.0,-4.7111,-4.757,-4.757,-4.8449,-4.9224,-4.9557,-5.0015,-5.0436,-5.0818,-5.0856,-5.12,-5.204,-5.2117,-5.2308,-5.2766,-5.3148,-5.3339,-5.3339,-5.418,-5.4639,-5.4639,-5.5135,-5.5403,-5.5403,-5.539,-5.539,-5.5389,-5.5413,-5.5461,0.0,-5.5535,-5.5581,-5.5671,-5.5626,-5.5649,0.0,0.0,0.0,0.0,0.0,-5.552,-5.5508,0.0,0.0,0.0,-4.0516,-4.0516,-4.0516,-4.0516,-4.0516,-4.0588,-4.0762,-4.0791,-4.0859,-4.1062,-4.103,-4.0963,-4.08,-4.0732,-4.0636,-4.0523,-4.0516,-4.0554,-4.0631,-4.1393,-4.1885,-4.2077,-4.3624,-4.4855,-4.5748,-4.6701,-4.7548,-4.824,-4.8355,-4.8394,-4.8394,-4.8394,-4.8355,-4.8202,-4.7471,-4.6624,-4.5671,-4.4893,-4.3547,-4.1923,-4.1846,-4.133,-4.0644,-4.0521,-4.0432,-4.0325,-4.0422,0.0,0.0,0.0,0.0,0.0,0.0,0.0,0.0,0.0,0.0,0.0,0.0,0.0,0.0,0.0,0.0,0.0,0.0,0.0,0.0,0.0,0.0,0.0,0.0,-4.8105,-4.9148,-4.9224,-4.9263,-4.9519,-5.0359,-5.0436,-5.0779,-5.1658,-5.1735,-5.2079,-5.2881,-5.2957,-5.2996,-5.3072,0.0,0.0,0.0,0.0,-5.5403,-5.5403,-5.5403,-5.5403,-5.5403,-5.5377,-5.5415,-5.5415,-5.5437,-5.555,-5.5638,-5.5562,-5.5608,-5.573,-5.5665,-5.566,-5.5703,-5.5703,-5.5703,-5.5682,-5.5425,-5.5339,-5.5301,0.0,0.0,0.0,-4.0516,-4.0516,-4.0516,-4.0516,-4.0516,-4.0588,-4.0762,-4.0791,-4.0859,-4.1062,-4.103,-4.0963,-4.08,-4.0732,-4.0636,-4.0523,-4.0516,-4.0823,-4.1508,-4.1692,-4.2431,-4.3778,-4.4816,-4.5778,-4.6663,-4.8163,-4.9009,-4.9163,-4.9856,-5.0212,-5.0212,-5.0212,-4.9817,-4.9125,-4.8971,-4.8048,-4.6624,-4.6471,-4.497,-4.2777,-4.2085,-4.1692,-4.1453,-4.0768,-4.0474,-4.0564,-4.1129,-4.137,-4.1504,-4.2307,-4.245,0.0,0.0,0.0,0.0,0.0,0.0,0.0,0.0,0.0,0.0,0.0,0.0,0.0,0.0,0.0,0.0,0.0,0.0,0.0,-4.8372,-4.888,-4.9328,-4.9977,-5.0054,-5.0397,-5.1238,-5.1353,-5.1658,-5.2499,-5.2575,-5.2919,-5.3798,-5.3836,-5.4142,-5.4868,-5.5059,0.0,-5.5135,-5.5326,-5.5403,-5.5403,-5.5403,-5.5403,-5.5403,0.0,0.0,-5.5377,-5.5415,-5.582,-5.6532,-5.585,-5.5988,-5.6587,-5.594,-5.5692,-5.5703,-5.5703,-5.5703,-5.5703,-5.566,-5.5599,-5.5599,0.0,0.0,0.0,-4.0516,-4.0516,-4.0516,-4.0516,-4.0516,-4.0559,-4.0726,-4.0749,-4.0811,-4.0945,-4.0886,-4.0811,-4.0754,-4.0675,-4.0559,-4.0485,-4.0516,-4.0893,-4.1769,-4.2239,-4.3239,-4.4893,-4.5817,-4.6855,-4.8163,-4.8971,-4.9625,-5.0048,-5.0519,-5.0712,-5.0712,-5.0712,-5.0481,-5.001,-4.9586,-4.8663,-4.7471,-4.7038,-4.5893,-4.4239,-4.3393,-4.2547,-4.1731,-4.133,-4.1135,-4.117,-4.1548,-4.1915,-4.2326,-4.3138,-4.3138,-4.2947,0.0,0.0,0.0,0.0,0.0,0.0,0.0,0.0,0.0,0.0,0.0,0.0,0.0,0.0,-4.6003,-4.6424,0.0,-4.8105,-4.8957,-4.9454,-4.9824,-5.0245,-5.0665,-5.1123,-5.1532,-5.1608,-5.2079,-5.3339,-5.3454,-5.3798,-5.4677,-5.4753,-5.4944,-5.5403,-5.5403,-5.5403,-5.5403,-5.5403,-5.5403,-5.5403,-5.5403,-5.5403,-5.5403,-5.539,-5.5415,-5.5415,-5.5439,-5.5717,-5.6137,-5.5712,-5.5823,-5.6241,-5.5835,-5.5703,-5.5703,-5.5703,-5.5703,-5.5692,-5.5531,-5.5497,-5.5473,0.0,0.0,0.0,-4.05,-4.0508,-4.0516,-4.0516,-4.0516,-4.0537,-4.0681,-4.0694,-4.0742,-4.0777,-4.0732,-4.0687,-4.0662,-4.0552,-4.0516,-4.0516,-4.0516,-4.0969,-4.2008,-4.2739,-4.3893,-4.5556,-4.6624,-4.7778,-4.9163,-4.9471,-5.001,-5.0712,-5.0712,-5.0712,-5.0712,-5.0712,-5.0712,-5.0635,-4.9933,-4.9048,-4.8048,-4.7394,-4.6509,-4.5518,-4.4816,-4.3624,-4.2231,-4.1907,-4.1857,-4.1949,-4.2114,-4.2556,-4.3176,-4.3968,-4.3825,-4.3558,-4.4895,-4.4819,0.0,0.0,0.0,0.0,0.0,0.0,0.0,0.0,0.0,-4.5326,-4.5507,-4.6042,-4.6615,-4.6959,-4.8143,-4.9148,-4.9301,-4.9862,-5.0283,-5.0283,-5.1047,-5.1658,-5.1811,-5.2002,-5.269,-5.4218,-5.4333,-5.4639,-5.5365,-5.5403,-5.5403,-5.5403,-5.5403,-5.5403,-5.5403,-5.5403,-5.5403,-5.5403,-5.5403,-5.5403,-5.5403,-5.5415,-5.5402,-5.5402,-5.5488,-5.56,-5.5753,-5.5765,-5.5696,-5.5638,-5.5671,-5.5692,-5.5703,-5.5703,-5.5703,-5.5682,-5.5449,-5.5376,-5.5339,0.0,0.0,0.0,0.0,0.0,-4.0516,-4.0516,-4.0516,-4.0537,-4.0681,-4.0694,-4.0742,-4.0777,-4.0732,-4.0649,-4.0515,-4.0523,-4.0516,-4.0516,-4.0516,-4.1247,-4.2893,-4.3047,-4.3893,-4.5556,-4.7163,-4.8048,-4.824,-4.9779,-5.0596,-5.0712,-5.0712,-5.0712,-5.0712,-5.0712,-5.0712,-5.0712,-5.0596,-4.9586,-4.8086,-4.8009,-4.7009,-4.5594,-4.5479,-4.4855,-4.3808,-4.2262,-4.215,-4.286,-4.3522,-4.3787,-4.4006,-4.4895,-4.5086,-4.5059,-4.525,-4.5239,-4.5163,-4.5288,-4.5288,-4.5288,-4.5288,-4.5288,-4.5288,0.0,0.0,-4.5507,-4.6233,-4.6424,-4.6959,-4.8525,-4.8957,-4.9328,-5.0054,-5.0245,-5.0283,-5.0283,-5.1047,-5.1888,-5.2575,-5.3339,-5.4218,-5.5174,-5.525,-5.5288,-5.5403,-5.5403,-5.5403,-5.5403,-5.5403,-5.5403,-5.5403,-5.5403,-5.5403,-5.5403,-5.5403,-5.5403,-5.5403,-5.5403,-5.5416,-5.5416,-5.5463,-5.5907,-5.6647,-5.6706,-5.634,-5.5692,-5.5649,-5.566,-5.5703,-5.5703,-5.5703,-5.5703,-5.5682,-5.5671,-5.5638,0.0,0.0,0.0,0.0,0.0,-4.0516,-4.0516,-4.0516,-4.05,-4.0566,-4.0574,-4.0595,-4.0617,-4.0588,-4.0539,-4.0444,-4.0499,-4.0515,-4.0515,-4.05,-4.1054,-4.2277,-4.2816,-4.3893,-4.5556,-4.6778,-4.7625,-4.8086,-4.8817,-4.9433,-4.9933,-4.9933,-5.0212,-5.0712,-5.0712,-5.0442,-4.9933,-4.9933,-4.8971,-4.7394,-4.7394,-4.6663,-4.5556,-4.5056,-4.494,-4.4893,-4.367,-4.3395,0.0,-4.3972,-4.4381,-4.4819,-4.5201,-4.5288,-4.5288,-4.5288,-4.5288,-4.5288,-4.5288,-4.5288,-4.5288,-4.5288,-4.5288,-4.5288,-4.5288,-4.566,-4.608,-4.6424,-4.7302,-4.822,-4.8957,-4.948,-4.9901,0.0,-5.0283,-5.0283,-5.0283,-5.1467,-5.2422,-5.2766,-5.4027,-5.5021,-5.5365,-5.5403,-5.5403,-5.5403,-5.5403,-5.5403,-5.5403,-5.5403,-5.5403,-5.5403,-5.5403,-5.5403,-5.5403,-5.5403,-5.5403,-5.5403,-5.5403,-5.5403,-5.5403,-5.5415,-5.5703,-5.6119,-5.6187,-5.5989,-5.5703,-5.5682,-5.5682,-5.5703,-5.5703,-5.5703,-5.5703,-5.5703,-5.5588,-5.5449,0.0,0.0,0.0,0.0,0.0,-4.05,-4.0516,-4.0516,-4.0516,-4.0516,-4.0516,-4.0508,-4.05,-4.0507,-4.0466,-4.0415,-4.0458,-4.0482,-4.0482,-4.0492,-4.0893,-4.1769,-4.2393,-4.3431,-4.4902,-4.597,-4.6817,-4.7394,-4.7855,-4.8432,-4.9048,-4.9048,-4.9394,-4.9971,-4.9971,-4.9625,-4.9048,-4.9048,-4.8086,-4.6547,-4.6529,-4.5991,-4.5184,-4.4512,-4.4829,-4.5453,-4.4592,-4.4393,-4.4509,-4.4441,-4.4812,-4.5288,-4.5288,-4.5288,-4.5288,-4.5288,-4.5288,-4.5288,-4.5288,-4.5288,-4.5288,-4.5288,-4.5288,-4.5364,-4.5583,-4.608,-4.6653,-4.7111,-4.822,-4.9186,-4.9377,-4.9901,-5.0283,-5.0283,-5.0283,-5.0283,-5.0283,-5.1735,-5.2805,-5.2805,-5.4333,-5.5403,-5.5403,-5.5403,-5.5403,-5.5403,-5.5403,-5.5403,-5.5403,-5.5403,-5.5403,-5.5403,-5.5403,-5.5403,-5.5403,-5.5403,-5.5403,-5.5403,-5.5403,-5.5403,-5.5403,-5.539,-5.5449,-5.5593,-5.566,-5.5682,-5.5682,-5.5703,-5.5703,-5.5703,-5.5703,-5.5703,-5.5703,-5.5703,-5.5566,-5.5401,0.0,0.0,0.0,0.0,0.0,-4.0499,-4.0508,-4.0516,-4.0516,-4.0516,-4.0516,-4.05,-4.0491,-4.0482,-4.0466,-4.0415,-4.0458,-4.0482,-4.0482,-4.0492,-4.0893,-4.1769,-4.1808,-4.2277,-4.3162,-4.4778,-4.5633,-4.5671,-4.7317,-4.8125,-4.8125,-4.8125,-4.8163,-4.8202,-4.8202,-4.8163,-4.8125,-4.8125,-4.7163,-4.5624,-4.558,-4.5062,-4.4323,-4.423,-4.4747,-4.5399,-4.4499,-4.471,-4.5352,-4.5281,-4.5288,-4.5288,-4.5288,-4.5288,-4.5288,-4.5288,-4.5288,-4.5288,-4.5288,-4.5288,-4.5288,-4.5288,-4.5288,-4.5507,-4.6309,-4.65,-4.6997,-4.8678,-4.9071,-4.9328,-5.013,-5.0283,-5.0283,-5.0283,-5.0283,-5.0283,-5.0283,-5.1735,-5.2805,-5.2805,-5.4333,-5.5403,0.0,-5.5403,-5.5403,-5.5403,-5.5403,-5.5403,-5.5403,-5.5403,-5.5403,-5.5403,-5.5403,-5.5403,-5.5403,-5.5403,-5.5403,-5.5403,-5.5403,-5.5403,-5.5403,-5.539,-5.5425,-5.5523,-5.5554,-5.5577,-5.5626,-5.5682,-5.5703,-5.5703,-5.5703,-5.5703,-5.5703,-5.5703,-5.5703,-5.5671,0.0,0.0,0.0,0.0,0.0,0.0,-4.05,-4.0516,-4.0516,-4.0516,-4.0516,0.0,0.0,0.0,0.0,0.0,-4.0363,-4.0407,-4.0432,-4.0482,-4.0638,-4.0931,-4.1508,-4.1923,-4.2239,-4.3355,-4.3932,-4.3932,-4.4509,-4.5047,-4.5586,-4.5586,-4.5893,-4.6432,-4.6432,-4.6124,-4.5586,-4.5586,-4.4932,-4.397,-4.4491,-4.453,-4.4367,-4.4861,-4.5236,-4.5475,0.0,-4.517,-4.539,-4.5319,-4.5288,-4.5288,-4.5288,-4.5288,-4.5288,-4.5288,-4.5288,-4.5288,-4.5288,-4.5288,-4.5288,-4.5288,-4.5698,-4.6156,-4.6424,-4.7379,-4.8372,-4.8995,-4.9519,-4.9977,-5.0245,-5.0283,-5.0283,-5.0283,-5.0283,-5.0512,-5.1085,-5.2117,-5.2996,-5.3569,-5.4677,0.0,0.0,0.0,0.0,-5.5403,-5.5403,-5.5403,-5.5403,-5.5403,-5.5403,-5.5403,-5.5403,-5.5403,-5.5403,-5.5403,-5.5403,-5.5403,-5.5403,-5.5403,-5.5403,-5.539,-5.5401,-5.5425,-5.5485,-5.552,-5.5558,-5.5581,-5.5577,-5.5649,-5.5649,-5.5671,-5.5703,-5.566,-5.5671,-5.5671,0.0,0.0,0.0,0.0,0.0,0.0,0.0,0.0,0.0,0.0,0.0,0.0,0.0,0.0,0.0,0.0,0.0,-4.0316,-4.0342,-4.0449,-4.0499,-4.0492,-4.1038,-4.1354,-4.1354,-4.22,-4.2624,-4.2624,-4.2931,-4.3355,-4.3855,-4.3855,-4.4162,-4.471,-4.471,-4.4393,-4.3855,-4.3855,-4.3585,-4.3124,-4.359,-4.4004,-4.4341,-4.4806,-4.518,0.0,-4.5409,-4.5361,-4.5409,-4.5339,-4.5337,-4.5288,-4.5288,-4.5288,-4.5288,-4.5347,-4.5347,-4.5347,-4.5347,-4.5538,-4.5768,-4.5747,-4.6347,-4.7035,-4.7379,-4.8296,-4.9186,-4.948,-4.9939,-5.0283,-5.0283,-5.0283,-5.0283,-5.0283,-5.055,-5.0971,-5.1544,-5.2575,-5.3454,-5.4027,-5.4868,-5.5403,0.0,0.0,0.0,-5.5403,-5.5403,-5.5403,-5.5403,-5.5403,-5.5403,-5.5403,-5.5403,-5.5403,-5.5403,-5.5403,-5.5403,-5.5403,-5.5403,-5.5403,-5.5403,-5.5403,-5.539,-5.539,-5.5463,-5.5449,-5.5488,-5.5473,-5.5547,-5.5543,-5.5543,-5.5604,-5.5638,-5.5593,-5.5604,-5.5588,0.0,0.0,0.0,0.0,0.0,0.0,0.0,0.0,0.0,0.0,0.0,0.0,0.0,0.0,0.0,0.0,0.0,0.0,-4.0307,-4.0432,-4.0482,-4.0482,-4.0484,-4.0508,-4.0516,-4.1316,-4.1731,-4.1731,-4.2547,-4.297,-4.297,-4.297,-4.297,-4.297,-4.297,-4.297,-4.297,-4.297,-4.3008,-4.3038,-4.2953,-4.3415,-4.4202,-4.4095,-4.462,-4.5398,-4.5347,-4.5357,-4.5398,-4.5408,-4.5367,-4.5288,-4.5288,-4.5326,-4.5337,-4.5398,-4.5408,-4.5408,-4.5446,-4.601,-4.6602,-4.6587,-4.7226,-4.8067,-4.8907,-4.9148,-4.9366,-5.013,-5.0283,-5.0283,0.0,0.0,-5.0283,-5.0283,-5.1047,-5.1608,-5.1658,-5.3072,-5.4104,0.0,0.0,0.0,0.0,0.0,0.0,-5.5403,0.0,-5.5403,-5.5403,-5.5403,-5.5403,-5.5403,-5.5403,-5.5403,-5.5403,-5.5403,-5.5403,-5.5403,-5.5403,-5.5403,-5.5403,-5.5403,-5.5403,-5.5403,-5.539,-5.5415,-5.5389,-5.5488,-5.5473,-5.5473,-5.5473,-5.5473,-5.5461,-5.5461,-5.5449,-5.5437,0.0,0.0,0.0,0.0,0.0,0.0,0.0,0.0,0.0,0.0,0.0,0.0,0.0,0.0,0.0,0.0,0.0,0.0,-4.0351,-4.0415,-4.0441,-4.0482,-4.0458,-4.0444,-4.0516,-4.0707,-4.0822,-4.0823,-4.1054,-4.117,-4.117,-4.117,-4.117,-4.117,-4.117,-4.117,-4.117,-4.117,-4.1546,-4.2192,-4.2748,-4.3499,-4.4334,-4.4844,-4.5197,-4.5408,-4.5388,-4.5367,-4.5309,-4.5388,-4.538,-4.5361,-4.5361,-4.538,-4.5398,-4.5409,-4.54,-4.5523,-4.6125,-4.6431,-4.6755,-4.7313,-4.8105,-4.8831,-4.9071,-4.9557,-5.0054,-5.0245,-5.0283,-5.0283,0.0,0.0,0.0,-5.0283,-5.1047,0.0,-5.2422,-5.3416,0.0,-5.4982,0.0,-5.5403,-5.5403,-5.5403,0.0,0.0,-5.5403,-5.5403,-5.5403,-5.5403,-5.5403,-5.5403,-5.5403,-5.5403,-5.5403,-5.5403,-5.5403,-5.5403,-5.5403,-5.5403,-5.5403,-5.5403,-5.5403,-5.5403,-5.5416,-5.539,-5.539,-5.5403,-5.544,-5.5451,-5.5451,-5.5275,-5.5107,-5.5078,-5.4914,-5.4754,0.0,0.0,0.0,0.0,0.0,0.0,0.0,0.0,0.0,0.0,0.0,0.0,0.0,0.0,0.0,0.0,0.0,0.0,0.0,-4.0398,-4.0432,-4.0482,-4.0474,-4.046,-4.0516,-4.0492,-4.0492,-4.0516,-4.0516,-4.0516,-4.0516,-4.0516,-4.0516,-4.0516,-4.0516,-4.0516,-4.0516,-4.0893,-4.1585,0.0,0.0,-4.4093,-4.4852,-4.5256,-4.5408,-4.5398,-4.5378,-4.5339,-4.536,-4.539,-4.5381,-4.54,-4.54,-4.5381,-4.5409,-4.5429,-4.5726,-4.6119,-4.6579,-4.721,-4.7831,-4.8264,-4.9006,-4.9633,-4.9633,-4.9977,-5.0283,-5.0283,-5.0283,-5.0283,-5.0283,-5.0283,0.0,0.0,0.0,0.0,-5.3263,-5.4104,-5.4868,0.0,-5.5403,0.0,-5.5403,-5.5403,-5.5403,0.0,-5.5403,-5.5403,-5.5403,-5.5403,-5.5403,-5.5403,-5.5403,-5.5403,-5.5403,-5.5403,-5.5403,-5.5403,-5.5403,-5.5403,-5.5403,-5.5403,-5.5403,-5.5403,0.0,-5.5403,-5.5403,-5.5403,-5.5313,-5.5157,-5.5157,-5.4966,-5.4678,-5.4632,-5.4748,-5.4886,0.0,0.0,0.0,0.0,0.0,0.0,0.0,0.0,0.0,0.0,-4.0482,-4.0466,0.0,0.0,0.0,0.0,0.0,0.0,0.0,0.0,-4.0441,-4.0482,-4.0476,-4.05,-4.0516,-4.0508,-4.0508,-4.0516,-4.0516,-4.0516,-4.0516,-4.0516,-4.0516,-4.0516,-4.0516,-4.0554,-4.0708,-4.147,-4.2354,-4.3316,-4.4034,-4.4784,-4.5475,0.0,-4.5408,-4.5398,-4.5298,-4.535,-4.54,-4.54,-4.541,-4.5429,-4.5429,-4.5419,-4.5419,-4.5466,-4.6128,-4.681,-4.6925,-4.8038,-4.9224,-4.9275,-4.9794,-5.0333,-5.0283,-5.0283,-5.0283,-5.0283,-5.0283,-5.0283,-5.0283,-5.0397,-5.0741,-5.1467,0.0,-5.3225,-5.3989,-5.4868,-5.5403,-5.5403,-5.5403,-5.5403,-5.5403,-5.5403,-5.5403,-5.5403,-5.5403,-5.5403,-5.5403,-5.5403,-5.5403,-5.5403,-5.5403,-5.5403,-5.5403,-5.5403,-5.5403,-5.5403,-5.5403,-5.5403,-5.5403,-5.5403,-5.5403,-5.5403,0.0,0.0,-5.539,-5.5364,-5.5113,-5.4791,-5.4746,-5.4528,-5.421,-5.421,-5.47,-5.5322,0.0,0.0,0.0,0.0,0.0,0.0,0.0,0.0,0.0,0.0,-4.0458,-4.0521,0.0,0.0,0.0,0.0,0.0,0.0,0.0,0.0,0.0,-4.0482,-4.0449,-4.0436,-4.0516,-4.0515,-4.0515,-4.0516,-4.0516,-4.0516,-4.0516,-4.0516,-4.0516,-4.0516,-4.0516,-4.0893,-4.1585,-4.1731,-4.2701,-4.4085,-4.4226,-4.4784,-4.5475,-4.5419,0.0,0.0,-4.5298,-4.5329,-4.539,-4.539,-4.5457,-4.5568,-4.5568,-4.5541,-4.5466,-4.5514,-4.6128,-4.6964,-4.7616,-4.8508,-4.9419,-5.0052,-5.0286,-5.0379,-5.0294,-5.0283,0.0,0.0,-5.0283,-5.0283,-5.0283,-5.0894,-5.1417,-5.1582,-5.2881,-5.3913,-5.4065,-5.4868,-5.5403,0.0,-5.5403,-5.5403,-5.5403,0.0,0.0,0.0,0.0,-5.5403,-5.5403,-5.5403,-5.5403,-5.5403,-5.5403,-5.5403,-5.5403,-5.5403,-5.5403,-5.5403,-5.5403,-5.5403,-5.5403,-5.5403,-5.5403,-5.5403,-5.5403,0.0,-5.5377,-5.5019,-5.4851,-5.4776,-5.4495,-5.4158,-5.3814,-5.3814,-5.416,-5.4575,0.0,0.0,0.0,0.0,0.0,0.0,0.0,-4.0325,-4.0342,-4.0407,-4.0432,-4.0441,-4.0441,-4.0441,-4.0432,0.0,0.0,0.0,0.0,0.0,0.0,0.0,-4.0482,-4.0468,-4.0516,-4.0492,-4.0492,-4.0516,0.0,-4.0516,-4.0516,-4.0516,-4.0516,-4.0516,-4.0969,-4.1393,-4.1846,-4.2739,-4.3585,-4.4355,-4.4799,-4.5213,-4.555,0.0,0.0,0.0,-4.5298,-4.5357,-4.5418,-4.539,-4.5457,-4.5559,-4.5586,-4.5577,-4.5636,-4.6088,-4.6819,-4.7655,-4.8481,-4.9355,-5.0064,-5.0434,-5.0446,-5.0401,-5.0367,0.0,0.0,-5.0283,-5.0283,-5.0436,-5.0894,-5.1314,0.0,-5.2766,-5.3569,-5.4256,-5.4715,-5.5135,0.0,-5.5403,-5.5403,-5.5403,0.0,0.0,0.0,0.0,0.0,-5.5403,-5.5403,-5.5403,-5.5403,-5.5403,-5.5403,-5.5403,-5.5403,-5.5403,-5.5403,-5.5403,-5.5403,-5.5286,-5.5099,-5.53,-5.5286,-5.5099,-5.5099,0.0,-5.5071,-5.4685,-5.443,-5.4207,-5.407,-5.3758,-5.3461,-5.3461,-5.4091,-5.5023,0.0,0.0,0.0,0.0,0.0,0.0,-4.028,-4.0289,-4.0298,-4.0372,-4.0381,-4.0381,-4.0381,-4.0398,-4.0389,0.0,0.0,0.0,0.0,0.0,0.0,0.0,0.0,0.0,0.0,0.0,0.0,-4.0484,-4.0492,0.0,0.0,0.0,0.0,0.0,-4.15,-4.2,-4.2431,-4.3739,-4.4393,0.0,0.0,-4.5594,0.0,0.0,0.0,0.0,0.0,-4.5378,-4.5418,-4.539,-4.5429,-4.5514,-4.579,-4.5855,-4.6047,-4.6914,-4.7731,-4.8509,-4.9192,-4.9971,-5.0632,-5.0584,-5.05,-5.0424,-5.0412,-5.0356,0.0,-5.0283,-5.0283,-5.0588,-5.1429,-5.1735,-5.2346,0.0,-5.4256,-5.4639,-5.5288,-5.5403,-5.5403,0.0,-5.5403,0.0,0.0,0.0,0.0,0.0,0.0,0.0,-5.5403,-5.5403,-5.5403,-5.5403,-5.5403,-5.5403,-5.5403,-5.5403,-5.5403,-5.5403,-5.5403,-5.5246,-5.4947,-5.5154,-5.5113,-5.4791,-5.4731,0.0,0.0,-5.4313,-5.3998,-5.3701,-5.3604,-5.344,-5.3203,-5.3203,-5.4216,-5.5596,0.0,0.0,0.0,0.0,0.0,0.0,-4.031,-4.031,-4.031,-4.032,-4.032,-4.032,-4.032,-4.0354,-4.0407,0.0,0.0,0.0,0.0,0.0,0.0,0.0,0.0,0.0,0.0,0.0,0.0,-4.0424,-4.0466,0.0,0.0,0.0,0.0,0.0,0.0,0.0,-4.4085,-4.4239,0.0,0.0,0.0,0.0,0.0,0.0,0.0,0.0,0.0,-4.54,-4.5418,-4.539,-4.541,-4.5573,-4.6426,-4.6742,-4.6962,-4.7761,0.0,0.0,-4.9307,-4.9981,-5.0692,-5.0632,-5.0532,-5.0478,-5.0412,0.0,-5.0283,-5.0283,-5.0283,-5.0588,-5.1429,-5.2193,-5.2996,-5.3951,-5.4753,-5.5326,-5.5403,-5.5403,-5.5403,-5.5403,0.0,0.0,0.0,0.0,0.0,0.0,0.0,0.0,-5.5403,-5.5403,-5.5403,-5.5403,-5.5403,-5.5403,-5.5403,-5.5403,-5.5403,-5.5403,-5.5403,-5.539,-5.5313,-5.499,-5.4821,-5.4776,-5.4479,0.0,0.0,-5.3925,-5.3739,-5.3662,-5.3359,-5.3209,-5.3203,-5.3203,-5.4216,-5.5596,0.0,0.0,0.0,0.0,0.0,0.0,-4.0301,-4.0301,-4.0301,-4.0301,-4.0301,-4.0301,-4.0301,-4.0338,-4.0327,-4.0327,-4.0327,0.0,0.0,0.0,0.0,0.0,0.0,0.0,0.0,0.0,-4.0424,-4.0449,-4.0441,0.0,0.0,0.0,0.0,0.0,0.0,0.0,-4.432,-4.4846,0.0,0.0,0.0,0.0,0.0,0.0,0.0,0.0,0.0,0.0,-4.5418,-4.539,-4.5726,-4.6291,-4.7252,-4.7943,-4.8424,-4.8789,-4.9115,-4.951,-5.0029,-5.0423,-5.0702,-5.0682,-5.0573,-5.05,-5.0468,0.0,-5.0283,-5.0283,-5.0283,-5.0703,-5.2079,-5.2575,-5.3263,-5.4677,-5.5174,0.0,-5.5403,-5.5403,-5.5403,-5.5403,0.0,0.0,0.0,0.0,0.0,0.0,0.0,0.0,-5.5403,-5.5403,-5.5403,-5.5403,-5.5403,-5.5403,-5.5403,-5.5154,-5.5154,-5.539,-5.514,-5.4918,-5.4738,-5.4761,-5.4538,-5.4121,-5.4016,0.0,0.0,-5.3543,-5.34,-5.338,-5.3251,-5.3203,-5.324,-5.3739,-5.462,-5.5647,0.0,0.0,0.0,0.0,0.0,-4.0301,-4.0301,-4.0301,-4.0301,-4.0301,-4.0301,-4.0301,-4.0301,-4.0301,-4.0301,-4.0301,-4.0301,0.0,0.0,0.0,0.0,0.0,0.0,0.0,0.0,0.0,-4.0424,-4.0458,-4.0441,-4.0581,0.0,0.0,0.0,0.0,0.0,0.0,0.0,0.0,0.0,0.0,0.0,0.0,0.0,0.0,0.0,0.0,0.0,0.0,0.0,0.0,0.0,-4.6825,-4.8038,-4.8835,-4.9355,-4.9683,-4.9779,-4.9933,-5.0519,-5.0712,-5.0712,-5.0712,-5.0584,-5.05,0.0,0.0,-5.0283,-5.0283,-5.0283,-5.0818,-5.2499,-5.2805,-5.3378,-5.5135,-5.5403,-5.5403,-5.5403,-5.5403,-5.5403,0.0,0.0,0.0,0.0,0.0,0.0,0.0,0.0,0.0,0.0,-5.5403,-5.5403,-5.5403,-5.5403,-5.5364,-5.5233,-5.4947,-5.4903,-5.5071,-5.4799,-5.4576,-5.4446,-5.4591,-5.4409,-5.4015,0.0,0.0,0.0,-5.3484,-5.342,-5.3501,-5.3272,-5.3398,-5.376,-5.4222,-5.506,-5.6051,0.0,0.0,0.0,0.0,0.0,-4.0301,-4.0301,-4.0301,-4.0301,-4.0301,-4.0301,-4.0301,-4.0301,-4.0301,-4.0301,-4.0301,-4.0301,0.0,0.0,0.0,0.0,0.0,0.0,0.0,0.0,0.0,-4.0407,-4.0407,-4.0458,-4.0905,-4.1681,-4.172,-4.262,-4.4278,0.0,0.0,0.0,0.0,0.0,0.0,0.0,0.0,-4.5594,0.0,0.0,0.0,0.0,0.0,0.0,0.0,0.0,0.0,0.0,-4.9238,-4.947,-5.0423,-5.0712,-5.0712,-5.0712,-5.0712,-5.0712,-5.0712,-5.0584,-5.05,0.0,-5.0412,-5.0283,-5.0283,-5.0283,-5.0818,-5.2499,-5.2805,-5.3378,-5.5135,-5.5403,-5.5403,-5.5403,-5.5403,0.0,0.0,0.0,0.0,0.0,0.0,0.0,0.0,0.0,0.0,0.0,-5.5403,-5.5403,-5.5403,-5.5403,-5.5219,-5.4806,-5.4806,-5.4639,-5.4296,-5.4296,-5.4479,-5.4776,-5.4446,-5.4479,0.0,0.0,0.0,0.0,-5.387,-5.3925,-5.421,-5.3481,-5.3879,-5.483,-5.4533,-5.5427,-5.6785,0.0,0.0,0.0,0.0,0.0,0.0,-4.0301,-4.0301,-4.0301,-4.0301,-4.0301,-4.0301,-4.0301,-4.0301,-4.0301,-4.0301,-4.0301,0.0,0.0,0.0,0.0,0.0,0.0,0.0,0.0,-4.0389,-4.0424,-4.0458,-4.0441,-4.0888,-4.1791,-4.227,-4.3171,-4.4316,-4.4888,-4.5263,0.0,0.0,0.0,0.0,0.0,-4.5594,-4.5594,0.0,0.0,0.0,0.0,0.0,0.0,0.0,0.0,0.0,0.0,0.0,0.0,-5.0517,-5.0642,-5.0642,-5.0642,-5.0584,-5.0563,-5.0642,-5.0521,-5.0435,-5.0435,-5.0379,-5.0283,-5.0283,-5.0779,-5.1505,-5.2614,-5.3301,-5.4065,-5.5212,-5.5403,0.0,0.0,0.0,0.0,0.0,0.0,0.0,0.0,0.0,0.0,0.0,0.0,0.0,0.0,-5.4784,-5.4769,-5.4976,-5.499,-5.4829,-5.4463,-5.4463,-5.4528,-5.4639,-5.4639,-5.47,-5.4791,-5.4685,0.0,0.0,0.0,0.0,0.0,-5.34,-5.344,-5.3521,-5.3293,-5.375,-5.4591,-5.5052,-5.5904,-5.6895,0.0,0.0,0.0,0.0,0.0,0.0,-4.0301,-4.0301,-4.0301,-4.0301,-4.0301,-4.0301,-4.0301,-4.0301,-4.0301,-4.0301,-4.0301,0.0,0.0,0.0,0.0,0.0,0.0,0.0,-4.036,-4.0402,-4.0444,-4.0507,-4.0781,-4.1412,-4.2308,-4.3064,-4.3918,-4.4816,-4.529,-4.555,0.0,0.0,0.0,0.0,-4.5594,-4.5594,-4.5594,0.0,0.0,0.0,0.0,0.0,0.0,0.0,0.0,0.0,0.0,0.0,0.0,0.0,-5.0553,-5.0553,-5.0573,-5.0553,-5.0542,-5.0573,-5.0489,-5.0401,-5.0401,-5.0356,-5.0283,-5.0283,-5.1009,-5.1849,-5.2652,-5.3492,-5.4409,-5.525,-5.5403,0.0,0.0,0.0,0.0,0.0,0.0,0.0,0.0,0.0,0.0,0.0,0.0,0.0,0.0,-5.4413,-5.433,-5.4376,-5.4544,-5.4446,-5.4088,-5.407,-5.4193,-5.4376,-5.4376,-5.4522,-5.4791,-5.4791,0.0,0.0,0.0,0.0,0.0,-5.3461,-5.3481,-5.36,-5.3314,-5.3771,-5.4633,-5.5015,-5.5868,-5.6859,0.0,0.0,0.0,0.0,0.0,0.0,0.0,-4.0301,-4.0301,-4.0301,-4.0301,-4.0301,-4.0301,-4.0301,-4.0301,-4.0301,-4.0301,0.0,0.0,0.0,0.0,0.0,0.0,0.0,-4.0482,-4.0492,-4.0516,-4.0593,-4.1393,-4.2277,-4.3201,-4.3932,-4.4778,-4.5594,-4.5594,-4.5594,-4.5594,-4.5586,-4.5586,-4.5594,-4.5586,-4.5586,0.0,0.0,0.0,0.0,0.0,0.0,0.0,0.0,0.0,0.0,0.0,0.0,0.0,0.0,0.0,0.0,0.0,-5.0602,-5.0602,-5.0602,-5.0489,-5.0401,-5.0401,-5.0356,0.0,-5.0283,-5.1023,-5.1889,-5.2627,-5.3506,-5.4422,-5.5211,0.0,0.0,0.0,0.0,0.0,0.0,0.0,0.0,0.0,0.0,0.0,0.0,0.0,0.0,0.0,-5.4228,-5.4052,-5.3682,-5.4016,-5.4034,-5.3662,-5.372,-5.3758,-5.3758,-5.3777,-5.4138,-5.4791,-5.4776,0.0,0.0,0.0,0.0,0.0,-5.3814,-5.3888,-5.4141,-5.3461,-5.3879,-5.4828,-5.4512,-5.5427,-5.6822,0.0,0.0,0.0,0.0,0.0,0.0,0.0,0.0,0.0,0.0,-4.0301,-4.0301,-4.0301,-4.0301,-4.0301,0.0,0.0,0.0,0.0,0.0,0.0,0.0,0.0,0.0,-4.0482,-4.0492,-4.0823,-4.1508,-4.1692,-4.2547,-4.4008,-4.4201,-4.4778,-4.5594,-4.5594,-4.5594,-4.5594,-4.555,-4.5559,-4.5586,-4.555,-4.5559,0.0,0.0,0.0,0.0,-4.6568,-4.726,0.0,0.0,0.0,0.0,0.0,0.0,0.0,0.0,-5.0424,-5.0604,-5.0478,0.0,-5.0446,-5.0446,-5.039,-5.0333,0.0,-5.0294,-5.0283,-5.0283,-5.1294,-5.2213,-5.2365,-5.3618,-5.4719,-5.4909,0.0,0.0,0.0,0.0,0.0,0.0,0.0,0.0,0.0,0.0,0.0,0.0,0.0,0.0,0.0,-5.3583,-5.34,-5.3334,-5.34,-5.34,-5.3334,-5.3907,-5.4158,-5.4158,-5.4446,-5.4654,-5.4791,-5.4528,0.0,0.0,0.0,0.0,-5.344,-5.3375,-5.3359,-5.342,-5.3251,-5.3729,-5.4512,-5.4442,-5.5427,-5.6822,0.0,0.0,0.0,0.0,0.0,0.0,0.0,0.0,0.0,0.0,-4.0301,-4.0301,-4.0301,-4.0301,-4.0301,0.0,0.0,0.0,0.0,0.0,0.0,0.0,0.0,-4.0466,-4.0515,-4.05,-4.0931,-4.1808,-4.22,-4.3047,-4.4316,-4.4701,-4.5171,-4.5594,-4.5594,-4.5594,-4.5594,-4.5568,-4.5568,-4.5594,-4.5568,0.0,0.0,0.0,0.0,0.0,-4.7088,-4.7905,0.0,-4.9565,-4.9931,-4.9999,0.0,0.0,0.0,0.0,-5.0317,-5.0542,-5.0197,-5.0162,-5.0271,-5.039,-5.0236,-5.01,-5.0259,-5.0283,-5.0283,-5.0283,-5.1357,-5.2333,-5.2509,-5.3756,0.0,0.0,-5.4933,0.0,0.0,0.0,0.0,0.0,0.0,0.0,0.0,0.0,0.0,0.0,0.0,0.0,0.0,-5.3314,-5.3203,-5.3203,-5.3203,-5.3203,-5.3203,-5.362,-5.3851,-5.4034,-5.419,-5.4376,-5.456,-5.438,-5.4088,0.0,0.0,0.0,-5.3203,-5.3203,-5.3203,-5.3203,-5.3203,-5.3482,-5.3849,-5.3849,-5.462,-5.5757,0.0,0.0,0.0,0.0,0.0,0.0,0.0,0.0,0.0,0.0,0.0,0.0,0.0,0.0,0.0,0.0,0.0,0.0,0.0,0.0,0.0,0.0,-4.0458,-4.0507,-4.0516,-4.0631,-4.1123,-4.2,-4.2854,-4.3701,-4.4509,-4.5248,-4.5594,-4.5594,-4.5594,-4.5594,-4.5594,-4.5586,-4.5586,-4.5594,-4.5586,0.0,0.0,0.0,0.0,0.0,0.0,0.0,0.0,-5.0161,-5.0256,-4.9924,-4.9936,0.0,0.0,0.0,0.0,0.0,-4.987,-4.9857,-5.0,-5.0259,-5.0088,-4.9936,-5.0236,-5.0248,-5.0262,-5.0364,-5.1326,-5.2285,-5.2741,-5.3884,0.0,0.0,0.0,0.0,0.0,0.0,0.0,0.0,0.0,0.0,0.0,0.0,0.0,0.0,0.0,0.0,0.0,-5.3203,-5.3203,-5.3203,-5.3203,-5.3203,-5.3203,-5.3251,-5.342,-5.3701,-5.3701,-5.3888,-5.4193,-5.4141,-5.3944,0.0,0.0,0.0,-5.3203,-5.3203,-5.3203,-5.3203,-5.3203,-5.3203,-5.3203,-5.3203,-5.3702,-5.4546,0.0,0.0,0.0,0.0,0.0,0.0,0.0,0.0,0.0,0.0,0.0,0.0,0.0,0.0,0.0,0.0,0.0,0.0,0.0,0.0,0.0,-4.0474,-4.0482,-4.0507,-4.0516,-4.1239,-4.2047,-4.2893,-4.3701,-4.4547,-4.5402,-4.5556,-4.5594,-4.5594,-4.5594,-4.5594,-4.5586,-4.555,-4.5559,-4.5586,-4.555,0.0,0.0,0.0,0.0,0.0,0.0,0.0,0.0,-4.9856,-4.9859,-4.9532,-4.9317,0.0,0.0,0.0,0.0,0.0,-4.9651,-4.9579,-4.9693,-4.9844,-5.0063,-5.0236,-5.0271,-5.0076,-5.006,-5.0754,-5.119,-5.1758,-5.2785,-5.372,-5.4397,0.0,0.0,0.0,0.0,0.0,0.0,0.0,0.0,0.0,0.0,0.0,0.0,0.0,0.0,0.0,0.0,-5.3203,-5.3203,-5.3203,-5.3203,-5.3203,-5.3203,-5.3464,-5.3643,-5.3701,-5.3701,-5.3739,-5.3795,-5.3501,-5.3355,0.0,0.0,-5.323,-5.3203,-5.3203,-5.3203,-5.3203,-5.3203,-5.3203,-5.3203,-5.3203,-5.3702,-5.462,0.0,0.0,0.0,0.0,0.0,0.0,0.0,0.0,0.0,0.0,0.0,0.0,0.0,0.0,0.0,0.0,0.0,0.0,0.0,0.0,-4.0499,-4.0441,-4.0913,-4.1215,-4.12,-4.1585,-4.2431,-4.3739,-4.4124,-4.4739,-4.5594,-4.5594,-4.5594,-4.5594,-4.5594,-4.5594,-4.5594,-4.5568,-4.5568,-4.5633,0.0,0.0,0.0,0.0,0.0,0.0,0.0,0.0,0.0,0.0,-4.9683,-4.9256,-4.9134,0.0,0.0,0.0,0.0,0.0,-4.9309,-4.9491,-4.9735,-4.9556,-4.979,-5.0076,-5.0248,-5.0051,-5.0031,-5.0823,-5.1136,-5.1656,-5.2786,0.0,-5.398,-5.398,0.0,0.0,0.0,0.0,0.0,0.0,0.0,0.0,0.0,0.0,0.0,0.0,0.0,0.0,0.0,0.0,-5.3203,-5.3203,-5.3203,-5.3203,-5.3203,-5.3339,-5.344,-5.344,-5.344,-5.344,-5.344,-5.3272,-5.3203,-5.3203,0.0,-5.3203,-5.3203,-5.3203,-5.3203,-5.3203,-5.3203,-5.3203,-5.3203,-5.3203,-5.3702,-5.4583,0.0,0.0,0.0,0.0,0.0,0.0,0.0,0.0,0.0,0.0,0.0,0.0,0.0,0.0,0.0,0.0,0.0,0.0,0.0,-4.0628,-4.0776,-4.0709,-4.1621,-4.2,-4.1808,-4.2192,-4.3008,-4.4316,-4.4509,-4.494,-4.5594,-4.5594,-4.5594,-4.5594,-4.5594,-4.5594,-4.5594,-4.5594,-4.571,-4.597,0.0,0.0,0.0,0.0,0.0,0.0,0.0,0.0,0.0,0.0,0.0,0.0,0.0,0.0,0.0,-4.9144,-4.9252,-4.924,-4.8973,-4.9277,-4.9599,-4.9271,-4.9498,-4.987,-5.0113,-5.0009,-5.007,-5.0922,-5.1269,-5.1788,0.0,-5.346,0.0,0.0,0.0,0.0,0.0,0.0,0.0,0.0,0.0,0.0,0.0,0.0,0.0,0.0,0.0,0.0,0.0,0.0,-5.3482,-5.3482,-5.3482,-5.3408,-5.3203,-5.3203,-5.3203,-5.3203,-5.3203,-5.3203,-5.3203,-5.3203,-5.3203,-5.3203,-5.3203,-5.3203,-5.3203,-5.3203,-5.3203,-5.3203,-5.3203,-5.3203,-5.3203,-5.3203,-5.3592,-5.4252,0.0,0.0,0.0,0.0,0.0,0.0,0.0,0.0,0.0,0.0,0.0,0.0,0.0,0.0,0.0,0.0,0.0,0.0,0.0,-4.1149,-4.166,-4.1684,-4.2538,-4.2624,-4.1808,-4.3316,-4.4162,-4.4316,-4.5133,-4.5556,-4.5594,-4.5594,-4.5594,-4.5594,-4.5594,-4.5594,-4.5594,-4.5594,-4.6086,-4.6799,-4.6546,0.0,0.0,0.0,0.0,0.0,0.0,0.0,0.0,0.0,0.0,0.0,0.0,0.0,-4.8973,-4.8892,-4.8942,-4.8956,-4.8642,-4.8803,-4.9019,-4.8885,-4.9317,-4.9817,-4.983,-4.9934,-5.0224,-5.1117,-5.1636,-5.2307,-5.3459,-5.3683,0.0,0.0,0.0,0.0,0.0,0.0,0.0,0.0,0.0,0.0,0.0,0.0,0.0,0.0,0.0,0.0,0.0,0.0,0.0,-5.4326,-5.4326,-5.3959,-5.3203,-5.3203,-5.3203,-5.3203,-5.3203,-5.3203,-5.3203,-5.3203,-5.3203,-5.3203,-5.3203,-5.3203,-5.3203,-5.3203,-5.3203,-5.3203,-5.3203,-5.3203,-5.3203,-5.3203,-5.3261,-5.3518,0.0,0.0,0.0,0.0,0.0,0.0,0.0,0.0,0.0,0.0,0.0,0.0,0.0,0.0,0.0,0.0,0.0,0.0,0.0,-4.1558,-4.2014,-4.2514,-4.3385,-4.3701,-4.3355,-4.397,-4.4586,-4.5094,-4.5441,-4.5594,-4.5594,-4.5594,-4.5594,-4.5594,-4.5594,-4.5594,-4.5624,-4.5947,-4.6299,-4.6661,-4.741,-4.7884,0.0,0.0,0.0,0.0,0.0,0.0,0.0,0.0,-4.8936,-4.8783,-4.8714,-4.8767,-4.8838,-4.8714,-4.8678,-4.8642,-4.8532,-4.8836,-4.9113,-4.8867,-4.9503,-5.0109,-4.9596,-4.9765,-5.0318,-5.1381,-5.1824,-5.2296,-5.3212,0.0,0.0,0.0,0.0,0.0,0.0,0.0,0.0,0.0,0.0,0.0,0.0,0.0,0.0,0.0,0.0,0.0,0.0,0.0,0.0,-5.5133,-5.4656,-5.4252,-5.3959,-5.3445,-5.3203,-5.3203,-5.3203,-5.3203,-5.3203,-5.3203,-5.3203,-5.3203,-5.3203,-5.3203,-5.3203,-5.3203,-5.3203,-5.3203,-5.3203,-5.3203,-5.3203,-5.3203,-5.3203,-5.3424,0.0,0.0,0.0,0.0,0.0,0.0,0.0,0.0,0.0,0.0,0.0,0.0,0.0,0.0,0.0,0.0,0.0,0.0,-4.2035,-4.2403,-4.2829,-4.3398,-4.4269,-4.4701,-4.4701,-4.4701,-4.5017,-4.5594,-4.5594,-4.5594,-4.5594,-4.5594,-4.5594,-4.5586,-4.5532,-4.5611,-4.586,-4.6286,-4.6746,-4.7296,-4.8275,-4.8719,0.0,0.0,0.0,0.0,0.0,0.0,0.0,0.0,-4.8801,-4.8624,-4.8624,-4.8642,-4.8679,-4.8587,-4.8569,-4.8569,-4.8476,-4.8986,-4.9438,-4.9099,-4.9819,-5.044,-4.9898,-5.0228,-5.088,-5.1672,-5.2155,-5.2564,-5.3093,0.0,0.0,0.0,0.0,0.0,0.0,0.0,0.0,0.0,0.0,0.0,0.0,0.0,0.0,0.0,0.0,0.0,0.0,0.0,0.0,0.0,-5.5207,-5.4656,-5.4399,-5.3592,-5.3203,-5.3203,-5.3203,-5.3203,-5.3203,-5.3203,-5.3203,-5.3203,-5.3203,-5.3203,-5.3203,-5.3203,-5.3203,-5.3203,-5.3203,-5.3203,-5.3203,-5.3203,-5.3203,-5.3424,0.0,0.0,0.0,0.0,0.0,0.0,0.0,0.0,-4.0301,-4.0301,-4.0301,0.0,0.0,0.0,0.0,0.0,0.0,0.0,-4.284,-4.3768,-4.4311,-4.4316,-4.5133,-4.5594,-4.5594,-4.5594,-4.5594,-4.5594,-4.5594,-4.5594,-4.5594,-4.5594,-4.5594,-4.5586,-4.5341,-4.5649,-4.6402,-4.65,-4.7494,-4.8999,-4.8999,-4.9226,-4.9589,0.0,0.0,0.0,0.0,0.0,0.0,0.0,-4.8624,-4.8624,-4.8624,-4.8532,-4.8494,-4.8494,-4.866,-4.8711,-4.8401,-4.9141,-4.9897,-4.9578,-5.0141,-5.0802,-5.0802,-5.1426,-5.1977,-5.2013,-5.2637,-5.3225,-5.3203,-5.3203,0.0,0.0,0.0,0.0,0.0,0.0,0.0,0.0,0.0,0.0,0.0,0.0,0.0,0.0,0.0,0.0,0.0,0.0,0.0,0.0,-5.6014,-5.5207,-5.4436,-5.3628,-5.3203,-5.3203,-5.3203,-5.3203,-5.3203,-5.3203,-5.3203,-5.3203,-5.3203,-5.3203,-5.3203,-5.3203,-5.3203,-5.3203,-5.3203,-5.3203,-5.3203,-5.3203,-5.3203,-5.3424,0.0,0.0,0.0,0.0,0.0,0.0,0.0,0.0,-4.0301,-4.0301,-4.0807,0.0,0.0,0.0,0.0,0.0,0.0,0.0,-4.3844,-4.4158,-4.4577,-4.521,-4.5479,-4.5594,-4.5594,-4.5594,-4.5594,-4.5594,-4.5594,-4.5594,-4.5594,-4.5594,-4.5485,-4.5331,-4.5833,-4.6184,-4.6528,-4.7488,-4.8175,-4.8604,-4.9004,-4.9168,-4.9209,0.0,0.0,0.0,0.0,0.0,0.0,0.0,0.0,0.0,-4.8587,-4.8587,-4.855,-4.8513,-4.855,-4.8698,-4.9098,-4.9178,-4.9341,-5.0203,-5.0799,-5.1247,-5.1561,-5.183,-5.216,-5.2747,-5.3195,-5.3464,-5.323,-5.3203,0.0,0.0,0.0,0.0,0.0,0.0,0.0,0.0,0.0,0.0,0.0,0.0,0.0,0.0,0.0,0.0,0.0,0.0,0.0,0.0,-5.6308,-5.5486,-5.5244,-5.3885,-5.3203,-5.3203,-5.3203,-5.3203,-5.3203,-5.3203,-5.3203,-5.3203,-5.3203,-5.3203,-5.3203,-5.3203,-5.3203,-5.3203,-5.3203,-5.3203,-5.3203,-5.3203,-5.3203,-5.3424,0.0,0.0,0.0,0.0,0.0,0.0,0.0,0.0,-4.0769,-4.0769,-4.1514,-4.204,0.0,0.0,0.0,0.0,0.0,0.0,-4.4716,-4.479,-4.5056,-4.5594,-4.5594,-4.5594,-4.5594,-4.5594,-4.5594,-4.5594,-4.5594,-4.5594,-4.5594,-4.5475,-4.5602,-4.5898,-4.6167,-4.6717,-4.7559,-4.8251,-4.8715,-4.8988,-4.9309,-4.934,-4.9118,0.0,0.0,0.0,0.0,0.0,0.0,0.0,0.0,0.0,-4.8476,-4.8495,-4.8476,-4.8438,-4.8495,-4.8698,-4.8988,-4.9436,-4.9971,-5.0645,-5.1423,-5.2112,-5.2406,-5.2491,-5.2601,-5.3093,-5.3359,-5.3461,-5.323,-5.3203,0.0,0.0,0.0,0.0,0.0,0.0,0.0,0.0,0.0,0.0,0.0,0.0,0.0,0.0,0.0,0.0,0.0,0.0,0.0,0.0,-5.6418,-5.5596,-5.5596,-5.3995,-5.3203,-5.3203,-5.3203,-5.3203,-5.3203,-5.3203,-5.3203,-5.3203,-5.3203,-5.3203,-5.3203,-5.3203,-5.3203,-5.3203,-5.3203,-5.3203,-5.3203,-5.3203,-5.3387,-5.3849,0.0,0.0,-4.0301,-4.0377,0.0,0.0,0.0,0.0,-4.1619,-4.1619,-4.2393,-4.2919,0.0,0.0,0.0,0.0,0.0,0.0,0.0,-4.5568,-4.5594,-4.5594,-4.5594,-4.5594,-4.5594,-4.5594,-4.5594,-4.5594,-4.5594,-4.5586,-4.5559,-4.5428,-4.5888,-4.682,-4.6458,-4.73,-4.8964,-4.8758,-4.9094,-4.9762,-4.9762,-4.9483,-4.9134,-4.915,0.0,0.0,0.0,0.0,0.0,0.0,0.0,0.0,-4.8344,-4.8306,-4.8306,-4.8379,-4.8643,-4.8824,-4.8695,-4.9934,-5.1213,-5.1066,-5.2123,-5.3203,-5.3203,-5.3203,-5.3203,-5.3203,0.0,-5.3203,-5.3203,0.0,0.0,0.0,0.0,0.0,0.0,0.0,0.0,0.0,0.0,0.0,0.0,0.0,0.0,0.0,0.0,0.0,0.0,0.0,0.0,-5.7997,-5.6418,-5.5596,-5.5596,-5.3995,-5.3203,0.0,-5.3203,-5.3203,-5.3203,-5.3203,-5.3203,-5.3203,-5.3203,-5.3203,-5.3203,-5.3203,-5.3203,-5.3203,-5.3203,-5.3203,-5.3203,-5.3203,-5.3702,-5.4509,0.0,0.0,-4.0492,-4.1113,0.0,0.0,0.0,0.0,0.0,-4.2518,-4.3321,0.0,0.0,0.0,0.0,0.0,0.0,0.0,0.0,-4.5586,-4.5594,-4.5594,-4.5594,-4.5594,-4.5594,-4.5594,-4.5594,-4.5594,-4.5594,-4.5475,-4.5311,-4.6119,-4.6452,-4.6309,-4.7467,-4.8238,-4.872,-4.9051,-4.9251,-4.934,-4.934,-4.9052,-4.8642,-4.8695,-4.8642,0.0,0.0,0.0,0.0,0.0,0.0,0.0,-4.8438,-4.8363,-4.8435,-4.9173,-4.9433,-4.9671,-5.0859,-5.1046,-5.1196,-5.2401,-5.2968,-5.3203,-5.3203,-5.3203,-5.3203,-5.3203,-5.3203,-5.3203,0.0,0.0,0.0,0.0,0.0,0.0,0.0,0.0,0.0,0.0,0.0,0.0,0.0,0.0,0.0,0.0,0.0,0.0,0.0,0.0,0.0,-5.7997,-5.6418,-5.5596,-5.5596,-5.3995,-5.3203,0.0,-5.3203,-5.3203,-5.3203,-5.3203,-5.3203,-5.3203,-5.3203,-5.3203,-5.3203,-5.3203,-5.3203,-5.3203,-5.3203,-5.3203,-5.3203,-5.3203,-5.3702,-5.4509,0.0,0.0,0.0,0.0,0.0,0.0,0.0,0.0,0.0,0.0,0.0,0.0,0.0,0.0,0.0,0.0,-4.5594,0.0,0.0,-4.5594,-4.5594,-4.5594,-4.5594,-4.5594,-4.5594,-4.5594,-4.5594,-4.5594,-4.6009,-4.6147,-4.6004,-4.6484,-4.6974,-4.7526,-4.8238,-4.878,-4.9197,-4.9326,-4.9346,-4.9283,-4.909,-4.8873,-4.8642,-4.8605,-4.8605,-4.8624,-4.8513,0.0,0.0,0.0,0.0,0.0,0.0,0.0,-4.9023,-4.9522,-4.9907,-5.0362,-5.1206,-5.1389,-5.1683,-5.2894,-5.3203,-5.3203,-5.3203,-5.3203,-5.3203,-5.3203,-5.3203,0.0,0.0,0.0,0.0,0.0,0.0,0.0,0.0,0.0,0.0,0.0,0.0,0.0,0.0,0.0,0.0,0.0,0.0,0.0,0.0,-5.7997,-5.7997,-5.7997,-5.6418,-5.5596,-5.5596,-5.3995,-5.3203,-5.3203,-5.3203,-5.3203,-5.3203,-5.3203,-5.3203,-5.3203,-5.3203,-5.3203,-5.3203,-5.3203,-5.3203,-5.3203,-5.3203,-5.3445,-5.3775,-5.3775,-5.4546,-5.5611,0.0,0.0,0.0,0.0,0.0,0.0,0.0,0.0,0.0,0.0,0.0,0.0,0.0,0.0,-4.5594,0.0,0.0,0.0,0.0,0.0,0.0,-4.5594,-4.5594,-4.5594,-4.5594,-4.5748,-4.5825,-4.5825,-4.6701,-4.7192,-4.7346,-4.7116,-4.7707,-4.8941,-4.8859,-4.9146,-4.9707,-4.9423,-4.9305,-4.9273,-4.8962,-4.8804,-4.8769,-4.8642,-4.866,-4.8715,-4.8532,-4.8476,-4.8532,-4.8363,0.0,0.0,0.0,0.0,-4.9647,-4.9941,-5.0472,-5.1059,-5.1169,-5.1683,-5.238,-5.3041,-5.3203,0.0,-5.3203,-5.3203,-5.3203,-5.3203,0.0,0.0,0.0,0.0,0.0,0.0,0.0,0.0,0.0,0.0,0.0,0.0,0.0,0.0,0.0,0.0,0.0,0.0,0.0,0.0,-5.796,-5.7997,-5.7997,-5.7997,-5.6418,-5.5596,-5.5596,-5.3995,-5.3203,-5.3203,-5.3203,-5.3203,-5.3203,-5.3203,-5.3203,-5.3203,-5.3203,-5.3203,-5.3203,-5.3203,-5.3277,-5.3408,-5.3408,-5.3922,-5.462,-5.462,-5.5537,-5.6822,0.0,0.0,0.0,0.0,0.0,0.0,0.0,0.0,0.0,0.0,-4.5473,-4.5586,0.0,0.0,0.0,-4.5594,-4.5594,-4.5594,-4.5594,0.0,0.0,-4.5594,-4.5594,-4.5594,-4.5594,-4.6355,-4.674,-4.674,-4.7548,-4.8317,-4.9086,-4.9019,-4.8892,-4.8669,-4.9337,-4.9589,-4.9408,-4.911,-4.8907,-4.8892,-4.8873,-4.8785,-4.8642,-4.8624,-4.8569,-4.8513,-4.8363,-4.8325,-4.8344,-4.8306,-4.8306,0.0,0.0,0.0,-4.9867,-5.1242,-5.1756,-5.1977,-5.2711,-5.2947,-5.3078,0.0,-5.3203,-5.3203,0.0,0.0,-5.3203,0.0,0.0,0.0,0.0,0.0,0.0,0.0,0.0,0.0,0.0,0.0,0.0,0.0,0.0,0.0,0.0,0.0,0.0,0.0,0.0,0.0,-5.796,-5.7997,-5.7997,-5.7997,-5.6418,-5.5596,-5.5596,-5.3995,-5.3203,-5.3203,-5.3203,-5.3203,-5.3203,-5.3203,-5.3203,-5.3203,-5.3203,-5.3203,-5.3203,-5.3203,-5.3628,-5.4252,-5.4252,-5.473,-5.5427,-5.5427,-5.6014,-5.6822,0.0,0.0,0.0,0.0,0.0,0.0,0.0,0.0,0.0,0.0,0.0,-4.5594,0.0,0.0,0.0,-4.6278,-4.6317,-4.6509,-4.6971,-4.7009,-4.7009,-4.7009,-4.7009,-4.7009,-4.7009,-4.7394,-4.7586,-4.7586,-4.8432,-4.8952,-4.9203,-4.9635,-4.9648,-4.9273,-4.9485,-4.9408,-4.911,-4.8959,-4.8873,-4.8875,-4.8857,-4.8732,-4.8605,-4.855,-4.8532,-4.8476,-4.8344,-4.8344,-4.8493,-4.8876,-4.9003,-4.915,-4.9994,0.0,0.0,0.0,-5.2307,-5.2747,-5.3093,-5.3203,-5.3203,0.0,-5.3203,-5.3203,-5.3203,0.0,0.0,0.0,0.0,0.0,0.0,0.0,0.0,0.0,0.0,0.0,0.0,0.0,0.0,0.0,0.0,0.0,0.0,0.0,0.0,0.0,0.0,-5.6492,-5.7299,-5.7776,-5.7997,-5.7997,-5.6418,-5.5596,-5.5596,-5.3995,-5.3203,-5.3203,-5.3203,-5.3445,-5.3885,-5.3885,-5.3628,-5.3203,-5.3203,-5.3482,-5.3885,-5.3885,-5.4363,-5.506,-5.506,-5.5574,-5.6271,-5.6271,-5.6785,-5.7483,0.0,0.0,0.0,0.0,0.0,0.0,0.0,0.0,0.0,0.0,0.0,0.0,0.0,0.0,0.0,0.0,-4.7192,-4.7471,-4.8048,-4.8086,-4.8086,-4.8086,-4.8086,-4.8086,-4.8086,-4.8317,-4.8432,-4.8432,-4.9221,-4.9493,-4.9305,-4.9796,-4.9897,-4.9679,-4.9484,-4.9273,-4.901,-4.8925,-4.8873,-4.8892,-4.8822,-4.8696,-4.8605,-4.8532,-4.8494,-4.8476,-4.8344,-4.8491,-4.8842,-4.941,-4.9757,-5.0051,-5.0839,-5.1499,0.0,0.0,0.0,-5.3203,-5.3203,0.0,-5.3203,-5.3203,-5.3203,-5.3203,0.0,0.0,0.0,0.0,0.0,0.0,0.0,0.0,0.0,0.0,0.0,0.0,0.0,0.0,0.0,0.0,0.0,0.0,0.0,0.0,0.0,0.0,0.0,-5.5941,-5.6748,-5.7556,-5.7997,-5.7997,-5.6418,-5.5596,-5.5596,-5.3995,-5.3203,-5.3203,-5.3408,-5.3812,-5.4399,-5.462,-5.4363,-5.3812,-5.3812,-5.4142,-5.4693,-5.4693,-5.517,-5.5904,-5.5904,-5.6381,-5.7116,-5.7116,-5.7483,-5.7997,0.0,0.0,0.0,0.0,0.0,0.0,0.0,0.0,0.0,0.0,0.0,-4.7124,-4.7894,-4.7971,-4.8009,-4.8048,-4.8048,-4.8048,-4.8086,-4.8086,-4.8086,-4.8086,-4.8086,0.0,-4.8086,-4.8894,-4.9317,-4.9317,-4.9871,-5.0142,-5.0118,-4.9665,-4.9446,-4.943,-4.9415,-4.9399,-4.9352,-4.9027,-4.8875,-4.8804,-4.8804,-4.8696,-4.8605,-4.8532,-4.8494,-4.8476,-4.8344,-4.882,-4.9537,-4.9574,-5.0105,-5.0875,-5.1683,-5.1977,-5.216,0.0,0.0,0.0,-5.3203,-5.3203,0.0,-5.3203,-5.3203,0.0,0.0,0.0,0.0,0.0,0.0,0.0,0.0,0.0,0.0,0.0,0.0,0.0,0.0,0.0,0.0,0.0,0.0,0.0,0.0,0.0,0.0,0.0,0.0,-5.5941,-5.6748,-5.7556,-5.7997,-5.7997,-5.6418,-5.5596,-5.5596,-5.3995,-5.3203,-5.3203,-5.3959,-5.4363,-5.4436,-5.517,-5.55,-5.5464,-5.5464,-5.55,-5.5559,-5.5559,-5.6014,-5.6748,-5.6748,-5.7226,-5.7923,-5.7923,-5.796,-5.7997,0.0,0.0,0.0,0.0,0.0,0.0,0.0,0.0,0.0,0.0,0.0,0.0,0.0,-4.8086,-4.8317,-4.8894,-4.9433,-4.9779,-4.9779,-4.9779,-4.9779,-4.9779,-4.9779,-4.9779,-4.9779,-5.0048,-5.0133,-4.9909,-5.0088,-5.0025,-4.9665,-4.9484,-4.9399,-4.9399,-4.9176,-4.9077,-4.9077,-4.8942,-4.8875,-4.8787,-4.8787,-4.8697,-4.855,-4.8494,-4.8438,-4.8381,-4.8306,-4.8857,-4.9684,-5.0178,-5.0912,-5.172,-5.2527,-5.2784,-5.2821,-5.3115,-5.3203,-5.3203,0.0,0.0,0.0,-5.3203,-5.3203,-5.3203,0.0,0.0,0.0,0.0,0.0,0.0,0.0,0.0,0.0,0.0,0.0,0.0,0.0,0.0,0.0,0.0,0.0,0.0,0.0,0.0,0.0,0.0,0.0,0.0,-5.6014,-5.7262,-5.7997,-5.7997,-5.6418,-5.5097,-5.4069,-5.3482,-5.3482,-5.3959,-5.4252,-5.495,-5.5941,-5.6235,-5.6638,-5.7152,-5.7152,-5.6859,-5.6381,-5.6381,-5.6859,-5.7556,-5.7556,-5.774,-5.7997,-5.7997,-5.7997,-5.7997,0.0,0.0,0.0,0.0,0.0,-4.7261,-4.7289,-4.7712,-4.8174,-4.8481,0.0,0.0,0.0,0.0,-4.9202,-4.9779,-5.0366,-5.0712,-5.0712,-5.0712,-5.0712,-5.0712,-5.0604,-5.0525,-5.0525,-5.0183,-5.0023,-5.0075,-4.9683,-4.9446,-4.9399,-4.9289,-4.9241,-4.9225,-4.9127,-4.9144,-4.9188,-4.8993,-4.8907,-4.8925,-4.8767,-4.8808,-4.8937,-4.888,-4.9007,-4.9152,-4.915,-4.9664,-5.0492,-5.1022,-5.1756,-5.2491,-5.3041,-5.3203,-5.3203,-5.3203,-5.3203,-5.3203,-5.3203,-5.3203,0.0,0.0,-5.3203,-5.3203,0.0,0.0,0.0,0.0,0.0,0.0,0.0,0.0,0.0,0.0,0.0,0.0,0.0,0.0,0.0,0.0,0.0,0.0,0.0,0.0,0.0,0.0,0.0,0.0,-5.5596,-5.7116,-5.774,-5.7189,-5.6161,-5.484,-5.3203,-5.3482,-5.3885,-5.4399,-5.495,-5.5757,-5.6822,-5.7079,-5.7483,-5.7997,-5.7997,-5.7703,-5.7189,-5.7189,-5.7519,-5.7997,-5.7997,-5.7997,-5.7997,-5.7997,-5.7997,-5.7997,0.0,0.0,-4.6982,-4.7847,-4.8038,-4.8056,-4.8039,-4.8049,-4.8394,-4.9229,0.0,0.0,0.0,0.0,0.0,-5.0712,-5.0712,-5.0712,-5.0712,-5.0712,-5.0712,-5.0712,-5.038,-5.0206,-5.0206,-4.9188,-4.9047,-4.9817,-4.8691,-4.8589,-4.9399,-4.9061,-4.889,-4.8907,-4.9241,-4.9544,-4.9749,-4.9155,-4.9006,-4.915,-4.8803,-4.9141,-4.9898,-4.9688,-5.0147,-5.0868,-5.0805,-5.1316,0.0,-5.1977,0.0,0.0,0.0,-5.3203,-5.3203,-5.3203,-5.3203,-5.3203,0.0,0.0,0.0,0.0,0.0,0.0,-5.3203,0.0,0.0,0.0,0.0,0.0,0.0,0.0,0.0,0.0,0.0,0.0,0.0,0.0,0.0,0.0,0.0,0.0,0.0,0.0,0.0,0.0,0.0,-5.5596,-5.5596,-5.7116,-5.7262,-5.5669,-5.5596,-5.484,-5.3203,-5.3995,-5.4399,-5.4436,-5.6051,-5.6822,-5.6859,-5.7629,-5.7997,-5.7997,-5.7997,-5.7997,-5.7997,-5.7997,-5.7997,-5.7997,-5.7997,-5.7997,-5.7997,-5.7997,-5.7997,-5.7997,0.0,-4.7552,-4.768,-4.789,-4.8447,-4.889,-4.8862,-4.944,-4.9969,0.0,0.0,0.0,-5.0673,-5.0712,-5.0712,-5.0712,-5.0712,-5.0712,-5.0712,-5.0712,-5.0712,-5.0712,-5.0614,-5.0584,-5.0584,-5.0253,-5.0106,-5.0099,-4.9565,-4.9338,-4.9399,-4.9061,-4.889,-4.889,-4.8993,-4.9155,-4.937,-4.9182,-4.904,-4.8964,-4.9362,-4.9602,-4.9821,-5.0316,-5.0681,0.0,0.0,-5.1316,-5.1977,0.0,-5.2527,-5.3203,0.0,-5.3203,-5.3203,-5.3203,-5.3203,-5.3203,-5.3203,0.0,0.0,0.0,0.0,0.0,-5.3203,-5.3203,0.0,0.0,0.0,0.0,0.0,0.0,0.0,0.0,0.0,0.0,0.0,0.0,0.0,0.0,0.0,0.0,0.0,0.0,0.0,0.0,-5.4693,-5.5596,-5.5596,-5.7116,-5.7262,-5.5669,-5.5596,-5.484,-5.3203,-5.3995,-5.4693,-5.528,-5.6308,-5.7116,-5.7666,-5.7886,-5.7997,-5.7997,-5.7997,-5.7997,-5.7997,-5.7997,-5.7997,-5.7997,-5.7997,-5.7997,-5.7997,-5.7997,-5.7997,-5.7997,-4.8258,-4.8428,-4.8537,-4.887,-4.9362,-4.9701,-4.9723,-5.0235,-5.0622,0.0,0.0,0.0,-5.0712,-5.0712,-5.0712,-5.0712,-5.0712,-5.0712,-5.0712,-5.0712,-5.0712,-5.0712,-5.0584,-5.0493,-5.0493,-4.9924,-4.9695,-4.987,-4.9239,-4.9024,-4.9193,-4.9144,-4.911,-4.911,-4.9236,-4.9299,-4.9299,-4.9589,-4.9592,-4.9465,-4.9732,-5.023,-5.0836,-5.1199,-5.1544,0.0,0.0,0.0,-5.2491,-5.2491,-5.2821,0.0,0.0,0.0,-5.3203,0.0,-5.3203,-5.3203,-5.3203,-5.3203,-5.3203,-5.3203,0.0,0.0,-5.3203,-5.3203,-5.3203,0.0,0.0,0.0,0.0,0.0,0.0,0.0,0.0,0.0,0.0,0.0,0.0,0.0,0.0,0.0,0.0,0.0,0.0,-5.3203,-5.4363,-5.539,-5.6051,-5.7299,-5.7262,-5.5669,-5.5596,-5.484,-5.3203,-5.4326,-5.5133,-5.5611,-5.6748,-5.7556,-5.7997,-5.7997,-5.7997,-5.7997,-5.7997,-5.7997,-5.7997,-5.7997,-5.7997,-5.7997,-5.7997,-5.7997,-5.7997,-5.7997,-5.7997,-5.7997,0.0,-4.9224,-4.9476,-5.0248,-5.0412,-5.0435,-5.0489,-5.0542,-5.0622,0.0,-5.0673,-5.0712,-5.0712,-5.0712,-5.0712,-5.0712,-5.0712,-5.0712,-5.0712,-5.0712,-5.0712,-5.0712,-5.0402,-5.0241,-5.0241,-4.8991,-4.8746,-4.9529,-4.8461,-4.8319,-4.904,-4.9299,-4.9446,-4.9415,-4.9622,-4.9579,-4.9374,-5.0064,-5.0355,-5.0365,-5.0176,-5.095,-5.2259,0.0,-5.2647,-5.3277,-5.3209,-5.3203,-5.3203,-5.3203,-5.3203,0.0,0.0,0.0,0.0,0.0,-5.3203,-5.3203,-5.3203,-5.3203,-5.3203,-5.3203,-5.3203,0.0,-5.3203,-5.3203,-5.3203,0.0,0.0,0.0,0.0,0.0,0.0,0.0,0.0,0.0,0.0,0.0,0.0,0.0,0.0,0.0,0.0,-5.3203,-5.3203,-5.3203,-5.4032,-5.5207,-5.6712,-5.7556,-5.7262,-5.5669,-5.5596,-5.4876,-5.3371,-5.484,-5.5647,-5.5757,-5.7262,-5.7997,-5.7997,-5.7997,-5.7997,-5.7997,-5.7997,-5.7997,-5.7997,-5.7997,-5.7997,-5.7997,-5.7997,-5.7997,-5.7997,-5.7997,-5.7997,-5.7997,-5.0111,-5.016,-5.0221,-5.044,-5.0489,-5.0489,-5.05,-5.0542,-5.0622,-5.0622,-5.0673,-5.0712,-5.0712,-5.0712,-5.0712,-5.0712,-5.0712,-5.0712,-5.0712,-5.0712,-5.0712,-5.0712,-5.0634,-5.0604,-5.0604,-5.0065,-5.0007,-5.044,-4.9745,-4.9573,-4.9936,-4.9803,-4.9617,-4.9399,-4.9324,-4.9188,-4.8964,-4.962,-5.0306,-5.1009,-5.1599,-5.1945,-5.2197,-5.2819,-5.3125,-5.3209,-5.3188,-5.3203,-5.3203,-5.3203,-5.3203,-5.3203,0.0,0.0,0.0,-5.3203,0.0,0.0,0.0,0.0,0.0,0.0,0.0,0.0,-5.3203,-5.3203,-5.3203,0.0,0.0,0.0,0.0,0.0,0.0,0.0,0.0,0.0,0.0,0.0,0.0,0.0,0.0,0.0,0.0,-5.3203,-5.3203,-5.3203,-5.4546,-5.5794,-5.6748,-5.7556,-5.7262,-5.5669,-5.5596,-5.5133,-5.4179,-5.5097,-5.5941,-5.6602,-5.7556,-5.7997,-5.7997,-5.7997,-5.7997,-5.7997,-5.7997,-5.7997,-5.7997,-5.7997,-5.7997,-5.7997,-5.7997,-5.7997,-5.7997,-5.7997,-5.7997,-5.7997,-5.0401,-5.0435,-5.0457,-5.0457,-5.05,-5.0532,-5.0511,-5.0573,-5.0653,-5.0584,-5.0673,-5.0712,-5.0712,-5.0712,-5.0712,-5.0712,-5.0712,-5.0712,-5.0712,-5.0712,-5.0712,-5.0712,-5.0712,-5.0712,-5.0712,-5.0369,-5.0264,-5.0462,-5.0012,-4.9884,-5.0012,-5.0012,-4.9923,-4.9735,-4.9594,-4.9626,-4.9894,-5.0322,-5.097,-5.1745,-5.2055,0.0,-5.2745,-5.3109,-5.323,-5.3203,-5.3203,-5.3203,-5.3203,-5.3203,-5.3203,0.0,0.0,-5.3203,-5.3203,0.0,-5.3203,-5.3203,0.0,0.0,0.0,-5.3203,0.0,0.0,0.0,-5.3203,-5.3203,0.0,0.0,0.0,0.0,0.0,0.0,0.0,0.0,0.0,0.0,0.0,0.0,0.0,0.0,0.0,0.0,-5.3203,-5.3203,-5.3203,-5.4693,-5.5757,-5.6161,-5.7336,-5.7446,-5.6235,-5.5794,-5.539,-5.4987,-5.539,-5.5978,-5.6822,-5.7629,-5.7997,-5.7997,-5.7997,-5.7997,-5.7997,-5.7997,-5.7997,-5.7997,-5.7997,-5.7997,-5.7997,-5.7997,-5.7997,-5.7997,-5.7997,-5.7997,-5.7997,-5.0435,-5.0457,-5.0478,-5.0457,-5.0532,-5.0612,-5.0542,-5.0614,-5.0692,-5.0642,-5.0682,-5.0712,-5.0712,-5.0827,-5.0933,-5.0933,-5.1087,-5.1164,-5.1164,-5.1164,-5.1087,-5.0933,-5.0933,-5.0856,-5.0712,-5.0369,-5.023,-5.0313,-5.0025,-4.9923,-4.9974,-5.0123,-5.0135,-5.005,-4.9928,-5.0226,-5.0855,-5.1191,-5.1729,-5.2377,0.0,-5.2688,-5.3256,-5.3209,-5.3203,-5.3203,-5.3203,-5.3203,-5.3203,-5.3203,-5.3203,-5.3203,-5.3203,-5.3203,0.0,0.0,0.0,0.0,0.0,0.0,0.0,0.0,0.0,-5.3203,0.0,0.0,0.0,0.0,0.0,0.0,0.0,0.0,0.0,0.0,0.0,0.0,0.0,0.0,0.0,0.0,0.0,0.0,0.0,-5.3203,-5.3203,-5.3203,-5.4546,-5.5427,-5.5574,-5.6969,-5.7483,-5.6822,-5.6014,-5.5647,-5.5831,-5.5706,-5.6088,-5.7042,-5.7703,-5.7997,-5.7997,-5.7997,-5.7997,-5.7997,-5.7997,-5.7997,-5.7997,-5.7997,-5.7997,-5.7997,-5.7997,-5.7997,-5.8033,-5.818,-5.8217,-5.8253,-5.0511,-5.0446,-5.0468,-5.0653,-5.0642,-5.0632,-5.0682,-5.0702,-5.0702,-5.0702,-5.0702,-5.0712,-5.0712,-5.1356,-5.1769,-5.1769,-5.2472,-5.2933,-5.2933,-5.2933,-5.2587,-5.1808,-5.1769,-5.1433,-5.0712,-5.0369,-5.0347,-5.0634,-5.0325,-5.0313,-5.0594,-5.0241,-5.0025,-4.9817,-5.0006,-5.0256,-5.0633,-5.1507,-5.2188,0.0,-5.2954,-5.3115,0.0,-5.3225,-5.3203,-5.3203,-5.3203,-5.3203,-5.3203,0.0,-5.3203,-5.3203,0.0,-5.3203,-5.3203,-5.3203,0.0,0.0,0.0,0.0,0.0,0.0,-5.3203,0.0,0.0,0.0,0.0,0.0,0.0,0.0,0.0,0.0,0.0,0.0,0.0,0.0,0.0,0.0,0.0,0.0,0.0,0.0,0.0,0.0,-5.3203,-5.3203,-5.4032,-5.484,-5.5537,-5.6455,-5.6895,-5.6822,-5.6014,-5.5941,-5.6675,-5.5941,-5.6345,-5.785,-5.796,-5.7997,-5.7997,-5.7997,-5.7997,-5.7997,-5.7997,-5.7997,-5.7997,-5.7997,-5.7997,-5.7997,-5.7997,-5.7997,-5.8107,-5.8804,-5.9038,-5.9148,-5.0553,-5.0553,-5.0573,-5.0614,-5.0663,-5.0673,-5.0663,-5.0653,-5.0816,-5.1308,-5.1395,-5.1587,-5.2087,-5.2472,-5.2644,-5.2613,-5.292,-5.3151,0.0,0.0,-5.3007,-5.2654,-5.2154,-5.168,-5.1168,-5.0702,-5.0369,-5.0186,-5.0183,-5.0183,-5.0186,-5.0012,-4.9962,-4.9962,-5.0159,-5.0675,-5.1399,0.0,-5.2458,0.0,0.0,0.0,0.0,-5.3203,-5.3203,-5.3203,-5.3203,-5.3203,-5.3203,0.0,-5.3203,0.0,0.0,0.0,0.0,0.0,0.0,0.0,0.0,0.0,0.0,0.0,0.0,0.0,-5.3203,0.0,-5.3203,0.0,0.0,0.0,0.0,0.0,0.0,0.0,0.0,0.0,0.0,0.0,0.0,0.0,0.0,0.0,0.0,0.0,0.0,0.0,0.0,-5.473,-5.5537,-5.6345,-5.7005,-5.7483,-5.6271,-5.6198,-5.7483,-5.6235,-5.6381,-5.7997,-5.7997,-5.7997,-5.7997,-5.7997,-5.7997,-5.7997,-5.7997,-5.7997,-5.7997,-5.7997,-5.7997,-5.7997,-5.7997,-5.7997,-5.8107,-5.8891,-5.9184,-5.9294,-5.0642,-5.0653,-5.0624,-5.0642,-5.0663,-5.0749,-5.0911,-5.095,-5.1267,-5.2154,-5.2269,-5.25,-5.3126,-5.3413,-5.3507,-5.3464,-5.3635,-5.3777,0.0,0.0,-5.3635,-5.336,-5.2882,0.0,-5.1825,-5.1272,-5.0818,-5.038,-5.0333,-5.0256,-5.0038,-4.9923,-4.9962,-5.0125,-5.0469,-5.112,-5.1999,0.0,-5.2786,-5.3383,-5.3251,-5.3203,-5.3203,-5.3203,-5.3203,-5.3203,-5.3203,-5.3203,-5.3203,-5.3203,-5.3203,0.0,-5.3203,0.0,0.0,0.0,0.0,0.0,-5.3203,0.0,0.0,0.0,0.0,0.0,0.0,0.0,0.0,0.0,0.0,0.0,0.0,0.0,0.0,0.0,0.0,0.0,0.0,0.0,0.0,0.0,0.0,0.0,0.0,0.0,0.0,0.0,0.0,0.0,-5.5559,-5.6161,-5.6932,-5.796,-5.6638,-5.6602,-5.7997,-5.6602,-5.6638,-5.7997,-5.7997,-5.7997,-5.7997,-5.7997,-5.7997,-5.7997,-5.7997,-5.7997,-5.7997,-5.7997,-5.7997,-5.8033,-5.8253,-5.8327,-5.8437,-5.9245,-5.9661,-5.9979,-5.0702,-5.0584,-5.0542,-5.0692,-5.0624,-5.0911,-5.1721,-5.1846,-5.2154,-5.3049,-5.3164,-5.3164,0.0,0.0,0.0,0.0,0.0,-5.5408,-5.5408,0.0,-5.4977,0.0,0.0,-5.3832,0.0,-5.2083,-5.1846,-5.1826,-5.1077,-5.0692,-5.0644,-5.0195,-5.0012,-5.0113,-5.0916,-5.1516,-5.1973,-5.2821,-5.3363,-5.3662,-5.3318,-5.3203,-5.3203,0.0,-5.3203,-5.3203,-5.3203,0.0,0.0,-5.3203,-5.3203,0.0,0.0,0.0,0.0,0.0,0.0,0.0,0.0,0.0,0.0,-5.3203,0.0,0.0,0.0,0.0,-5.3203,0.0,0.0,0.0,0.0,0.0,0.0,-5.216,0.0,0.0,0.0,0.0,0.0,0.0,0.0,0.0,0.0,0.0,0.0,0.0,0.0,0.0,-5.5522,-5.5611,-5.6345,-5.796,-5.7189,-5.7152,-5.7997,-5.7189,-5.7189,-5.7997,-5.7997,-5.7997,-5.7997,-5.7997,-5.7997,-5.7997,-5.7997,-5.7997,-5.7997,-5.7997,-5.7997,-5.807,-5.8854,-5.9148,-5.9258,-6.0052,-6.086,-6.163,-5.1395,-5.148,-5.1278,-5.0779,-5.1105,-5.1749,-5.2615,-5.2779,0.0,0.0,-5.4028,0.0,0.0,-5.5083,-5.517,0.0,0.0,-5.5223,-5.4981,-5.521,0.0,0.0,0.0,-5.4131,0.0,0.0,-5.2286,-5.1357,-5.1223,-5.0768,-5.0051,-4.983,-5.0038,-5.0605,-5.1133,-5.1727,0.0,0.0,0.0,0.0,0.0,-5.3203,-5.3203,0.0,0.0,-5.3203,-5.3203,-5.3203,0.0,-5.3203,-5.3203,-5.3203,-5.3203,-5.3203,-5.3203,-5.3203,-5.3203,0.0,0.0,0.0,-5.3203,-5.3203,0.0,0.0,0.0,0.0,0.0,0.0,0.0,0.0,0.0,0.0,-5.3115,-5.2858,-5.3041,0.0,0.0,0.0,0.0,0.0,0.0,0.0,0.0,0.0,0.0,0.0,0.0,0.0,0.0,-5.5317,-5.6088,-5.7189,-5.6932,-5.7189,-5.7997,-5.7189,-5.7189,-5.7997,-5.7997,-5.7997,-5.7997,-5.7997,-5.7997,-5.7997,-5.7997,-5.7997,-5.7997,-5.7997,-5.7997,-5.807,-5.8914,-5.9515,-6.0089,-6.0896,-6.1374,-6.1704,-5.2269,-5.2346,-5.2202,-5.1664,-5.201,-5.2654,0.0,0.0,0.0,0.0,-5.4912,0.0,-5.5572,0.0,-5.5593,0.0,-5.5314,-5.5223,-5.4995,-5.513,0.0,-5.4685,-5.4572,0.0,0.0,0.0,0.0,0.0,-5.2017,-5.161,-5.0874,-5.0685,-5.0865,-5.1389,-5.1677,-5.2066,-5.2512,-5.3007,-5.3203,0.0,0.0,-5.3203,0.0,0.0,-5.3203,-5.3203,0.0,-5.3203,-5.3203,-5.3203,-5.3203,-5.3203,-5.3203,-5.3203,-5.3203,-5.3203,-5.3203,-5.3203,-5.3203,-5.3203,0.0,-5.3203,-5.3203,0.0,-5.3203,0.0,0.0,0.0,0.0,0.0,0.0,0.0,0.0,-5.3203,-5.3203,-5.3167,0.0,-5.2893,0.0,0.0,0.0,0.0,0.0,0.0,0.0,0.0,0.0,0.0,0.0,0.0,-5.5978,-5.6785,-5.7079,-5.7483,-5.7997,-5.7483,-5.7483,-5.7997,-5.7997,-5.7997,-5.7997,-5.7997,-5.7997,-5.7997,-5.7997,-5.7997,-5.7997,-5.7997,-5.818,-5.851,-5.9318,-6.0126,-6.0896,-6.141,-6.1777,-6.2108,-5.328,-5.3318,-5.3318,0.0,-5.328,0.0,0.0,0.0,-5.4818,0.0,-5.5703,-5.5703,-5.5703,-5.5649,-5.5577,-5.5593,-5.5535,-5.5461,-5.5449,-5.5288,0.0,0.0,-5.4532,-5.4387,-5.3814,0.0,0.0,0.0,0.0,-5.3042,-5.2947,-5.2576,-5.2399,-5.2419,-5.2482,0.0,-5.2548,-5.3023,-5.3203,-5.3203,-5.3203,-5.3203,-5.3203,-5.3203,-5.3203,-5.3203,-5.3203,-5.3203,-5.3203,-5.3203,-5.3203,-5.3203,-5.3203,-5.3203,-5.3203,-5.3203,-5.3203,-5.3203,-5.3203,-5.3203,-5.3203,-5.3203,0.0,0.0,0.0,0.0,-5.3203,0.0,0.0,0.0,0.0,0.0,0.0,-5.3203,-5.3167,-5.3124,0.0,0.0,0.0,0.0,0.0,0.0,0.0,0.0,0.0,0.0,0.0,0.0,0.0,0.0,-5.5941,-5.6712,-5.7556,-5.7997,-5.7997,-5.7997,-5.7997,-5.7997,-5.7997,-5.7997,-5.7997,-5.7997,-5.7997,-5.7997,-5.7997,-5.7997,-5.7997,-5.8033,-5.851,-5.9258,-6.0126,-6.097,-6.1667,-6.1667,-6.2144,-6.278,-5.4049,-5.4664,-5.5049,0.0,-5.4549,-5.4434,0.0,0.0,0.0,0.0,-5.5682,-5.5671,-5.5543,-5.5593,-5.5485,-5.5236,-5.5197,0.0,0.0,0.0,0.0,-5.4121,-5.4594,-5.4594,-5.3961,-5.4178,0.0,-5.3383,0.0,-5.2926,-5.2238,-5.2115,-5.2204,-5.2467,-5.2475,-5.2692,-5.304,-5.3157,-5.3203,-5.3203,-5.3203,-5.3203,0.0,0.0,-5.3203,-5.3203,-5.3203,-5.3203,-5.3203,-5.3203,-5.3203,-5.3203,-5.3203,-5.3203,-5.3203,-5.3203,-5.3203,-5.3203,-5.3203,-5.3203,-5.3203,-5.3203,-5.3203,-5.3203,0.0,0.0,0.0,0.0,0.0,0.0,0.0,0.0,0.0,0.0,0.0,0.0,0.0,0.0,0.0,-5.2549,0.0,0.0,0.0,0.0,0.0,0.0,0.0,0.0,0.0,0.0,0.0,-5.5904,-5.7262,-5.7997,-5.7997,-5.7997,-5.7997,-5.7997,-5.7997,-5.7997,-5.7997,-5.7997,-5.7997,-5.7997,-5.7997,-5.7997,-5.8033,-5.8657,-5.9001,-5.9331,-6.075,-6.1777,-6.2511,-6.2511,-6.2622,-6.278,-5.4934,0.0,0.0,-5.5703,0.0,0.0,-5.5594,-5.5692,0.0,-5.5626,-5.5649,0.0,-5.5338,-5.5461,-5.5376,-5.488,-5.5116,0.0,-5.4591,0.0,0.0,-5.3943,-5.4118,-5.4086,-5.3661,-5.4015,0.0,-5.3474,0.0,0.0,-5.3021,-5.2806,-5.2824,-5.3013,-5.2877,-5.2954,-5.3203,-5.3203,-5.3203,-5.3203,-5.3203,0.0,0.0,-5.3203,-5.3203,-5.3203,-5.3203,-5.3203,-5.3203,-5.3203,-5.3203,-5.3203,-5.3203,-5.3203,-5.3203,-5.3203,-5.3203,-5.3203,-5.3203,-5.3203,-5.3203,-5.3203,-5.3203,-5.3203,-5.3203,-5.3203,-5.3203,0.0,0.0,0.0,0.0,0.0,0.0,0.0,0.0,0.0,0.0,0.0,0.0,0.0,0.0,0.0,0.0,0.0,0.0,0.0,0.0,0.0,0.0,0.0,0.0,-5.5596,-5.7152,-5.7997,-5.7997,-5.7997,-5.7997,-5.7997,-5.7997,-5.7997,-5.7997,-5.7997,-5.7997,-5.8033,-5.8364,-5.851,-5.8584,-5.9391,-5.9942,-6.0382,-6.163,-6.2401,-6.278,-6.278,-6.278,-6.278,0.0,0.0,0.0,0.0,0.0,0.0,0.0,-5.5626,0.0,-5.5531,0.0,-5.5375,-5.5053,-5.5224,-5.5132,-5.4538,0.0,-5.5119,-5.4522,-5.449,-5.4255,-5.3814,-5.3506,-5.3297,-5.3225,-5.3526,0.0,0.0,0.0,-5.4245,-5.4158,-5.3814,-5.3643,-5.3604,0.0,0.0,0.0,-5.3203,-5.3203,-5.3203,-5.3203,-5.3203,-5.3203,-5.3203,-5.3203,-5.3203,-5.3203,-5.3203,-5.3203,-5.3203,-5.3203,-5.3203,-5.3203,-5.3203,-5.3203,-5.3203,-5.3203,-5.3203,-5.3203,-5.3203,-5.3203,-5.3203,-5.3203,-5.3203,-5.3203,-5.3203,-5.3203,-5.3203,-5.3203,-5.3203,0.0,0.0,0.0,0.0,0.0,0.0,0.0,0.0,0.0,0.0,0.0,0.0,0.0,0.0,0.0,0.0,0.0,0.0,0.0,0.0,0.0,-5.5574,-5.7152,0.0,-5.7997,0.0,-5.7997,-5.7997,-5.7997,-5.7997,-5.7997,-5.7997,-5.807,-5.8217,-5.8914,-5.9258,-5.9404,-6.0236,-6.1043,-6.1814,-6.2548,-6.278,-6.278,-6.278,-6.278,-6.278,0.0,0.0,0.0,0.0,0.0,-5.516,-5.5107,-5.5338,-5.5437,-5.5121,-5.5094,-5.4957,-5.4569,-5.4569,-5.4522,-5.4364,-5.4446,0.0,0.0,0.0,0.0,-5.3758,-5.3662,-5.3484,-5.3225,-5.3272,-5.3318,0.0,0.0,-5.3484,-5.3464,-5.3404,-5.3339,-5.3293,0.0,0.0,-5.3203,-5.3203,0.0,-5.3203,-5.3203,-5.3203,-5.3203,-5.3203,-5.3203,-5.3203,-5.3203,-5.3203,-5.3203,-5.3203,-5.3203,-5.3203,-5.3203,-5.3203,-5.3203,-5.3203,-5.3203,-5.3203,-5.3203,-5.3203,-5.3203,-5.3203,-5.3203,-5.3203,-5.3203,-5.3203,-5.3203,-5.3203,-5.3203,-5.3203,-5.3203,0.0,0.0,0.0,0.0,0.0,0.0,0.0,0.0,0.0,0.0,0.0,0.0,0.0,0.0,0.0,0.0,0.0,0.0,0.0,0.0,0.0,-5.7152,0.0,0.0,0.0,-5.7997,-5.7997,-5.7997,-5.7997,-5.7997,-5.7997,-5.8364,-5.9001,-5.9148,-5.9588,-6.0272,-6.1043,-6.1851,-6.2622,-6.2743,-6.278,-6.278,-6.278,-6.278,-6.278,0.0,0.0,0.0,0.0,0.0,0.0,0.0,-5.4985,0.0,-5.4739,-5.4871,-5.4871,-5.4506,-5.4769,-5.4754,-5.421,-5.4495,-5.4479,-5.3926,-5.4035,-5.3907,-5.3524,-5.3444,0.0,-5.3225,-5.3203,-5.3209,-5.3251,0.0,0.0,-5.3524,-5.3339,-5.3318,-5.3424,0.0,-5.3203,0.0,0.0,0.0,-5.3203,-5.3203,-5.3203,-5.3203,-5.3203,-5.3203,-5.3203,-5.3203,-5.3203,-5.3203,-5.3203,-5.3203,-5.3203,-5.3203,-5.3203,-5.3203,-5.3203,-5.3203,-5.3203,-5.3203,-5.3203,-5.3203,-5.3203,-5.3203,-5.3203,-5.3203,-5.3203,-5.3203,-5.3203,-5.3203,-5.3203,-5.3203,-5.3082,0.0,0.0,0.0,0.0,0.0,0.0,0.0,0.0,0.0,0.0,0.0,0.0,0.0,0.0,0.0,0.0,0.0,0.0,0.0,0.0,0.0,0.0,0.0,0.0,0.0,-5.7997,-5.7997,-5.7997,-5.7997,-5.7997,-5.8437,-5.9221,-5.9625,-6.0272,-6.108,-6.1887,-6.2438,-6.278,-6.278,-6.278,-6.278,-6.278,-6.278,-6.278,0.0,-5.5588,0.0,0.0,-5.4876,0.0,-5.4547,-5.4647,-5.4647,-5.4441,-5.4769,-5.4886,-5.4516,-5.4971,-5.4943,-5.4068,-5.449,-5.4409,-5.3521,-5.3622,-5.3602,-5.3297,-5.323,-5.3203,-5.3203,-5.3203,-5.3203,0.0,0.0,0.0,0.0,-5.3297,0.0,0.0,0.0,0.0,0.0,0.0,-5.3203,-5.3203,-5.3203,-5.3203,-5.3203,-5.3203,-5.3203,-5.3203,-5.3203,-5.3203,-5.3203,-5.3203,-5.3203,-5.3203,-5.3203,-5.3203,-5.3203,-5.3203,-5.3203,-5.3203,-5.3203,-5.3203,-5.3203,-5.3203,-5.3203,-5.3203,-5.3203,-5.3203,-5.3203,-5.3203,-5.3203,-5.3203,-5.3203,-5.306,0.0,0.0,0.0,0.0,0.0,0.0,0.0,0.0,0.0,0.0,0.0,0.0,0.0,0.0,0.0,-5.3047,-5.3381,-5.4605,0.0,0.0,0.0,-5.7997,-5.7997,0.0,-5.7997,0.0,-5.7997,-5.7997,-5.7997,-5.818,-5.8694,-5.9478,-6.0309,-6.1117,-6.1887,-6.2548,-6.278,-6.278,-6.278,-6.278,-6.278,-6.278,-6.278,-6.278,0.0,0.0,0.0,0.0,0.0,0.0,-5.4563,-5.4288,-5.419,-5.4436,-5.4798,-5.4886,-5.4516,-5.4547,-5.442,-5.4015,-5.3961,-5.3739,-5.3359,-5.3293,-5.323,-5.3188,-5.3188,-5.3203,-5.3203,-5.3203,-5.3203,0.0,0.0,0.0,0.0,0.0,0.0,0.0,0.0,0.0,0.0,-5.3203,-5.3203,-5.3203,-5.3203,-5.3203,-5.3203,-5.3203,-5.3203,-5.3203,-5.3203,-5.3203,-5.3203,-5.3203,-5.3203,-5.3203,-5.3203,-5.3203,-5.3203,-5.3203,-5.3203,-5.3203,-5.3203,-5.3203,-5.3203,-5.3203,-5.3203,-5.3203,-5.3203,-5.3203,-5.3203,-5.3203,-5.3203,-5.3203,-5.3203,-5.2995,-5.2806,0.0,0.0,0.0,0.0,0.0,0.0,0.0,0.0,0.0,0.0,0.0,0.0,0.0,0.0,-5.3433,-5.4078,-5.5009,-5.5919,-5.6675,0.0,-5.7997,-5.7997,-5.7997,-5.7997,-5.7997,-5.7997,-5.7997,-5.8033,-5.8767,-5.9538,-6.0346,-6.1153,-6.1924,-6.267,-6.2743,-6.278,-6.278,-6.278,-6.278,-6.278,-6.278,-6.278,-6.278,0.0,0.0,0.0,0.0,0.0,0.0,0.0,-5.464,-5.4731,-5.4943,-5.5026,-5.5026,-5.4862,-5.5053,-5.504,-5.4761,-5.4404,-5.4066,-5.3739,-5.3424,-5.3235,-5.3235,-5.3209,-5.3203,-5.3203,-5.3203,-5.3203,0.0,0.0,0.0,0.0,0.0,0.0,0.0,0.0,-5.3203,-5.3203,-5.3203,-5.3203,-5.3203,-5.3203,-5.3203,-5.3203,-5.3203,-5.3203,-5.3203,-5.3203,-5.3203,-5.3203,-5.3203,-5.3203,-5.3203,-5.3203,-5.3203,-5.3203,-5.3203,-5.3203,-5.3203,-5.3203,-5.3203,-5.3203,-5.3203,-5.3203,-5.3203,-5.3203,-5.3203,-5.3203,-5.3203,-5.3203,-5.3203,-5.3203,-5.2995,-5.2806,0.0,0.0,0.0,0.0,0.0,0.0,0.0,0.0,0.0,0.0,0.0,0.0,0.0,0.0,0.0,-5.4276,-5.4979,0.0,-5.6763,0.0,-5.7997,-5.7997,-5.7997,-5.7997,-5.7997,-5.7997,-5.8253,-5.8731,-5.9038,-5.9905,-6.1153,-6.1961,-6.2511,-6.278,-6.278,-6.278,-6.278,-6.278,-6.278,-6.278,-6.278,-6.278,-6.278,-5.5458,0.0,-5.5275,0.0,-5.4876,-5.479,-5.464,-5.4731,-5.4862,-5.5091,-5.4998,-5.4947,-5.5094,-5.5199,-5.5172,-5.488,-5.4522,-5.4135,-5.3833,-5.3464,-5.3256,-5.3256,-5.323,0.0,-5.3203,-5.3203,-5.3203,-5.3203,-5.3203,0.0,0.0,0.0,0.0,0.0,-5.3203,-5.3203,-5.3203,-5.3203,-5.3203,-5.3203,-5.3203,-5.3203,-5.3203,-5.3203,-5.3203,-5.3203,-5.3203,-5.3203,-5.3203,-5.3203,-5.3203,-5.3203,-5.3203,-5.3203,-5.3203,-5.3203,-5.3203,-5.3203,-5.3203,-5.3203,-5.3203,-5.3203,-5.3203,-5.3203,-5.3203,-5.3203,-5.3203,-5.3203,-5.3146,-5.3124,-5.3124,-5.2915,-5.2739,-5.2739,0.0,0.0,0.0,0.0,0.0,0.0,-5.2526,-5.2526,-5.248,0.0,0.0,0.0,0.0,0.0,0.0,0.0,0.0,0.0,0.0,0.0,0.0,-5.7997,-5.7997,-5.7997,-5.7997,-5.8437,-5.9221,-5.9685,-6.0676,-6.1998,-6.2548,-6.278,-6.278,-6.278,-6.278,-6.278,-6.278,-6.278,-6.278,-6.278,-6.278,-6.278,-5.4998,-5.479,-5.4594,-5.4516,-5.4376,-5.4397,-5.4654,-5.4376,-5.4238,-5.4579,-5.4547,-5.4655,-5.5067,-5.4745,-5.4392,-5.4033,-5.3888,-5.3663,-5.3339,-5.3251,-5.3225,0.0,0.0,-5.3203,-5.3203,-5.3203,-5.3203,-5.3203,0.0,0.0,-5.3225,0.0,-5.3203,-5.3203,-5.3203,-5.3203,-5.3203,-5.3203,-5.3203,-5.3203,-5.3203,-5.3203,-5.3203,-5.3203,-5.3203,-5.3203,-5.3203,-5.3203,-5.3203,-5.3203,-5.3203,-5.3203,-5.3203,-5.3203,-5.3203,-5.3203,-5.3203,-5.3203,-5.3203,-5.3203,-5.3203,-5.3203,-5.3203,-5.3203,-5.3203,-5.3203,-5.3203,-5.3203,-5.3103,-5.298,-5.298,-5.2806,-5.259,-5.259,0.0,0.0,0.0,0.0,0.0,0.0,-5.2559,-5.2581,-5.2503,0.0,0.0,0.0,0.0,0.0,0.0,0.0,0.0,-5.796,-5.7997,0.0,-5.7997,-5.7997,-5.7997,-5.7997,-5.7997,-5.8437,-5.9258,-6.086,-6.2034,-6.2805,-6.278,-6.278,-6.278,-6.278,-6.278,-6.278,-6.278,-6.278,-6.278,-6.278,-6.278,-6.278,-5.4625,-5.4579,-5.4516,-5.4484,-5.4474,-5.4474,-5.4554,-5.4436,-5.4404,-5.4516,-5.4238,-5.4083,-5.4183,-5.4338,-5.4392,0.0,-5.3943,-5.3701,0.0,-5.3318,-5.3203,-5.3203,-5.3203,-5.3203,-5.3203,-5.3203,-5.3203,-5.3203,0.0,0.0,0.0,-5.3203,-5.3203,-5.3203,-5.3203,-5.3203,-5.3203,-5.3203,-5.3203,-5.3203,-5.3203,-5.3203,-5.3203,-5.3203,-5.3203,-5.3203,-5.3203,-5.3203,-5.3203,-5.3203,-5.3203,-5.3203,-5.3203,-5.3203,-5.3203,-5.3203,-5.3203,-5.3203,-5.3203,-5.3203,-5.3203,-5.3203,-5.3203,-5.3203,-5.3203,-5.3203,-5.3203,-5.3203,-5.3103,-5.298,-5.298,-5.2806,-5.259,-5.259,-5.2536,0.0,0.0,0.0,0.0,0.0,-5.2559,-5.2845,0.0,-5.3554,0.0,0.0,0.0,0.0,0.0,0.0,0.0,0.0,-5.7997,0.0,-5.7997,-5.7997,-5.7997,-5.7997,-5.8547,-5.9538,-6.086,-6.1924,-6.2585,-6.278,-6.278,-6.278,-6.278,-6.278,-6.278,-6.278,-6.278,-6.273,-6.2679,-6.2755,-6.273,-6.2679,-5.4425,-5.4322,-5.4288,-5.4452,-5.4404,-5.4376,-5.4376,-5.4296,-5.421,-5.421,-5.3907,-5.3701,-5.3701,-5.3888,0.0,-5.3962,-5.3662,-5.3504,-5.3504,-5.3334,-5.3203,-5.3203,-5.3203,-5.3203,-5.3203,0.0,0.0,-5.3203,-5.3203,-5.3203,-5.3203,-5.3203,-5.3203,-5.3203,-5.3203,-5.3203,-5.3203,-5.3203,-5.3203,-5.3203,-5.3203,-5.3203,-5.3203,-5.3203,-5.3203,-5.3203,-5.3203,-5.3203,-5.3203,-5.3203,-5.3203,-5.3203,-5.3203,-5.3203,-5.3203,-5.3203,-5.3203,-5.3203,-5.3203,-5.3203,-5.3203,-5.3203,-5.3203,-5.3277,-5.3592,-5.3665,-5.3739,-5.4032,-5.3983,-5.3895,-5.3895,-5.3703,-5.3568,-5.3568,-5.3535,-5.3489,-5.3489,0.0,0.0,0.0,0.0,0.0,0.0,-5.4529,0.0,0.0,0.0,0.0,0.0,0.0,0.0,-5.7997,-5.7997,0.0,-5.7997,-5.7997,-5.8143,-5.8474,-5.9575,-6.0639,-6.163,-6.2438,-6.278,-6.278,-6.278,-6.278,-6.278,-6.278,-6.278,-6.278,-6.278,-6.2755,-6.2679,-6.2755,-6.2755,-6.2679,-5.4429,-5.42,0.0,0.0,-5.4392,0.0,-5.433,-5.4056,-5.3842,-5.3842,-5.3726,-5.3665,-5.3665,-5.3584,-5.3461,-5.3393,0.0,0.0,0.0,-5.3225,-5.3188,-5.3203,-5.3203,-5.3203,-5.3203,-5.3203,-5.3203,-5.3203,-5.3203,-5.3203,-5.3203,-5.3203,-5.3203,-5.3203,-5.3203,-5.3203,-5.3203,-5.3203,-5.3203,-5.3203,-5.3203,-5.3203,-5.3203,-5.3203,-5.3203,-5.3203,-5.3203,-5.3203,-5.3203,-5.3203,-5.3203,-5.3203,-5.3203,-5.3203,-5.3203,-5.3203,-5.3203,-5.3203,-5.3203,-5.3203,-5.3203,-5.3203,-5.3261,-5.3482,-5.4289,-5.4473,-5.4693,-5.5427,-5.5485,-5.5395,-5.5395,-5.5304,-5.5212,-5.5212,-5.5212,-5.5212,-5.5212,0.0,0.0,0.0,0.0,0.0,0.0,-5.5514,-5.597,0.0,0.0,0.0,0.0,0.0,-5.7997,-5.7997,-5.7997,-5.7997,-5.7997,-5.807,-5.851,-5.9368,-6.0896,-6.163,-6.1704,-6.2475,-6.278,-6.278,-6.278,-6.278,-6.278,-6.278,-6.278,-6.278,-6.278,-6.278,-6.278,-6.278,-6.278,-6.278,0.0,0.0,-5.5455,-5.5538,-5.5498,-5.5495,-5.5495,-5.5431,-5.5369,-5.5369,-5.5348,-5.5348,-5.5348,-5.5307,-5.5286,-5.5265,-5.4018,-5.3277,-5.3277,-5.3277,-5.3235,-5.3225,-5.3203,-5.3203,-5.3203,-5.3203,-5.3203,-5.3203,-5.3203,-5.3203,-5.3203,-5.3203,-5.3203,-5.3203,-5.3203,-5.3203,-5.3203,-5.3203,-5.3203,-5.3203,-5.3203,-5.3203,-5.3203,-5.3203,-5.3203,-5.3203,-5.3203,-5.3203,-5.3203,-5.3203,-5.3203,-5.3203,-5.3203,-5.3203,-5.3203,-5.3203,-5.3203,-5.3203,-5.3203,-5.3203,-5.3203,-5.3203,-5.3665,-5.4326,-5.5133,-5.5317,-5.5354,-5.5537,-5.5485,-5.5395,-5.5395,-5.5304,-5.5212,-5.5212,-5.5212,-5.5212,-5.5212,-5.5212,0.0,0.0,-5.5327,-5.5651,-5.6214,-5.6401,-5.6836,0.0,0.0,0.0,0.0,-5.7997,-5.7997,-5.7997,-5.7997,-5.7997,-5.7997,-5.8621,-5.9648,-6.1043,-6.141,-6.1924,-6.2511,-6.2732,-6.278,-6.278,-6.278,-6.278,-6.278,-6.2679,-6.2705,-6.278,-6.2552,-6.2552,-6.2654,-6.2654,-6.2654,-6.2654,-5.5876,-5.5897,-5.5902,-5.5881,-5.5944,-5.6023,-5.6064,-5.6084,-5.6084,-5.6084,-5.6084,-5.6084,-5.6084,-5.6043,-5.6023,-5.6064,-5.5127,-5.4485,-5.4423,-5.4423,-5.4417,-5.4289,-5.4289,-5.4106,-5.3775,-5.3739,-5.3592,-5.3203,-5.3203,-5.3203,-5.3203,-5.3203,-5.3203,-5.3203,-5.3203,-5.3203,-5.3203,-5.3203,-5.3408,-5.3739,-5.3371,-5.3445,-5.3702,-5.3314,-5.3203,-5.3203,-5.3203,-5.3203,-5.3203,-5.3203,-5.3203,-5.3203,-5.3203,-5.3203,-5.3298,-5.3665,-5.3482,-5.3203,-5.3203,-5.3482,-5.3849,-5.4216,-5.462,-5.517,-5.5978,-5.6161,-5.6235,-5.6602,-5.663,-5.6585,-5.6585,-5.6539,-5.6493,-5.6493,-5.6493,-5.647,-5.64,-5.64,0.0,-5.64,-5.6447,-5.6699,-5.7208,-5.729,-5.7519,-5.796,0.0,0.0,-5.7997,-5.7997,-5.7997,-5.7997,-5.7997,-5.818,-5.8547,-5.9722,-6.075,-6.1594,-6.1961,-6.2401,-6.278,-6.278,-6.278,-6.278,-6.278,-6.278,-6.278,-6.2705,-6.2705,-6.2705,-6.2603,-6.2578,-6.2603,-6.2603,-6.2603,-6.2603,-5.6218,-5.6245,-5.6272,-5.6309,-5.6393,-5.6496,-5.6634,-5.6655,-5.6655,-5.6655,-5.6655,-5.6655,-5.6634,-5.6516,-5.6496,-5.6594,-5.6413,-5.6156,-5.5828,-5.5807,-5.5742,-5.5633,-5.5596,-5.528,-5.4583,-5.4583,-5.4252,-5.3555,-5.3555,-5.3555,-5.3555,-5.3555,-5.3555,-5.3555,-5.3555,-5.3555,-5.3555,-5.3555,-5.3959,-5.4509,-5.3849,-5.3959,-5.4509,-5.3812,-5.3555,-5.3555,-5.3555,-5.3555,-5.3555,-5.3555,-5.3555,-5.3555,-5.3555,-5.3555,-5.3702,-5.4363,-5.4106,-5.3555,-5.3555,-5.4069,-5.4766,-5.5574,-5.5757,-5.5978,-5.6822,-5.6969,-5.7152,-5.7703,-5.7923,-5.796,-5.785,-5.7923,-5.7997,-5.7997,-5.7997,-5.795,-5.7834,0.0,-5.781,-5.7786,-5.781,-5.7857,-5.7973,-5.7997,-5.7997,-5.7997,-5.7997,-5.7997,0.0,-5.7997,-5.807,-5.818,-5.818,-5.8621,-5.9551,-6.0933,-6.1667,-6.1777,-6.2475,-6.278,-6.278,-6.278,-6.278,-6.278,-6.278,-6.278,-6.278,-6.278,-6.2705,-6.2629,-6.2705,-6.2679,-6.2603,-6.2578,-6.2578,-6.2552,-5.8002,-5.8024,-5.803,-5.8079,-5.81,-5.8164,-5.8306,-5.8326,-5.8326,-5.8326,-5.8326,-5.8285,-5.818,-5.8122,-5.8116,-5.8089,-5.8045,-5.7433,-5.5987,-5.5828,-5.572,-5.5633,-5.5596,-5.5559,-5.5427,-5.539,-5.5354,-5.5207,-5.5207,-5.5207,-5.5207,-5.5207,-5.5207,-5.5207,-5.5207,-5.5207,-5.5207,-5.5207,-5.528,-5.539,-5.528,-5.528,-5.539,-5.528,-5.5207,-5.5207,-5.5207,-5.5207,-5.5207,-5.5207,-5.5207,-5.5207,-5.5207,-5.5207,-5.5244,-5.5354,-5.5317,-5.5207,-5.5207,-5.5317,-5.5611,-5.6418,-5.6602,-5.6822,-5.7629,-5.7813,-5.7666,-5.7116,-5.7519,-5.7776,-5.7116,-5.7556,-5.7997,-5.7997,-5.7997,-5.795,-5.7834,0.0,-5.7763,-5.7631,-5.7703,-5.781,-5.7834,-5.7927,-5.7997,-5.7997,-5.7997,-5.7997,-5.7997,-5.7997,-5.8327,-5.8964,-5.9001,-5.9722,-6.119,-6.1484,-6.1924,-6.2622,-6.2743,-6.278,-6.278,-6.278,-6.278,-6.278,-6.278,-6.278,-6.278,-6.2679,-6.2679,-6.2755,-6.2526,-6.25,-6.2603,-6.2475,-6.2423,-6.2459,-5.8305,-5.8349,-5.8393,-5.8334,-5.84,-5.8465,-5.8593,-5.8593,-5.8593,-5.8593,-5.8593,-5.8551,-5.8443,-5.8443,-5.8422,-5.8393,-5.8327,-5.7973,-5.7177,-5.7096,-5.703,-5.6918,-5.6895,-5.6675,-5.6271,-5.5794,-5.5596,-5.5596,-5.5596,-5.5596,-5.5596,-5.5596,-5.5596,-5.5596,-5.5596,-5.5596,-5.5596,-5.5596,-5.5831,-5.6198,-5.5757,-5.5868,-5.6198,-5.5757,-5.5596,-5.5596,-5.5596,-5.5596,-5.5596,-5.5596,-5.5596,-5.5596,-5.5596,-5.5596,-5.5596,-5.5596,-5.528,-5.506,-5.5464,-5.528,-5.5133,-5.5941,-5.6161,-5.6235,-5.6602,-5.7042,-5.7262,-5.6895,-5.7446,-5.7886,-5.7519,-5.774,-5.7973,-5.7904,-5.795,0.0,0.0,-5.7726,-5.7786,-5.7739,-5.775,-5.7834,-5.7904,-5.7973,-5.7997,-5.7997,-5.7997,-5.818,-5.8621,-5.8657,-5.9024,-5.9808,-6.0272,-6.086,-6.1594,-6.2034,-6.2438,-6.278,-6.278,-6.278,-6.278,-6.278,-6.278,-6.278,-6.278,-6.278,-6.278,-6.273,-6.2654,-6.2578,-6.2526,-6.2449,-6.237,-6.2291,-6.2265,-6.2265,-5.8156,-5.826,-5.8282,-5.8201,-5.8305,-5.8393,-5.8465,-5.8486,-5.8486,-5.8486,-5.8486,-5.8443,-5.8371,-5.8349,-5.8349,-5.8305,-5.8201,-5.8133,-5.8133,-5.8133,-5.8088,-5.7997,-5.7997,-5.7703,-5.7079,-5.6455,-5.6161,-5.6161,-5.6161,-5.6161,-5.6161,-5.6161,-5.6161,-5.6161,-5.6161,-5.6161,-5.6161,-5.6161,-5.6492,-5.7042,-5.6418,-5.6528,-5.7005,-5.6381,-5.6161,-5.6124,-5.5941,-5.5868,-5.5831,-5.5647,-5.5596,-5.5596,-5.5596,-5.5596,-5.5596,-5.5596,-5.5133,-5.4803,-5.5449,-5.5133,-5.4876,-5.5684,-5.5868,-5.5904,-5.6124,-5.6638,-5.7042,-5.6859,-5.7446,-5.7923,-5.7776,-5.7886,-5.7973,-5.7881,0.0,0.0,0.0,-5.7763,-5.781,-5.7763,-5.7786,-5.7857,-5.795,-5.7973,-5.807,-5.8253,-5.829,-5.8621,-5.9441,-5.9478,-5.9869,-6.0639,-6.1263,-6.1704,-6.1887,-6.2511,-6.278,-6.278,-6.278,-6.278,-6.278,-6.278,-6.278,-6.278,-6.278,-6.278,-6.278,-6.278,-6.2654,-6.2449,-6.2552,-6.2449,-6.2185,-6.2185,-6.2158,-6.2141,-5.802,-5.802,-5.8065,-5.8156,-5.8215,-5.8282,-5.8393,-5.8415,-5.8415,-5.8415,-5.8415,-5.8371,-5.8238,-5.8201,-5.8156,-5.8042,-5.802,-5.802,-5.802,-5.802,-5.802,-5.7997,-5.7997,-5.796,-5.7923,-5.785,-5.7813,-5.7813,-5.7813,-5.7813,-5.7813,-5.7813,-5.7813,-5.7813,-5.7813,-5.7813,-5.7813,-5.7813,-5.785,-5.7923,-5.785,-5.785,-5.7923,-5.785,-5.7813,-5.774,-5.6969,-5.6712,-5.6602,-5.5831,-5.5596,-5.5596,-5.5596,-5.5596,-5.5596,-5.5596,-5.5537,-5.5522,-5.5596,-5.5537,-5.5684,-5.6528,-5.6712,-5.6932,-5.7666,-5.785,-5.7703,-5.6969,-5.7446,-5.7776,-5.7042,-5.7483,-5.7997,-5.7997,0.0,0.0,-5.781,-5.781,-5.7763,-5.7607,-5.7703,-5.781,-5.7834,-5.7927,-5.8327,-5.9038,-5.9111,-5.9441,-6.0272,-6.0309,-6.0676,-6.1484,-6.1557,-6.1961,-6.267,-6.2743,-6.278,-6.278,-6.278,-6.278,-6.278,-6.278,-6.278,-6.278,-6.278,-6.278,-6.278,-6.278,-6.2705,-6.2603,-6.2603,-6.2449,-6.2185,-6.2185,-6.2141,-6.2005,-5.7997,-5.7997,-5.802,-5.8065,-5.8065,-5.8111,-5.826,-5.8282,-5.8282,-5.8282,-5.8282,-5.8201,-5.8088,-5.8065,-5.8042,-5.7997,-5.7997,-5.7997,-5.7997,-5.7997,-5.7997,-5.7997,-5.7997,-5.7997,-5.7997,-5.7997,-5.7997,-5.7997,-5.7997,-5.7997,-5.7997,-5.7997,-5.7997,-5.7997,-5.7997,-5.7997,-5.7997,-5.7997,-5.7997,-5.7997,-5.7997,-5.7703,-5.7262,-5.7262,-5.6932,-5.6455,-5.6161,-5.6381,-5.6748,-5.6455,-5.6675,-5.7079,-5.7079,-5.7079,-5.6969,-5.6492,-5.5978,-5.5596,-5.5596,-5.5596,-5.5647,-5.5978,-5.6051,-5.6124,-5.6418,-5.6895,-5.7189,-5.6859,-5.7446,-5.7923,-5.7593,-5.7776,-5.7973,-5.7904,0.0,-5.795,-5.7834,-5.7881,-5.7904,-5.7857,-5.7904,-5.811,-5.8624,-5.8684,-5.9098,-5.9905,-5.9942,-6.0309,-6.108,-6.163,-6.2034,-6.2328,-6.2365,-6.2511,-6.278,-6.278,-6.278,-6.278,-6.278,-6.278,-6.278,-6.278,-6.278,-6.278,-6.278,-6.278,-6.278,-6.2705,-6.2603,-6.2449,-6.237,-6.2248,-6.2087,-6.2087,-6.2033,-6.1978,-5.7997,-5.7997,-5.7997,-5.7997,-5.7997,-5.802,-5.8111,-5.8133,-5.8133,-5.8133,-5.8133,-5.8088,-5.802,-5.7997,-5.7997,-5.7997,-5.7997,-5.7997,-5.7997,-5.7997,-5.7997,-5.7997,-5.7997,-5.7997,-5.7997,-5.7997,-5.7997,-5.7997,-5.7997,-5.7997,-5.7997,-5.7997,-5.7997,-5.7997,-5.7997,-5.7997,-5.7997,-5.7997,-5.785,-5.7629,-5.7629,-5.7152,-5.6455,-5.6712,-5.6455,-5.5978,-5.5978,-5.6345,-5.6748,-5.6528,-5.6785,-5.7262,-5.7262,-5.7262,-5.7189,-5.6895,-5.6418,-5.6014,-5.6271,-5.6345,-5.6271,-5.6051,-5.5978,-5.6051,-5.6308,-5.6785,-5.7189,-5.7189,-5.7629,-5.7997,-5.7997,-5.7997,-5.7973,-5.7881,-5.795,-5.7973,-5.7881,-5.795,-5.8107,-5.8364,-5.84,-5.8694,-5.9478,-5.9588,-5.9905,-6.0713,-6.0786,-6.1117,-6.1924,-6.2511,-6.278,-6.278,-6.278,-6.278,-6.278,-6.278,-6.278,-6.278,-6.278,-6.278,-6.278,-6.278,-6.278,-6.278,-6.278,-6.278,-6.273,-6.2629,-6.25,-6.2354,-6.2248,-6.2114,-6.1978,-6.1978,-6.1978,-6.1978,-5.7997,-5.7997,-5.7997,-5.7997,-5.7997,-5.7997,-5.7997,-5.7997,-5.7997,-5.7997,-5.7997,-5.7997,-5.7997,-5.7997,-5.7997,-5.7997,-5.7997,-5.7997,-5.7997,-5.7997,-5.7997,-5.7997,-5.7997,-5.7997,-5.7997,-5.7997,-5.7997,-5.7997,-5.7997,-5.7997,-5.7997,-5.7997,-5.7997,-5.7997,-5.7997,-5.7997,-5.7997,-5.7997,-5.7556,-5.6822,-5.6822,-5.6345,-5.5684,-5.6492,-5.6822,-5.6785,-5.6785,-5.6785,-5.6675,-5.5868,-5.5611,-5.5611,-5.5611,-5.5611,-5.5757,-5.6602,-5.6822,-5.6969,-5.7776,-5.7997,-5.7813,-5.7005,-5.6822,-5.7042,-5.7813,-5.7997,-5.7997,-5.7997,-5.7997,-5.7997,-5.7997,-5.7997,-5.7997,-5.7997,-5.7997,-5.7997,-5.7997,-5.7997,-5.8327,-5.9111,-5.9184,-5.9515,-6.0346,-6.0419,-6.075,-6.1557,-6.1594,-6.1961,-6.2768,-6.278,-6.278,-6.278,-6.278,-6.278,-6.278,-6.278,-6.278,-6.278,-6.278,-6.278,-6.278,-6.278,-6.278,-6.278,-6.278,-6.273,-6.2603,-6.2603,-6.2449,-6.2185,-6.2185,-6.2114,-6.1978,-6.1978,-6.1978,-6.1978,-5.7997,-5.7997,-5.7997,-5.7997,-5.7997,-5.7997,-5.7997,-5.7997,-5.7997,-5.7997,-5.7997,-5.7997,-5.7997,-5.7997,-5.7997,-5.7997,-5.7997,-5.7997,-5.7997,-5.7997,-5.7997,-5.7997,-5.7997,-5.7997,-5.7997,-5.7997,-5.7997,-5.7997,-5.7997,-5.7997,-5.7997,-5.7997,-5.7997,-5.7997,-5.7997,-5.7703,-5.7189,-5.7776,-5.7556,-5.6859,-5.7409,-5.7152,-5.6455,-5.6712,-5.6455,-5.5941,-5.5941,-5.6308,-5.6748,-5.6528,-5.6822,-5.7262,-5.7262,-5.7262,-5.7336,-5.7556,-5.7629,-5.7703,-5.7923,-5.7997,-5.7923,-5.7703,-5.7629,-5.7703,-5.796,-5.7997,-5.7997,-5.7997,-5.7997,-5.7997,-5.7997,-5.7997,-5.7997,-5.7997,-5.8474,-5.8841,-5.8841,-5.9318,-5.9758,-6.0015,-6.0052,-6.0382,-6.1153,-6.1227,-6.1594,-6.2401,-6.2438,-6.2548,-6.2805,-6.278,-6.278,-6.278,-6.278,-6.278,-6.278,-6.278,-6.278,-6.278,-6.278,-6.278,-6.278,-6.278,-6.278,-6.278,-6.2705,-6.2629,-6.2603,-6.2397,-6.2265,-6.2185,-6.2114,-6.2033,-6.195,-6.1494,-6.1286,-6.1221,-5.7997,-5.7997,-5.7997,-5.7997,-5.7997,-5.7997,-5.7997,-5.7997,-5.7997,-5.7997,-5.7997,-5.7997,-5.7997,-5.7997,-5.7997,-5.7997,-5.7997,-5.7997,-5.7997,-5.7997,-5.785,-5.7556,-5.7519,-5.7666,-5.7997,-5.7703,-5.7519,-5.7519,-5.7189,-5.7042,-5.7042,-5.7373,-5.7519,-5.7556,-5.785,-5.774,-5.7299,-5.7776,-5.7556,-5.6859,-5.7336,-5.7042,-5.6345,-5.6675,-5.6492,-5.6124,-5.6418,-5.6859,-5.7262,-5.7262,-5.7593,-5.7997,-5.7997,-5.7997,-5.7997,-5.7997,-5.7997,-5.7997,-5.7997,-5.7997,-5.7997,-5.7997,-5.7997,-5.7997,-5.7997,-5.7997,-5.7997,-5.7997,-5.7997,-5.8107,-5.8437,-5.8474,-5.8584,-5.8914,-5.9355,-5.9661,-5.9661,-6.0089,-6.0529,-6.086,-6.086,-6.119,-6.1998,-6.2071,-6.2291,-6.2768,-6.278,-6.278,-6.278,-6.278,-6.278,-6.278,-6.278,-6.278,-6.278,-6.278,-6.278,-6.278,-6.278,-6.278,-6.278,-6.278,-6.2755,-6.2705,-6.2629,-6.2552,-6.2423,-6.2265,-6.2195,-6.2114,-6.2033,-6.1978,-6.195,-6.1551,-6.1228,-6.0956,-5.7997,-5.7997,-5.7997,-5.7997,-5.7997,-5.7997,-5.7997,-5.7997,-5.7997,-5.7997,-5.7923,-5.7886,-5.7886,-5.7813,-5.7776,-5.7776,-5.7776,-5.7776,-5.7776,-5.7776,-5.7483,-5.6822,-5.6859,-5.7299,-5.8107,-5.7336,-5.6932,-5.7005,-5.6345,-5.5978,-5.5941,-5.6675,-5.6969,-5.6932,-5.7666,-5.796,-5.7886,-5.796,-5.7556,-5.6822,-5.6895,-5.6455,-5.5868,-5.6638,-5.6932,-5.7005,-5.774,-5.7997,-5.7997,-5.7997,-5.7997,-5.7997,-5.7997,-5.7997,-5.7997,-5.7997,-5.7997,-5.7997,-5.7997,-5.7997,-5.7997,-5.7997,-5.8033,-5.8107,-5.8033,-5.807,-5.8107,-5.8107,-5.8143,-5.8437,-5.9148,-5.9294,-5.9551,-6.0272,-6.0456,-6.0529,-6.0529,-6.0566,-6.0896,-6.163,-6.1704,-6.1998,-6.2732,-6.278,-6.278,-6.278,-6.278,-6.278,-6.278,-6.278,-6.278,-6.278,-6.278,-6.278,-6.278,-6.2879,-6.2879,-6.278,-6.278,-6.278,-6.278,-6.278,-6.2705,-6.2578,-6.2651,-6.2532,-6.2294,-6.234,-6.2332,-6.2195,-6.2195,-6.2195,-6.2195,-6.214,-6.1731,-6.12,-5.7997,-5.7997,-5.7997,-5.7997,-5.7997,-5.7997,-5.7997,-5.7997,-5.7997,-5.7997,-5.7446,-5.7079,-5.7079,-5.6492,-5.6124,-5.6124,-5.6124,-5.6124,-5.6124,-5.6124,-5.6308,-5.6785,-5.7409,-5.8107,-5.8914,-5.8143,-5.807,-5.8671,-5.9134,-5.9061,-5.8414,-5.8597,-5.8364,-5.774,-5.7923,-5.7666,-5.7116,-5.774,-5.7556,-5.6859,-5.7483,-5.7629,-5.7483,-5.7666,-5.774,-5.7776,-5.7923,-5.7997,-5.7997,-5.7997,-5.7997,-5.7997,-5.7997,-5.7997,-5.7997,-5.7997,-5.7997,-5.7997,-5.7997,-5.7997,-5.7997,-5.7997,-5.8474,-5.8767,-5.8143,-5.851,-5.8927,-5.8927,-5.9465,-5.9942,-6.0126,-6.0162,-6.0199,-6.0382,-6.0933,-6.1337,-6.1337,-6.1887,-6.234,-6.2511,-6.2548,-6.2622,-6.278,-6.278,-6.278,-6.278,-6.278,-6.278,-6.278,-6.278,-6.278,-6.278,-6.278,-6.278,-6.278,-6.3466,-6.3466,-6.278,-6.278,-6.273,-6.2654,-6.2654,-6.2578,-6.2459,-6.301,-6.3184,-6.3176,-6.3683,-6.3917,-6.3889,-6.3889,-6.3889,-6.3832,-6.3298,-6.2993,-6.2683,-5.7997,-5.7997,-5.7997,-5.7997,-5.7997,-5.7886,-5.7483,-5.7446,-5.7299,-5.6895,-5.6492,-5.6235,-5.6235,-5.5831,-5.5596,-5.5596,-5.5596,-5.5757,-5.6161,-5.6528,-5.6932,-5.7336,-5.8143,-5.8767,-5.9184,-5.9171,-5.9171,-5.9184,-5.9245,-5.8841,-5.8047,-5.8474,-5.8217,-5.7446,-5.7813,-5.7776,-5.7409,-5.7813,-5.7776,-5.7409,-5.7813,-5.7997,-5.7997,-5.7997,-5.7997,-5.7997,-5.7997,-5.7997,-5.7997,-5.7997,-5.7997,-5.7997,-5.7997,-5.7997,-5.7997,-5.7997,-5.7997,-5.807,-5.8474,-5.8584,-5.8657,-5.9061,-5.9465,-5.9575,-5.8767,-5.9208,-5.9795,-5.9795,-6.0126,-6.0529,-6.0896,-6.097,-6.1117,-6.1484,-6.1924,-6.2181,-6.2181,-6.2548,-6.278,-6.278,-6.278,-6.278,-6.278,-6.278,-6.278,-6.278,-6.278,-6.278,-6.278,-6.278,-6.278,-6.278,-6.3209,-6.3429,-6.3429,-6.4237,-6.4457,-6.3991,-6.3991,-6.3965,-6.3914,-6.3914,-6.38,-6.3706,-6.4064,-6.4139,-6.4002,-6.4355,-6.448,-6.4396,-6.4396,-6.4188,-6.386,-6.386,-6.3433,-6.2643,-5.7997,-5.7997,-5.7997,-5.7997,-5.7886,-5.7556,-5.6895,-5.6675,-5.6345,-5.5684,-5.5464,-5.539,-5.539,-5.5244,-5.517,-5.517,-5.5427,-5.5868,-5.6565,-5.7483,-5.807,-5.8217,-5.8988,-5.9478,-5.9588,-6.0419,-6.0419,-5.9588,-5.9098,-5.8327,-5.7446,-5.8107,-5.7923,-5.7042,-5.7703,-5.7997,-5.7997,-5.7997,-5.7997,-5.7997,-5.7997,-5.7997,-5.7997,-5.7997,-5.7997,-5.7997,-5.7997,-5.8107,-5.8217,-5.8364,-5.84,-5.84,-5.84,-5.84,-5.84,-5.84,-5.84,-5.8547,-5.9245,-5.9404,-5.9551,-6.0236,-6.0493,-6.0419,-5.9735,-6.0126,-6.0603,-6.0603,-6.0713,-6.1006,-6.1667,-6.1814,-6.2034,-6.2695,-6.278,-6.278,-6.278,-6.278,-6.278,-6.278,-6.278,-6.278,-6.278,-6.278,-6.278,-6.278,-6.278,-6.278,-6.278,-6.2952,-6.3025,-6.3025,-6.387,-6.431,-6.431,-6.5118,-6.5521,-6.5521,-6.5632,-6.5532,-6.5249,-6.5249,-6.5197,-6.5065,-6.5184,-6.5086,-6.4802,-6.4771,-6.4729,-6.4585,-6.4469,-6.4076,-6.361,-6.4196,-6.361,-6.2333,-5.7997,-5.7997,-5.7997,-5.7997,-5.7409,-5.6932,-5.6822,-5.6198,-5.5721,-5.5611,-5.4987,-5.4546,-5.4546,-5.3959,-5.3518,-5.3518,-5.4803,-5.5669,-5.578,-5.7152,-5.8327,-5.9001,-5.9832,-6.0566,-6.1263,-6.2071,-6.2071,-6.1263,-6.1851,-6.1374,-5.9905,-6.0015,-5.9281,-5.785,-5.796,-5.7997,-5.7997,-5.7997,-5.7997,-5.7997,-5.7997,-5.7997,-5.7997,-5.7997,-5.7997,-5.7997,-5.7997,-5.8437,-5.9148,-5.9832,-6.0089,-6.0089,-6.0089,-6.0089,-6.0089,-6.0089,-6.0089,-6.0089,-6.0199,-6.0236,-6.0272,-6.0382,-6.0933,-6.141,-6.13,-6.1374,-6.1447,-6.1447,-6.1998,-6.2511,-6.2622,-6.2658,-6.267,-6.278,-6.278,-6.278,-6.278,-6.278,-6.278,-6.278,-6.278,-6.278,-6.278,-6.278,-6.278,-6.278,-6.278,-6.278,-6.278,-6.3503,-6.3906,-6.3906,-6.4714,-6.5154,-6.5154,-6.5925,-6.6329,-6.6366,-6.7026,-6.6606,-6.5118,-6.5118,-6.5028,-6.4894,-6.545,-6.5694,-6.5618,-6.5555,-6.5533,-6.547,-6.4822,-6.4522,-6.4421,-6.4522,-6.4043,-6.3295,-5.7997,-5.7997,-5.785,-5.7409,-5.7042,-5.6492,-5.5611,-5.517,-5.4766,-5.4326,-5.3959,-5.3739,-5.3739,-5.3812,-5.4069,-5.4509,-5.5611,-5.6638,-5.7556,-5.8694,-5.9722,-6.0529,-6.13,-6.1924,-6.2254,-6.2622,-6.2658,-6.2291,-6.2658,-6.1998,-6.0419,-6.0419,-5.9538,-5.7997,-5.7997,-5.7997,-5.7997,-5.7997,-5.7997,-5.7997,-5.7997,-5.8253,-5.8694,-5.8694,-5.8951,-5.9355,-5.9355,-5.9575,-5.9942,-6.0272,-6.0419,-6.0419,-6.0419,-6.0419,-6.0419,-6.0419,-6.0419,-6.0493,-6.0933,-6.108,-6.119,-6.163,-6.2034,-6.2291,-6.2291,-6.2291,-6.2291,-6.2291,-6.2548,-6.278,-6.278,-6.278,-6.278,-6.278,-6.278,-6.278,-6.278,-6.278,-6.278,-6.278,-6.278,-6.278,-6.278,-6.278,-6.3025,-6.3503,-6.3539,-6.3723,-6.4163,-6.4567,-6.4787,-6.4787,-6.5558,-6.5962,-6.5962,-6.6769,-6.7173,-6.7173,-6.7504,-6.7293,-6.6543,-6.6462,-6.6381,-6.6327,-6.649,-6.6559,-6.6417,-6.5992,-6.5756,-6.5597,-6.4907,-6.4601,-6.4497,-6.3645,-6.3422,-6.3457]},{"header":{"parameterUnit":"m.s-1","parameterCategory":1,"la1":30.6,"la2":28.766,"lo1":-90.7593,"lo2":-88.6598,"dy":0.0162,"dx":0.0183,"nx":116,"ny":114,"refTime":"2024-04-13T06:00:00:Z","depth":0,"parameterNumber":3,"parameterNumberName":"V-component_of_WINDS"},"data":[0.0,0.0,0.0,0.0,0.0,0.0,0.0,0.0,0.0,0.0,0.0,0.0,0.0,0.0,0.0,0.0,0.0,0.0,0.0,0.0,0.0,0.0,0.0,0.0,0.0,0.0,0.0,0.0,0.0,0.0,0.0,0.0,0.0,0.0,0.0,0.0,0.0,0.0,0.0,0.0,0.0,0.0,0.0,0.0,0.0,0.0,0.0,0.0,0.0,0.0,0.0,0.0,0.0,0.0,0.0,0.0,0.0,0.0,0.0,0.0,0.0,0.0,0.0,0.0,0.0,0.0,0.0,0.0,0.0,0.0,0.0,0.0,0.0,0.0,0.0,0.0,0.0,0.0,0.0,0.0,0.0,0.0,0.0,0.0,0.0,0.0,0.0,0.0,0.0,0.0,0.0,0.0,0.0,0.0,0.0,0.0,0.0,0.0,0.0,0.0,0.0,0.0,0.0,0.0,0.0,0.0,0.0,0.0,0.0,0.0,0.0,0.0,0.0,0.0,0.0,0.0,0.0,0.0,0.0,0.0,0.0,0.0,0.0,0.0,0.0,0.0,0.0,0.0,0.0,0.0,0.0,0.0,0.0,0.0,0.0,0.0,0.0,0.0,0.0,0.0,0.0,0.0,0.0,0.0,0.0,0.0,0.0,0.0,0.0,0.0,0.0,0.0,0.0,0.0,0.0,0.0,0.0,0.0,0.0,0.0,0.0,0.0,0.0,0.0,0.0,0.0,0.0,0.0,0.0,0.0,0.0,0.0,0.0,0.0,0.0,0.0,0.0,0.0,0.0,0.0,0.0,0.0,0.0,0.0,0.0,0.0,0.0,0.0,0.0,0.0,0.0,0.0,0.0,0.0,0.0,0.0,0.0,0.0,0.0,0.0,0.0,0.0,0.0,0.0,0.0,0.0,0.0,0.0,0.0,0.0,0.0,0.0,0.0,0.0,0.0,0.0,0.0,0.0,0.0,0.0,0.0,0.0,0.0,0.0,0.0,0.0,0.0,0.0,0.0,0.0,0.0,0.0,0.0,0.0,0.0,0.0,0.0,0.0,0.0,0.0,0.0,0.0,0.0,0.0,0.0,0.0,0.0,0.0,0.0,0.0,0.0,0.0,0.0,0.0,0.0,0.0,0.0,0.0,0.0,0.0,0.0,0.0,0.0,0.0,0.0,0.0,0.0,0.0,0.0,0.0,0.0,0.0,0.0,0.0,0.0,0.0,0.0,0.0,0.0,0.0,0.0,0.0,0.0,0.0,0.0,0.0,0.0,0.0,0.0,0.0,0.0,0.0,0.0,0.0,0.0,0.0,0.0,0.0,0.0,0.0,0.0,0.0,0.0,0.0,0.0,0.0,0.0,0.0,0.0,0.0,0.0,0.0,0.0,0.0,0.0,0.0,0.0,0.0,0.0,0.0,0.0,0.0,0.0,0.0,0.0,0.0,0.0,0.0,0.0,0.0,0.0,0.0,0.0,0.0,0.0,0.0,0.0,0.0,0.0,0.0,0.0,0.0,0.0,0.0,0.0,0.0,0.0,0.0,0.0,0.0,0.0,0.0,0.0,0.0,0.0,0.0,0.0,0.0,0.0,0.0,0.0,0.0,0.0,0.0,0.0,0.0,0.0,0.0,0.0,0.0,0.0,0.0,0.0,0.0,0.0,0.0,0.0,0.0,0.0,0.0,0.0,0.0,0.0,0.0,0.0,0.0,0.0,0.0,0.0,0.0,0.0,0.0,0.0,0.0,0.0,0.0,0.0,0.0,0.0,0.0,0.0,0.0,0.0,0.0,0.0,0.0,0.0,0.0,0.0,0.0,0.0,0.0,0.0,0.0,0.0,0.0,0.0,0.0,0.0,0.0,0.0,0.0,0.0,0.0,0.0,0.0,0.0,0.0,0.0,0.0,0.0,0.0,0.0,0.0,0.0,0.0,0.0,0.0,0.0,0.0,0.0,0.0,0.0,0.0,0.0,0.0,0.0,0.0,0.0,0.0,0.0,0.0,0.0,0.0,0.0,0.0,0.0,0.0,0.0,0.0,0.0,0.0,0.0,0.0,0.0,0.0,0.0,0.0,0.0,0.0,0.0,0.0,0.0,0.0,0.0,0.0,0.0,0.0,0.0,0.0,0.0,0.0,0.0,0.0,0.0,0.0,0.0,0.0,0.0,0.0,0.0,0.0,0.0,0.0,0.0,0.0,0.0,0.0,0.0,0.0,0.0,0.0,0.0,0.0,0.0,0.0,0.0,0.0,0.0,0.0,0.0,0.0,0.0,0.0,0.0,0.0,0.0,0.0,0.0,0.0,0.0,0.0,0.0,0.0,0.0,0.0,0.0,0.0,0.0,0.0,0.0,0.0,0.0,0.0,0.0,0.0,0.0,0.0,0.0,0.0,0.0,0.0,0.0,0.0,0.0,0.0,0.0,0.0,0.0,0.0,0.0,0.0,0.0,0.0,0.0,0.0,0.0,0.0,0.0,0.0,0.0,0.0,0.0,0.0,0.0,0.0,0.0,0.0,0.0,0.0,0.0,0.0,0.0,0.0,0.0,0.0,0.0,0.0,0.0,0.0,0.0,0.0,0.0,0.0,0.0,0.0,0.0,0.0,0.0,0.0,0.0,0.0,0.0,0.0,0.0,0.0,0.0,0.0,0.0,0.0,0.0,0.0,0.0,0.0,0.0,0.0,0.0,0.0,0.0,0.0,0.0,0.0,0.0,0.0,0.0,0.0,0.0,0.0,0.0,0.0,0.0,0.0,0.0,0.0,0.0,0.0,0.0,0.0,0.0,0.0,0.0,0.0,0.0,0.0,0.0,0.0,0.0,0.0,0.0,0.0,0.0,0.0,0.0,0.0,0.0,0.0,0.0,0.0,0.0,0.0,0.0,0.0,0.0,0.0,0.0,0.0,0.0,0.0,0.0,0.0,0.0,0.0,0.0,0.0,0.0,0.0,0.0,0.0,0.0,0.0,0.0,0.0,0.0,0.0,0.0,0.0,0.0,0.0,0.0,0.0,0.0,0.0,0.0,0.0,0.0,0.0,0.0,0.0,0.0,0.0,0.0,0.0,0.0,0.0,0.0,0.0,0.0,0.0,0.0,0.0,0.0,0.0,0.0,0.0,0.0,0.0,0.0,0.0,0.0,0.0,0.0,0.0,0.0,0.0,0.0,0.0,0.0,0.0,0.0,0.0,0.0,0.0,0.0,0.0,0.0,0.0,0.0,0.0,0.0,0.0,0.0,0.0,0.0,0.0,0.0,0.0,0.0,0.0,0.0,0.0,0.0,0.0,0.0,0.0,0.0,0.0,0.0,0.0,0.0,0.0,0.0,0.0,0.0,0.0,0.0,0.0,0.0,0.0,0.0,0.0,0.0,0.0,0.0,0.0,0.0,0.0,0.0,0.0,0.0,0.0,0.0,0.0,0.0,0.0,0.0,0.0,0.0,0.0,0.0,0.0,0.0,0.0,0.0,0.0,0.0,0.0,0.0,0.0,0.0,0.0,0.0,0.0,0.0,0.0,0.0,0.0,0.0,0.0,0.0,0.0,0.0,0.0,0.0,0.0,0.0,0.0,0.0,0.0,0.0,0.0,0.0,0.0,0.0,0.0,0.0,0.0,0.0,0.0,0.0,0.0,0.0,0.0,0.0,0.0,0.0,0.0,0.0,0.0,0.0,0.0,0.0,0.0,0.0,0.0,0.0,0.0,0.0,0.0,0.0,0.0,0.0,0.0,0.0,0.0,0.0,0.0,0.0,0.0,0.0,0.0,0.0,0.0,0.0,0.0,0.0,0.0,0.0,0.0,0.0,0.0,0.0,0.0,0.0,0.0,0.0,0.0,0.0,0.0,0.0,0.0,0.0,0.0,0.0,0.0,0.0,0.0,0.0,0.0,0.0,0.0,0.0,0.0,0.0,0.0,0.0,0.0,0.0,0.0,0.0,0.0,0.0,0.0,0.0,0.0,0.0,0.0,0.0,0.0,0.0,0.0,0.0,0.0,0.0,0.0,0.0,0.0,0.0,0.0,0.0,0.0,0.0,0.0,0.0,0.0,0.0,0.0,0.0,0.0,0.0,0.0,0.0,0.0,0.0,0.0,0.0,0.0,0.0,0.0,0.0,0.0,0.0,0.0,0.0,0.0,0.0,0.0,0.0,0.0,0.0,0.0,0.0,0.0,0.0,0.0,0.0,0.0,0.0,0.0,0.0,0.0,0.0,0.0,0.0,0.0,0.0,0.0,0.0,0.0,0.0,0.0,0.0,0.0,0.0,0.0,0.0,0.0,0.0,0.0,0.0,0.0,0.0,0.0,0.0,0.0,0.0,0.0,0.0,0.0,0.0,0.0,0.0,0.0,0.0,0.0,0.0,0.0,0.0,0.0,0.0,0.0,0.0,0.0,0.0,0.0,0.0,0.0,0.0,0.0,0.0,0.0,0.0,0.0,0.0,0.0,0.0,0.0,0.0,0.0,0.0,0.0,0.0,0.0,0.0,0.0,0.0,0.0,0.0,0.0,0.0,0.0,0.0,0.0,0.0,0.0,0.0,0.0,0.0,0.0,0.0,0.0,0.0,0.0,0.0,0.0,0.0,0.0,0.0,0.0,0.0,0.0,0.0,0.0,0.0,0.0,0.0,0.0,0.0,0.0,0.0,0.0,0.0,0.0,0.0,0.0,0.0,0.0,0.0,0.0,0.0,0.0,0.0,0.0,0.0,0.0,0.0,0.0,0.0,0.0,0.0,0.0,0.0,0.0,0.0,0.0,0.0,0.0,0.0,0.0,0.0,0.0,0.0,0.0,0.0,0.0,0.0,0.0,0.0,0.0,0.0,0.0,0.0,0.0,0.0,0.0,0.0,0.0,0.0,0.0,0.0,0.0,0.0,0.0,0.0,0.0,0.0,0.0,0.0,0.0,0.0,0.0,0.0,0.0,0.0,0.0,0.0,0.0,0.0,0.0,0.0,0.0,0.0,0.0,0.0,0.0,0.0,0.0,0.0,0.0,0.0,0.0,0.0,0.0,0.0,0.0,0.0,0.0,0.0,0.0,0.0,0.0,0.0,0.0,0.0,0.0,0.0,0.0,0.0,0.0,0.0,0.0,0.0,0.0,0.0,0.0,0.0,0.0,0.0,0.0,0.0,0.0,0.0,0.0,0.0,0.0,0.0,0.0,0.0,0.0,0.0,0.0,0.0,0.0,0.0,0.0,0.0,0.0,0.0,0.0,0.0,0.0,0.0,0.0,0.0,0.0,0.0,0.0,0.0,0.0,0.0,0.0,0.0,0.0,0.0,0.0,0.0,0.0,0.0,0.0,0.0,0.0,0.0,0.0,0.0,0.0,0.0,0.0,0.0,0.0,0.0,0.0,0.0,0.0,0.0,0.0,0.0,0.0,0.0,0.0,0.0,0.0,0.0,0.0,0.0,0.0,0.0,0.0,0.0,0.0,0.0,0.0,0.0,0.0,0.0,0.0,0.0,0.0,0.0,0.0,0.0,0.0,0.0,0.0,0.0,0.0,0.0,0.0,0.0,0.0,0.0,0.0,0.0,0.0,0.0,0.0,0.0,0.0,0.0,0.0,0.0,0.0,0.0,0.0,0.0,0.0,0.0,0.0,0.0,0.0,0.0,0.0,0.0,0.0,0.0,0.0,0.0,0.0,0.0,0.0,0.0,0.0,0.0,0.0,0.0,0.0,0.0,0.0,0.0,0.0,0.0,0.0,0.0,0.0,0.0,0.0,0.0,0.0,0.0,0.0,0.0,0.0,0.0,0.0,0.0,0.0,0.0,0.0,0.0,0.0,0.0,0.0,0.0,0.0,0.0,0.0,0.0,0.0,0.0,0.0,0.0,0.0,0.0,0.0,0.0,0.0,0.0,0.0,0.0,0.0,0.0,0.0,0.0,0.0,0.0,0.0,0.0,0.0,0.0,0.0,0.0,0.0,0.0,0.0,0.0,0.0,0.0,0.0,0.0,0.0,0.0,0.0,0.0,0.0,0.0,0.0,0.0,0.0,0.0,0.0,0.0,0.0,0.0,0.0,0.0,0.0,0.0,0.0,0.0,0.0,0.0,0.0,0.0,0.0,0.0,0.0,0.0,0.0,0.0,0.0,0.0,0.0,0.8912,0.0,0.0,0.0,0.0,0.0,0.0,0.0,0.0,0.0,0.0,0.0,0.0,0.0,0.0,0.0,0.0,0.0,0.0,0.0,0.0,0.0,0.0,0.0,0.0,0.6922,0.7591,0.7856,0.7768,0.7724,0.7724,0.7591,0.0,0.0,0.0,0.0,0.7496,0.7496,0.7496,0.7496,0.7496,0.7452,0.7326,0.7326,0.7231,0.7098,0.0,0.0,0.0,0.0,0.0,0.0,0.0,0.0,0.0,0.0,0.0,0.0,0.0,0.0,0.0,0.0,0.0,0.0,0.0,0.0,0.0,0.0,0.0,0.0,0.0,0.0,0.0,0.0,0.0,0.0,0.0,0.0,0.0,0.0,0.0,0.0,0.0,0.0,0.0,0.0,0.0,0.0,0.0,0.0,0.0,0.0,0.0,0.0,0.0,0.0,0.0,0.0,0.0,0.0,0.0,0.0,0.0,0.0,0.0,0.0,0.0,0.0,0.0,0.0,0.0,0.0,0.0,0.0,0.0,0.0,0.0,0.8885,0.0,0.0,0.0,0.0,0.0,0.0,0.0,0.0,0.0,0.0,0.0,0.0,0.0,0.0,0.0,0.0,0.0,0.0,0.0,0.0,0.0,0.665,0.6157,0.6877,0.7547,0.7812,0.7591,0.7415,0.7415,0.7275,0.7143,0.7098,0.7187,0.7231,0.7187,0.7187,0.7187,0.7187,0.7143,0.7098,0.7098,0.7098,0.7098,0.7098,0.7098,0.0,0.0,0.0,0.0,0.0,0.0,0.0,0.0,0.0,0.0,0.0,0.0,0.0,0.0,0.0,0.0,0.0,0.0,0.0,0.0,0.0,0.0,0.0,0.0,0.0,0.0,0.0,0.0,0.0,0.0,0.0,0.0,0.0,0.0,0.0,0.0,0.0,0.0,0.0,0.0,0.0,0.0,0.0,0.0,0.0,0.0,0.0,0.0,0.0,0.0,0.0,0.0,0.0,0.0,0.0,0.0,0.0,0.0,0.0,0.0,0.0,0.0,0.0,0.9651,0.9651,0.9651,0.9651,0.9541,0.9327,0.8995,0.8885,0.8885,0.0,0.0,0.0,0.0,0.0,0.0,0.0,0.0,0.0,0.0,0.0,0.0,0.0,0.0,0.0,0.0,0.0,0.0,0.0,0.0,0.5941,0.6068,0.6738,0.7275,0.7547,0.7319,0.7143,0.7143,0.7326,0.7326,0.7098,0.754,0.768,0.7459,0.7459,0.7459,0.7459,0.7231,0.7098,0.7098,0.7098,0.7098,0.7098,0.7098,0.7098,0.7098,0.0,0.0,0.0,0.0,0.0,0.0,0.0,0.0,0.0,0.0,0.0,0.0,0.0,0.0,0.0,0.0,0.0,0.0,0.0,0.0,0.0,0.0,0.0,0.0,0.0,0.0,0.0,0.0,0.0,0.0,0.0,0.0,0.0,0.0,0.0,0.0,0.0,0.0,0.0,0.0,0.0,0.8088,0.8336,0.0,0.0,0.0,0.0,0.0,0.0,0.0,0.0,0.0,0.0,0.0,0.0,0.0,0.9761,0.9816,0.9541,0.9437,0.9437,0.9161,0.8995,0.8995,0.8995,0.8995,0.894,0.894,0.0,0.8885,0.8885,0.0,0.0,0.0,0.0,0.0,0.0,0.0,0.0,0.0,0.0,0.0,0.0,0.0,0.0,0.0,0.0,0.0,0.0,0.0,0.0,0.0,0.6473,0.634,0.6479,0.5897,0.5758,0.6296,0.6561,0.6877,0.7326,0.768,0.7856,0.7724,0.7591,0.7415,0.7275,0.7143,0.7098,0.7098,0.7098,0.7098,0.7098,0.7098,0.7098,0.7098,0.737,0.0,0.0,0.0,0.0,0.0,0.0,0.0,0.0,0.0,0.0,0.0,0.0,0.0,0.0,0.0,0.0,0.0,0.0,0.0,0.0,0.0,0.0,0.0,0.0,0.0,0.0,0.0,0.0,0.0,0.0,0.0,0.0,0.0,0.0,0.0,0.0,0.0,0.0,0.0,0.8386,0.8314,0.8557,0.878,0.8999,0.0,0.0,0.0,0.0,0.0,0.0,0.0,0.0,0.0,1.0312,1.0147,1.0147,1.0312,1.0202,1.0147,1.0147,0.9981,0.9926,0.9926,0.9857,0.9678,0.9518,0.9433,0.9298,0.9171,0.8952,0.8885,0.8885,0.0,0.0,0.0,0.0,0.8885,0.8885,0.0,0.0,0.0,0.0,0.0,0.0,0.0,0.0,0.0,0.0,0.0,0.0,0.6694,0.5897,0.5364,0.5364,0.4692,0.4732,0.5719,0.6024,0.6605,0.7547,0.79,0.8032,0.79,0.7635,0.737,0.7098,0.7098,0.7119,0.7197,0.7197,0.7173,0.7213,0.7173,0.7132,0.7098,0.737,0.7635,0.7812,0.0,0.0,0.0,0.0,0.0,0.0,0.0,0.0,0.0,0.0,0.0,0.0,0.0,0.0,0.0,0.0,0.0,0.0,0.0,0.0,0.0,0.0,0.0,0.0,0.0,0.0,0.0,0.0,0.0,0.0,0.0,0.0,0.0,0.0,0.0,0.0,0.0,0.8329,0.8392,0.8656,0.8911,0.9146,0.0,0.0,0.0,0.0,0.0,0.0,1.0586,1.0421,1.0421,1.0688,1.0531,1.0476,1.0688,1.0682,1.0651,1.0651,1.0588,1.0604,1.0612,1.0465,1.03,1.0072,0.9903,0.9729,0.9476,0.9144,0.9049,0.9049,0.9049,0.9049,0.9049,0.9049,0.9049,0.9049,0.0,0.0,0.0,0.0,0.0,0.0,0.0,0.0,0.0,0.0,0.0,0.4781,0.5675,0.4914,0.4376,0.4376,0.4332,0.4821,0.6024,0.6284,0.682,0.7856,0.8296,0.834,0.79,0.7635,0.737,0.7098,0.7098,0.7217,0.7405,0.7405,0.7441,0.757,0.7421,0.7278,0.7098,0.737,0.7503,0.7547,0.7812,0.0,0.0,0.0,0.0,0.0,0.0,0.0,0.0,0.0,0.0,0.0,0.0,0.0,0.0,0.0,0.0,0.0,0.0,0.0,0.0,0.0,0.0,0.0,0.0,0.0,0.0,0.0,0.0,0.0,0.0,0.0,0.0,0.0,0.0,0.0,0.0,0.0,0.0,0.8656,0.8799,0.0,0.0,0.0,0.0,1.0257,0.9981,0.9981,1.0312,1.0312,1.0421,1.0688,1.0688,1.0688,1.0688,1.0588,1.0506,1.0506,1.0376,1.0336,1.0336,1.0286,1.0293,1.0293,1.0012,0.9903,0.9845,0.9534,0.9361,0.9361,0.9361,0.9361,0.9361,0.9361,0.9361,0.9361,0.0,0.0,0.0,0.0,0.0,0.6384,0.7003,0.6296,0.5808,0.6163,0.563,0.5092,0.4825,0.3979,0.34,0.34,0.34,0.3846,0.4865,0.5753,0.6643,0.7591,0.7988,0.7988,0.7635,0.7547,0.7419,0.7292,0.7292,0.7366,0.7516,0.7516,0.755,0.7597,0.7543,0.7489,0.7421,0.7276,0.7326,0.7503,0.7591,0.7812,0.0,0.0,0.0,0.0,0.0,0.0,0.0,0.0,0.0,0.0,0.0,0.0,0.0,0.0,0.0,0.0,0.0,0.0,0.0,0.0,0.0,0.0,0.0,0.0,0.0,0.0,0.0,0.0,0.0,0.0,0.0,0.0,0.0,0.0,0.0,0.0,0.0,0.9375,0.97,0.0,1.0147,1.0327,1.0366,1.0312,1.0366,1.0421,1.0531,1.0586,1.0578,1.0688,1.081,1.0875,1.0875,1.0932,1.0963,1.0963,1.0904,1.0763,1.0532,1.0471,1.0288,1.0119,1.0154,1.0017,0.9845,0.9965,0.9728,0.9381,0.9381,0.9381,0.9381,0.9381,0.9381,0.9381,0.0,0.0,0.0,0.0,0.0,0.6384,0.7003,0.6561,0.6074,0.5719,0.5408,0.487,0.3935,0.2956,0.2509,0.2867,0.2911,0.3489,0.4821,0.5669,0.6561,0.7591,0.7724,0.768,0.7503,0.7471,0.7451,0.7419,0.7421,0.7522,0.7672,0.7672,0.7699,0.7746,0.7692,0.7672,0.7651,0.74,0.7361,0.7447,0.7391,0.7547,0.7768,0.0,0.0,0.0,0.0,0.0,0.0,0.0,0.0,0.0,0.0,0.0,0.0,0.0,0.0,0.0,0.0,0.0,0.0,0.0,0.0,0.0,0.0,0.0,0.0,0.0,0.0,0.0,0.0,0.0,0.0,0.0,0.0,0.0,0.0,0.0,0.9469,0.97,1.0036,1.0285,1.0296,1.0531,1.0641,1.0476,1.0586,1.0688,1.0688,1.0753,1.0785,1.0785,1.0956,1.1053,1.1053,1.1232,1.1313,1.1313,1.1378,1.1294,1.1059,1.0881,1.0636,1.0457,1.0318,1.0186,1.0004,1.0065,0.9887,0.953,0.953,0.953,0.953,0.953,0.953,0.953,0.0,0.0,0.0,0.0,0.0,0.7098,0.7098,0.7098,0.6738,0.5764,0.487,0.3935,0.2956,0.1972,0.1792,0.2822,0.2911,0.3846,0.5935,0.6113,0.665,0.7812,0.7635,0.751,0.751,0.7434,0.7419,0.7433,0.7536,0.7685,0.7828,0.7828,0.7909,0.7995,0.7896,0.7828,0.7814,0.7672,0.7522,0.7419,0.721,0.7282,0.7503,0.0,0.0,0.0,0.0,0.0,0.0,0.0,0.0,0.0,0.0,0.0,0.0,0.0,0.0,0.0,0.0,0.0,0.0,0.0,0.0,0.0,0.0,0.0,0.0,0.0,0.0,0.0,0.0,0.0,0.0,0.0,0.0,0.0,0.918,0.9137,0.9264,0.9579,0.9839,1.0124,1.0296,1.0531,1.0696,1.0704,1.0704,1.0704,1.0712,1.0883,1.1037,1.1037,1.1143,1.1232,1.1232,1.1419,1.1508,1.1508,1.1695,1.1776,1.1776,1.1458,1.1269,1.1209,1.0604,1.0308,1.0247,0.9943,0.9822,0.9822,0.9822,0.9822,0.9822,0.9822,0.9822,0.9822,0.0,0.0,0.0,0.7098,0.7098,0.7098,0.7098,0.7098,0.6517,0.4914,0.4465,0.3664,0.1972,0.157,0.1792,0.2822,0.3534,0.4469,0.5719,0.6428,0.6959,0.7319,0.7231,0.7286,0.7448,0.7398,0.7475,0.7692,0.7841,0.7997,0.8147,0.8248,0.8316,0.8357,0.8316,0.8241,0.8133,0.7984,0.7828,0.7672,0.7414,0.7289,0.7231,0.0,0.0,0.0,0.0,0.0,0.0,0.0,0.0,0.0,0.0,0.0,0.0,0.0,0.0,0.0,0.0,0.0,0.0,0.0,0.0,0.0,0.0,0.0,0.0,0.0,0.0,0.0,0.0,0.0,0.0,0.0,0.0,0.9833,0.9681,0.9912,1.0057,1.0152,1.0379,1.053,1.0578,1.0641,1.0745,1.0883,1.0891,1.0948,1.107,1.1126,1.1151,1.1151,1.133,1.1419,1.1419,1.1606,1.1703,1.1703,1.1752,1.1647,1.1458,1.1337,1.1027,1.0604,1.0664,1.0361,0.9943,1.0126,1.0004,0.9822,0.9822,0.9822,0.9822,0.9822,0.9822,0.9822,0.0,0.0,0.0,0.7098,0.7098,0.7098,0.7098,0.7098,0.6428,0.4554,0.4287,0.3575,0.1613,0.1792,0.2419,0.34,0.4336,0.527,0.6207,0.6782,0.7098,0.7098,0.7204,0.7278,0.7412,0.7495,0.7672,0.7909,0.8058,0.8214,0.8364,0.8445,0.8479,0.8479,0.8479,0.8438,0.835,0.8201,0.8045,0.7889,0.7651,0.7428,0.7238,0.7238,0.7337,0.7503,0.7503,0.7724,0.8025,0.8157,0.0,0.0,0.0,0.0,0.0,0.0,0.0,0.0,0.0,0.0,0.0,0.0,0.0,0.0,0.0,0.0,0.0,0.0,0.0,0.0,0.0,0.0,0.0,0.0,1.0014,1.0111,1.0111,1.0298,1.0407,1.0534,1.0631,1.072,1.0802,1.081,1.0883,1.1062,1.1078,1.1118,1.1216,1.1297,1.1338,1.1338,1.1516,1.1614,1.1614,1.1719,1.1776,1.1776,1.1647,1.1458,1.1269,1.1148,1.0906,0.0,1.0732,1.049,1.0004,1.0247,1.0126,0.0,0.0,0.0,0.0,0.0,1.0604,1.0664,0.0,0.0,0.0,0.7098,0.7098,0.7098,0.7098,0.7098,0.6428,0.4554,0.4287,0.3575,0.1613,0.2285,0.3269,0.4198,0.5137,0.6118,0.7054,0.7098,0.7105,0.7119,0.7299,0.7433,0.7467,0.7692,0.7909,0.8015,0.8235,0.8384,0.8506,0.8526,0.8533,0.8533,0.8533,0.8526,0.8499,0.837,0.8221,0.8002,0.7916,0.7678,0.7439,0.7426,0.7427,0.7487,0.751,0.7768,0.8113,0.8224,0.0,0.0,0.0,0.0,0.0,0.0,0.0,0.0,0.0,0.0,0.0,0.0,0.0,0.0,0.0,0.0,0.0,0.0,0.0,0.0,0.0,0.0,0.0,0.0,1.0225,1.0391,1.0407,1.0415,1.0526,1.0704,1.072,1.0794,1.098,1.0997,1.107,1.124,1.1256,1.1265,1.1281,0.0,0.0,0.0,0.0,1.1776,1.1776,1.1776,1.1776,1.1776,1.1518,1.1337,1.1337,1.1027,1.0861,1.0815,1.08,1.0558,1.0329,1.0254,1.0065,0.9822,0.9822,0.9822,0.9943,1.1088,1.1511,1.1692,0.0,0.0,0.0,0.7098,0.7098,0.7098,0.7098,0.7098,0.6428,0.4554,0.4287,0.3575,0.1613,0.2285,0.3269,0.4198,0.5137,0.6118,0.7054,0.7098,0.7152,0.7319,0.7398,0.7482,0.7719,0.7902,0.8072,0.8228,0.8492,0.8642,0.8669,0.8791,0.8797,0.8797,0.8797,0.8784,0.8662,0.8635,0.8472,0.8221,0.8194,0.7929,0.7543,0.7421,0.7398,0.7403,0.7464,0.7547,0.7701,0.8274,0.8464,0.8586,0.8944,0.9023,0.0,0.0,0.0,0.0,0.0,0.0,0.0,0.0,0.0,0.0,0.0,0.0,0.0,0.0,0.0,0.0,0.0,0.0,0.0,1.0282,1.0334,1.0485,1.0623,1.0639,1.0712,1.0891,1.0915,1.098,1.1159,1.1175,1.1248,1.1435,1.1443,1.1508,1.1663,1.1703,0.0,1.1719,1.176,1.1776,1.1776,1.1776,1.1776,1.1776,0.0,0.0,1.1708,1.1337,1.1103,1.0925,1.054,1.044,1.0424,1.0053,0.9883,0.9822,0.9822,0.9822,0.9822,1.0065,1.0179,1.0179,0.0,0.0,0.0,0.7098,0.7098,0.7098,0.7098,0.7098,0.6605,0.5181,0.5003,0.4469,0.2998,0.3712,0.4469,0.4959,0.5852,0.6605,0.7048,0.7098,0.721,0.7412,0.7448,0.7624,0.7916,0.8079,0.8262,0.8492,0.8635,0.875,0.8825,0.8851,0.8885,0.8885,0.8885,0.8844,0.8818,0.8743,0.8581,0.837,0.8347,0.8092,0.7801,0.7651,0.7502,0.7405,0.7427,0.7624,0.7863,0.817,0.8528,0.8852,0.9169,0.9169,0.9129,0.0,0.0,0.0,0.0,0.0,0.0,0.0,0.0,0.0,0.0,0.0,0.0,0.0,0.0,0.9778,0.9868,0.0,1.0225,1.035,1.0455,1.059,1.068,1.0769,1.0867,1.1012,1.1028,1.107,1.1338,1.1362,1.1435,1.1622,1.1638,1.1679,1.1776,1.1776,1.1776,1.1776,1.1776,1.1776,1.1776,1.1776,1.1776,1.1776,1.1647,1.1526,1.1526,1.1216,1.102,1.0912,1.064,1.0472,1.036,0.9971,0.9822,0.9822,0.9822,0.9822,0.9883,1.0543,1.0725,1.0846,0.0,0.0,0.0,0.7187,0.7143,0.7098,0.7098,0.7098,0.6738,0.5808,0.5719,0.5364,0.4421,0.5137,0.5764,0.5941,0.665,0.7098,0.7098,0.7098,0.7224,0.7407,0.7536,0.774,0.7982,0.8221,0.8425,0.8669,0.8723,0.8818,0.8885,0.8885,0.8885,0.8885,0.8885,0.8885,0.8871,0.8804,0.8648,0.8472,0.8357,0.8201,0.7975,0.7902,0.7692,0.7494,0.7531,0.7805,0.8154,0.8329,0.8706,0.9177,0.9396,0.9315,0.9259,0.9543,0.9527,0.0,0.0,0.0,0.0,0.0,0.0,0.0,0.0,0.0,0.9583,0.9673,0.9786,0.9908,0.9981,1.0233,1.0391,1.0423,1.0599,1.0688,1.0688,1.085,1.098,1.1013,1.1053,1.12,1.1524,1.1549,1.1614,1.1768,1.1776,1.1776,1.1776,1.1776,1.1776,1.1776,1.1776,1.1776,1.1776,1.1776,1.1776,1.1776,1.1526,1.1398,1.1398,1.0974,1.0808,1.0837,1.0777,1.0511,1.0186,1.0004,0.9883,0.9822,0.9822,0.9822,0.9943,1.0967,1.1329,1.1511,0.0,0.0,0.0,0.0,0.0,0.7098,0.7098,0.7098,0.6738,0.5808,0.5719,0.5364,0.4421,0.5137,0.603,0.6871,0.7054,0.7098,0.7098,0.7098,0.7227,0.7563,0.759,0.774,0.7982,0.8316,0.8472,0.8506,0.8777,0.8865,0.8885,0.8885,0.8885,0.8885,0.8885,0.8885,0.8885,0.8865,0.8743,0.8479,0.8465,0.8289,0.7988,0.7968,0.7909,0.7774,0.7976,0.8145,0.838,0.9052,0.9307,0.9404,0.9543,0.9583,0.9526,0.9567,0.9616,0.96,0.9575,0.9575,0.9575,0.9575,0.9575,0.9575,0.0,0.0,0.9673,0.9827,0.9868,0.9981,1.0314,1.035,1.0485,1.0639,1.068,1.0688,1.0688,1.085,1.1029,1.1175,1.1338,1.1524,1.1727,1.1744,1.1752,1.1776,1.1776,1.1776,1.1776,1.1776,1.1776,1.1776,1.1776,1.1776,1.1776,1.1776,1.1776,1.1776,1.1776,1.1716,1.1716,1.1095,1.0867,1.0947,1.0638,1.0251,0.9883,1.0126,1.0065,0.9822,0.9822,0.9822,0.9822,0.9943,1.0004,1.0186,0.0,0.0,0.0,0.0,0.0,0.7098,0.7098,0.7098,0.6959,0.6561,0.6517,0.6384,0.598,0.6428,0.6966,0.7496,0.7415,0.7326,0.7326,0.7187,0.7193,0.7455,0.755,0.774,0.7982,0.8248,0.8397,0.8479,0.8608,0.8716,0.8804,0.8804,0.8797,0.8885,0.8885,0.8838,0.8804,0.8804,0.8635,0.8357,0.8357,0.8228,0.7982,0.7894,0.7874,0.7916,0.8094,0.8288,0.0,0.8996,0.9332,0.9527,0.9608,0.9575,0.9575,0.9575,0.9575,0.9575,0.9575,0.9575,0.9575,0.9575,0.9575,0.9575,0.9575,0.9705,0.9795,0.9868,1.0054,1.0249,1.035,1.0517,1.0607,0.0,1.0688,1.0688,1.0688,1.094,1.1143,1.1216,1.1484,1.1695,1.1768,1.1776,1.1776,1.1776,1.1776,1.1776,1.1776,1.1776,1.1776,1.1776,1.1776,1.1776,1.1776,1.1776,1.1776,1.1776,1.1776,1.1776,1.1776,1.1337,1.0891,1.0591,1.0224,0.9998,0.9822,0.9943,0.9943,0.9822,0.9822,0.9822,0.9822,0.9822,1.024,1.0967,0.0,0.0,0.0,0.0,0.0,0.7187,0.7098,0.7098,0.7098,0.7098,0.7098,0.7143,0.7187,0.737,0.7591,0.7856,0.7635,0.7503,0.7503,0.7231,0.721,0.7412,0.7475,0.7658,0.7867,0.8106,0.8255,0.8357,0.8438,0.854,0.8648,0.8648,0.871,0.8811,0.8811,0.875,0.8648,0.8648,0.8479,0.8208,0.8309,0.8213,0.8069,0.8049,0.8056,0.8117,0.8265,0.8478,0.8702,0.9042,0.9372,0.9575,0.9575,0.9575,0.9575,0.9575,0.9575,0.9575,0.9575,0.9575,0.9575,0.9575,0.9575,0.9591,0.9689,0.9795,0.9916,1.0014,1.0249,1.0399,1.0439,1.0607,1.0688,1.0688,1.0688,1.0688,1.0688,1.0997,1.1224,1.1224,1.1549,1.1776,1.1776,1.1776,1.1776,1.1776,1.1776,1.1776,1.1776,1.1776,1.1776,1.1776,1.1776,1.1776,1.1776,1.1776,1.1776,1.1776,1.1776,1.1776,1.1776,1.1458,1.0967,1.0429,1.0065,0.9943,0.9943,0.9822,0.9822,0.9822,0.9822,0.9822,0.9822,0.9822,1.0361,1.1209,0.0,0.0,0.0,0.0,0.0,0.7415,0.7143,0.7098,0.7098,0.7098,0.7098,0.7187,0.7459,0.7503,0.7591,0.7856,0.7635,0.7503,0.7503,0.7231,0.721,0.7412,0.7419,0.7455,0.7611,0.7896,0.7995,0.8002,0.8343,0.8486,0.8486,0.8486,0.8492,0.8499,0.8499,0.8492,0.8486,0.8486,0.8316,0.8045,0.8293,0.8301,0.8215,0.8497,0.8496,0.8414,0.8549,0.8691,0.8867,0.9418,0.9575,0.9575,0.9575,0.9575,0.9575,0.9575,0.9575,0.9575,0.9575,0.9575,0.9575,0.9575,0.9575,0.9673,0.9843,0.9884,0.9989,1.0347,1.0375,1.0485,1.0655,1.0688,1.0688,1.0688,1.0688,1.0688,1.0688,1.0997,1.1224,1.1224,1.1549,1.1776,0.0,1.1776,1.1776,1.1776,1.1776,1.1776,1.1776,1.1776,1.1776,1.1776,1.1776,1.1776,1.1776,1.1776,1.1776,1.1776,1.1776,1.1776,1.1776,1.1458,1.1088,1.0793,1.0422,1.0301,1.0247,0.9943,0.9822,0.9822,0.9822,0.9822,0.9822,0.9822,0.9822,1.0004,0.0,0.0,0.0,0.0,0.0,0.0,0.7187,0.7098,0.7098,0.7098,0.7098,0.0,0.0,0.0,0.0,0.0,0.812,0.79,0.7768,0.7503,0.7303,0.7217,0.7319,0.7439,0.7448,0.7645,0.7746,0.7746,0.7848,0.7943,0.8038,0.8038,0.8092,0.8187,0.8187,0.8133,0.8038,0.8038,0.7923,0.7753,0.7945,0.7952,0.7973,0.8314,0.8435,0.8428,0.0,0.878,0.8874,0.9426,0.9575,0.9575,0.9575,0.9575,0.9575,0.9575,0.9575,0.9575,0.9575,0.9575,0.9575,0.9575,0.9713,0.9811,0.9868,1.0071,1.0282,1.0358,1.0526,1.0623,1.068,1.0688,1.0688,1.0688,1.0688,1.0737,1.0858,1.1078,1.1265,1.1386,1.1622,0.0,0.0,0.0,0.0,1.1776,1.1776,1.1776,1.1776,1.1776,1.1776,1.1776,1.1776,1.1776,1.1776,1.1776,1.1776,1.1776,1.1776,1.1776,1.1776,1.1458,1.1209,1.1088,1.0785,1.0604,1.0611,1.049,1.0301,1.0126,1.0126,1.0004,0.9822,1.0065,1.0004,1.0004,0.0,0.0,0.0,0.0,0.0,0.0,0.0,0.0,0.0,0.0,0.0,0.0,0.0,0.0,0.0,0.0,0.0,0.8157,0.8025,0.768,0.7415,0.7231,0.7282,0.7292,0.7292,0.7441,0.7516,0.7516,0.757,0.7645,0.7733,0.7733,0.7787,0.7833,0.7833,0.7828,0.7733,0.7733,0.7685,0.7604,0.7882,0.8007,0.8118,0.8608,0.8731,0.0,0.8981,0.9023,0.8981,0.9327,0.9533,0.9575,0.9575,0.9575,0.9575,0.9484,0.9484,0.9484,0.9484,0.9524,0.9572,0.9672,0.9851,0.9998,1.0071,1.0266,1.0399,1.0517,1.0615,1.0688,1.0688,1.0688,1.0688,1.0688,1.0745,1.0834,1.0956,1.1175,1.1362,1.1484,1.1663,1.1776,0.0,0.0,0.0,1.1776,1.1776,1.1776,1.1776,1.1776,1.1776,1.1776,1.1776,1.1776,1.1776,1.1776,1.1776,1.1776,1.1776,1.1776,1.1776,1.1587,1.1458,1.1458,1.1095,1.0967,1.0974,1.0846,1.0671,1.0482,1.0482,1.0368,1.0186,1.0429,1.0368,1.024,0.0,0.0,0.0,0.0,0.0,0.0,0.0,0.0,0.0,0.0,0.0,0.0,0.0,0.0,0.0,0.0,0.0,0.0,0.8201,0.7768,0.7503,0.7503,0.7275,0.7143,0.7098,0.7285,0.7405,0.7405,0.7502,0.7577,0.7577,0.7577,0.7577,0.7577,0.7577,0.7577,0.7577,0.7577,0.7584,0.7637,0.8106,0.839,0.8642,0.9172,0.9332,0.9236,0.9484,0.9434,0.9236,0.9187,0.9385,0.9575,0.9575,0.9583,0.9533,0.9236,0.9187,0.9187,0.9195,0.9361,0.9587,0.9849,1.0038,1.0217,1.0396,1.0391,1.0493,1.0655,1.0688,1.0688,0.0,0.0,1.0688,1.0688,1.085,1.1028,1.098,1.1281,1.15,0.0,0.0,0.0,0.0,0.0,0.0,1.1776,0.0,1.1776,1.1776,1.1776,1.1776,1.1776,1.1776,1.1776,1.1776,1.1776,1.1776,1.1776,1.1776,1.1776,1.1776,1.1776,1.1776,1.1776,1.1458,1.1337,1.1269,1.0974,1.0846,1.0846,1.0846,1.0846,1.0906,1.0906,1.0967,1.1027,0.0,0.0,0.0,0.0,0.0,0.0,0.0,0.0,0.0,0.0,0.0,0.0,0.0,0.0,0.0,0.0,0.0,0.0,0.7981,0.7856,0.7724,0.7503,0.7635,0.7496,0.7098,0.7361,0.7382,0.7152,0.7193,0.7213,0.7213,0.7213,0.7213,0.7213,0.7213,0.7213,0.7213,0.7213,0.7326,0.7487,0.7923,0.816,0.8367,0.9022,0.9247,0.9187,0.9286,0.9385,0.9476,0.9286,0.913,0.9023,0.9023,0.913,0.9236,0.8981,0.9031,0.921,0.9384,0.9447,0.9619,1.0003,1.0225,1.0379,1.0375,1.0534,1.0639,1.068,1.0688,1.0688,0.0,0.0,0.0,1.0688,1.085,0.0,1.1143,1.1354,0.0,1.1687,0.0,1.1776,1.1776,1.1776,0.0,0.0,1.1776,1.1776,1.1776,1.1776,1.1776,1.1776,1.1776,1.1776,1.1776,1.1776,1.1776,1.1776,1.1776,1.1776,1.1776,1.1776,1.1776,1.1776,1.1716,1.1647,1.1647,1.1587,1.1405,1.1156,1.1156,1.1623,1.2217,1.2526,1.3057,1.3715,0.0,0.0,0.0,0.0,0.0,0.0,0.0,0.0,0.0,0.0,0.0,0.0,0.0,0.0,0.0,0.0,0.0,0.0,0.0,0.7944,0.7768,0.7503,0.7547,0.7408,0.7098,0.7231,0.7231,0.7098,0.7098,0.7098,0.7098,0.7098,0.7098,0.7098,0.7098,0.7098,0.7098,0.721,0.7333,0.0,0.0,0.8172,0.8363,0.8951,0.9187,0.9236,0.9335,0.9327,0.9229,0.908,0.8924,0.8825,0.8825,0.8924,0.8981,0.8676,0.8785,0.9017,0.9107,0.9337,0.9623,1.0039,1.0305,1.055,1.055,1.0623,1.0688,1.0688,1.0688,1.0688,1.0688,1.0688,0.0,0.0,0.0,0.0,1.1321,1.15,1.1663,0.0,1.1776,0.0,1.1776,1.1776,1.1776,0.0,1.1776,1.1776,1.1776,1.1776,1.1776,1.1776,1.1776,1.1776,1.1776,1.1776,1.1776,1.1776,1.1776,1.1776,1.1776,1.1776,1.1776,1.1776,0.0,1.1776,1.1776,1.1776,1.201,1.2354,1.2354,1.3006,1.4013,1.4192,1.467,1.535,0.0,0.0,0.0,0.0,0.0,0.0,0.0,0.0,0.0,0.0,0.7503,0.7591,0.0,0.0,0.0,0.0,0.0,0.0,0.0,0.0,0.7724,0.7503,0.7319,0.7187,0.7098,0.7143,0.7143,0.7098,0.7098,0.7098,0.7098,0.7098,0.7098,0.7098,0.7098,0.7105,0.7132,0.7312,0.7468,0.7638,0.8062,0.83,0.8428,0.0,0.9187,0.9236,0.9525,0.9278,0.8825,0.8825,0.8775,0.8676,0.8676,0.8726,0.8726,0.8478,0.8549,0.8729,0.875,0.9175,0.9624,0.9969,1.0357,1.0641,1.0688,1.0688,1.0688,1.0688,1.0688,1.0688,1.0688,1.0712,1.0785,1.094,0.0,1.1313,1.1476,1.1663,1.1776,1.1776,1.1776,1.1776,1.1776,1.1776,1.1776,1.1776,1.1776,1.1776,1.1776,1.1776,1.1776,1.1776,1.1776,1.1776,1.1776,1.1776,1.1776,1.1776,1.1776,1.1776,1.1776,1.1776,1.1776,1.1776,0.0,0.0,1.1837,1.1957,1.2724,1.3725,1.3904,1.4738,1.5865,1.5865,1.6138,1.665,0.0,0.0,0.0,0.0,0.0,0.0,0.0,0.0,0.0,0.0,0.7635,0.751,0.0,0.0,0.0,0.0,0.0,0.0,0.0,0.0,0.0,0.7503,0.768,0.754,0.7098,0.7326,0.7326,0.7098,0.7098,0.7098,0.7098,0.7098,0.7098,0.7098,0.7098,0.721,0.7333,0.7405,0.7529,0.7773,0.8097,0.83,0.8428,0.8726,0.0,0.0,0.9525,0.9377,0.908,0.8874,0.8528,0.8137,0.8137,0.8287,0.8478,0.8435,0.8549,0.8757,0.9094,0.921,0.9438,1.0069,1.0288,1.0421,1.0633,1.0688,0.0,0.0,1.0688,1.0688,1.0688,1.0818,1.0988,1.0964,1.124,1.1459,1.1492,1.1663,1.1776,0.0,1.1776,1.1776,1.1776,0.0,0.0,0.0,0.0,1.1776,1.1776,1.1776,1.1776,1.1776,1.1776,1.1776,1.1776,1.1776,1.1776,1.1776,1.1776,1.1776,1.1776,1.1776,1.1776,1.1776,1.1776,0.0,1.1897,1.2955,1.3485,1.3784,1.4857,1.6042,1.7161,1.7161,1.7991,1.9192,0.0,0.0,0.0,0.0,0.0,0.0,0.0,0.8113,0.8025,0.79,0.7768,0.7724,0.7724,0.7724,0.7768,0.0,0.0,0.0,0.0,0.0,0.0,0.0,0.7503,0.7363,0.7098,0.7231,0.7231,0.7098,0.0,0.7098,0.7098,0.7098,0.7098,0.7098,0.7224,0.7299,0.7426,0.7536,0.7685,0.7821,0.8,0.8125,0.8237,0.0,0.0,0.0,0.9525,0.9434,0.9137,0.8874,0.8528,0.8187,0.8038,0.8088,0.8201,0.8334,0.8466,0.8671,0.8931,0.9147,0.9392,0.9746,1.0091,1.0312,1.0476,0.0,0.0,1.0688,1.0688,1.072,1.0818,1.0907,0.0,1.1216,1.1386,1.1533,1.163,1.1719,0.0,1.1776,1.1776,1.1776,0.0,0.0,0.0,0.0,0.0,1.1776,1.1776,1.1776,1.1776,1.1776,1.1776,1.1776,1.1776,1.1776,1.1776,1.1776,1.1776,1.213,1.2784,1.207,1.213,1.2784,1.2784,0.0,1.2904,1.4143,1.5095,1.5736,1.6338,1.7337,1.8473,1.8473,1.9155,2.0027,0.0,0.0,0.0,0.0,0.0,0.0,0.8332,0.8288,0.8245,0.8076,0.8032,0.8032,0.8032,0.7944,0.7988,0.0,0.0,0.0,0.0,0.0,0.0,0.0,0.0,0.0,0.0,0.0,0.0,0.7275,0.7231,0.0,0.0,0.0,0.0,0.0,0.7364,0.7453,0.7482,0.7712,0.7828,0.0,0.0,0.7988,0.0,0.0,0.0,0.0,0.0,0.9335,0.9137,0.8874,0.8676,0.8435,0.8229,0.8085,0.8119,0.8378,0.847,0.8554,0.8729,0.9036,0.9327,0.9375,0.9816,1.0202,1.0257,1.0531,0.0,1.0688,1.0688,1.0753,1.0932,1.0997,1.1126,0.0,1.1533,1.1614,1.1752,1.1776,1.1776,0.0,1.1776,0.0,0.0,0.0,0.0,0.0,0.0,0.0,1.1776,1.1776,1.1776,1.1776,1.1776,1.1776,1.1776,1.1776,1.1776,1.1776,1.1776,1.2311,1.3255,1.2543,1.2724,1.3725,1.3963,0.0,0.0,1.551,1.6573,1.7513,1.7806,1.8532,1.943,1.943,1.9733,2.0167,0.0,0.0,0.0,0.0,0.0,0.0,0.8568,0.8568,0.8568,0.8524,0.8524,0.8524,0.8524,0.8164,0.79,0.0,0.0,0.0,0.0,0.0,0.0,0.0,0.0,0.0,0.0,0.0,0.0,0.7812,0.7591,0.0,0.0,0.0,0.0,0.0,0.0,0.0,0.7773,0.7801,0.0,0.0,0.0,0.0,0.0,0.0,0.0,0.0,0.0,0.9031,0.9137,0.8874,0.8775,0.8755,0.8657,0.8452,0.8333,0.8744,0.0,0.0,0.8972,0.8982,0.8995,0.9327,0.9651,0.9926,1.0257,0.0,1.0688,1.0688,1.0688,1.0753,1.0932,1.1094,1.1265,1.1468,1.1638,1.176,1.1776,1.1776,1.1776,1.1776,0.0,0.0,0.0,0.0,0.0,0.0,0.0,0.0,1.1776,1.1776,1.1776,1.1776,1.1776,1.1776,1.1776,1.1776,1.1776,1.1776,1.1776,1.1837,1.201,1.3075,1.3605,1.3784,1.4917,0.0,0.0,1.6809,1.7396,1.763,1.8765,1.9301,1.943,1.943,1.9733,2.0167,0.0,0.0,0.0,0.0,0.0,0.0,0.8612,0.8612,0.8612,0.8612,0.8612,0.8612,0.8612,0.8436,0.8296,0.8296,0.8296,0.0,0.0,0.0,0.0,0.0,0.0,0.0,0.0,0.0,0.7812,0.768,0.7724,0.0,0.0,0.0,0.0,0.0,0.0,0.0,0.8014,0.7958,0.0,0.0,0.0,0.0,0.0,0.0,0.0,0.0,0.0,0.0,0.9137,0.8874,0.8992,0.9155,0.8918,0.8832,0.8811,0.8767,0.8716,0.873,0.8934,0.8948,0.894,0.9051,0.943,0.9816,0.9981,0.0,1.0688,1.0688,1.0688,1.0777,1.107,1.1175,1.1321,1.1622,1.1727,0.0,1.1776,1.1776,1.1776,1.1776,0.0,0.0,0.0,0.0,0.0,0.0,0.0,0.0,1.1776,1.1776,1.1776,1.1776,1.1776,1.1776,1.1776,1.2543,1.2543,1.1837,1.2603,1.3375,1.4093,1.3844,1.455,1.6031,1.6514,0.0,0.0,1.811,1.8648,1.8706,1.9185,1.943,1.9444,1.9559,1.988,2.0254,0.0,0.0,0.0,0.0,0.0,0.8612,0.8612,0.8612,0.8612,0.8612,0.8612,0.8612,0.8612,0.8612,0.8612,0.8612,0.8612,0.0,0.0,0.0,0.0,0.0,0.0,0.0,0.0,0.0,0.7812,0.7635,0.7724,0.7613,0.0,0.0,0.0,0.0,0.0,0.0,0.0,0.0,0.0,0.0,0.0,0.0,0.0,0.0,0.0,0.0,0.0,0.0,0.0,0.0,0.0,0.9473,0.9175,0.9161,0.9147,0.8872,0.8777,0.8804,0.8851,0.8885,0.8885,0.8885,0.9375,0.9816,0.0,0.0,1.0688,1.0688,1.0688,1.0802,1.1159,1.1224,1.1346,1.1719,1.1776,1.1776,1.1776,1.1776,1.1776,0.0,0.0,0.0,0.0,0.0,0.0,0.0,0.0,0.0,0.0,1.1776,1.1776,1.1776,1.1776,1.1957,1.2371,1.3255,1.3435,1.2904,1.3854,1.456,1.5035,1.45,1.5025,1.6385,0.0,0.0,0.0,1.8286,1.859,1.8357,1.9127,1.9238,1.9037,1.9601,2.004,2.0401,0.0,0.0,0.0,0.0,0.0,0.8612,0.8612,0.8612,0.8612,0.8612,0.8612,0.8612,0.8612,0.8612,0.8612,0.8612,0.8612,0.0,0.0,0.0,0.0,0.0,0.0,0.0,0.0,0.0,0.79,0.79,0.7635,0.7581,0.7678,0.7685,0.7755,0.7807,0.0,0.0,0.0,0.0,0.0,0.0,0.0,0.0,0.7988,0.0,0.0,0.0,0.0,0.0,0.0,0.0,0.0,0.0,0.0,0.9348,0.9169,0.8948,0.8885,0.8885,0.8885,0.8885,0.8885,0.8885,0.9375,0.9816,0.0,1.0257,1.0688,1.0688,1.0688,1.0802,1.1159,1.1224,1.1346,1.1719,1.1776,1.1776,1.1776,1.1776,0.0,0.0,0.0,0.0,0.0,0.0,0.0,0.0,0.0,0.0,0.0,1.1776,1.1776,1.1776,1.1776,1.2432,1.3665,1.3665,1.4321,1.5569,1.5569,1.4917,1.3784,1.5035,1.4917,0.0,0.0,0.0,0.0,1.6985,1.6809,1.5865,1.8415,1.8816,1.808,1.9311,2.0174,2.0668,0.0,0.0,0.0,0.0,0.0,0.0,0.8612,0.8612,0.8612,0.8612,0.8612,0.8612,0.8612,0.8612,0.8612,0.8612,0.8612,0.0,0.0,0.0,0.0,0.0,0.0,0.0,0.0,0.7988,0.7812,0.7635,0.7724,0.767,0.751,0.793,0.8001,0.7814,0.8168,0.8287,0.0,0.0,0.0,0.0,0.0,0.7988,0.7988,0.0,0.0,0.0,0.0,0.0,0.0,0.0,0.0,0.0,0.0,0.0,0.0,0.9306,0.9272,0.9272,0.9272,0.9375,0.9485,0.9272,0.9706,1.0147,1.0147,1.0421,1.0688,1.0688,1.0794,1.0948,1.1183,1.133,1.1492,1.1736,1.1776,0.0,0.0,0.0,0.0,0.0,0.0,0.0,0.0,0.0,0.0,0.0,0.0,0.0,0.0,1.3913,1.3973,1.3135,1.3075,1.3734,1.4976,1.4976,1.4738,1.4321,1.4321,1.4083,1.3725,1.4143,0.0,0.0,0.0,0.0,0.0,1.8648,1.8532,1.8298,1.9068,1.9298,1.9265,1.9833,2.0347,2.0708,0.0,0.0,0.0,0.0,0.0,0.0,0.8612,0.8612,0.8612,0.8612,0.8612,0.8612,0.8612,0.8612,0.8612,0.8612,0.8612,0.0,0.0,0.0,0.0,0.0,0.0,0.0,0.7937,0.7716,0.7496,0.737,0.7604,0.7629,0.7508,0.7933,0.8041,0.7902,0.8139,0.8237,0.0,0.0,0.0,0.0,0.7988,0.7988,0.7988,0.0,0.0,0.0,0.0,0.0,0.0,0.0,0.0,0.0,0.0,0.0,0.0,0.0,0.9541,0.9541,0.943,0.9541,0.9596,0.943,0.9871,1.0312,1.0312,1.0531,1.0688,1.0688,1.0842,1.1021,1.1191,1.137,1.1565,1.1744,1.1776,0.0,0.0,0.0,0.0,0.0,0.0,0.0,0.0,0.0,0.0,0.0,0.0,0.0,0.0,1.5154,1.5451,1.5144,1.4679,1.5035,1.6279,1.6338,1.5924,1.5144,1.5144,1.4609,1.3725,1.3725,0.0,0.0,0.0,0.0,0.0,1.8473,1.8415,1.8064,1.901,1.924,1.9146,1.982,2.0334,2.0695,0.0,0.0,0.0,0.0,0.0,0.0,0.0,0.8612,0.8612,0.8612,0.8612,0.8612,0.8612,0.8612,0.8612,0.8612,0.8612,0.0,0.0,0.0,0.0,0.0,0.0,0.0,0.7503,0.7231,0.7098,0.7112,0.7299,0.7455,0.7617,0.7746,0.7896,0.7988,0.7988,0.7988,0.7988,0.8038,0.8038,0.7988,0.8038,0.8038,0.0,0.0,0.0,0.0,0.0,0.0,0.0,0.0,0.0,0.0,0.0,0.0,0.0,0.0,0.0,0.0,0.0,0.9493,0.9493,0.9493,0.9871,1.0312,1.0312,1.0531,0.0,1.0688,1.0962,1.1207,1.1306,1.1495,1.1692,1.1924,0.0,0.0,0.0,0.0,0.0,0.0,0.0,0.0,0.0,0.0,0.0,0.0,0.0,0.0,0.0,1.5806,1.6397,1.7572,1.6514,1.6455,1.763,1.7455,1.7337,1.7337,1.7279,1.5972,1.3725,1.3784,0.0,0.0,0.0,0.0,0.0,1.7161,1.6926,1.6101,1.8473,1.8816,1.8212,1.9371,2.0174,2.0681,0.0,0.0,0.0,0.0,0.0,0.0,0.0,0.0,0.0,0.0,0.8612,0.8612,0.8612,0.8612,0.8612,0.0,0.0,0.0,0.0,0.0,0.0,0.0,0.0,0.0,0.7503,0.7231,0.7152,0.7319,0.7398,0.7502,0.776,0.7794,0.7896,0.7988,0.7988,0.7988,0.7988,0.8237,0.8187,0.8038,0.8237,0.8187,0.0,0.0,0.0,0.0,0.8316,0.844,0.0,0.0,0.0,0.0,0.0,0.0,0.0,0.0,1.0202,0.9265,0.9926,0.0,1.0091,1.0091,1.0366,1.0641,0.0,1.0633,1.0688,1.0688,1.1724,1.2596,1.2632,1.2934,1.32,1.3246,0.0,0.0,0.0,0.0,0.0,0.0,0.0,0.0,0.0,0.0,0.0,0.0,0.0,0.0,0.0,1.7994,1.8648,1.8952,1.8648,1.8648,1.8952,1.6997,1.6042,1.6042,1.5035,1.4262,1.3725,1.4738,0.0,0.0,0.0,0.0,1.8532,1.8836,1.8765,1.859,1.9185,1.9357,1.9371,1.9681,2.0174,2.0681,0.0,0.0,0.0,0.0,0.0,0.0,0.0,0.0,0.0,0.0,0.8612,0.8612,0.8612,0.8612,0.8612,0.0,0.0,0.0,0.0,0.0,0.0,0.0,0.0,0.7591,0.7326,0.7187,0.7217,0.7419,0.7441,0.759,0.7814,0.7882,0.7914,0.7988,0.7988,0.7988,0.7988,0.8137,0.8137,0.7988,0.8137,0.0,0.0,0.0,0.0,0.0,0.8515,0.8825,0.0,0.9298,1.0272,1.1428,0.0,0.0,0.0,0.0,1.0523,0.9596,1.0899,1.1063,1.0743,1.0366,1.0907,1.1337,1.0798,1.0688,1.0688,1.0688,1.1975,1.2927,1.2364,1.303,0.0,0.0,1.3315,0.0,0.0,0.0,0.0,0.0,0.0,0.0,0.0,0.0,0.0,0.0,0.0,0.0,0.0,1.901,1.943,1.943,1.943,1.943,1.943,1.8006,1.7044,1.6455,1.5795,1.5144,1.4619,1.5273,1.6279,0.0,0.0,0.0,1.943,1.943,1.943,1.943,1.943,1.9466,1.9599,1.9599,1.988,2.0294,0.0,0.0,0.0,0.0,0.0,0.0,0.0,0.0,0.0,0.0,0.0,0.0,0.0,0.0,0.0,0.0,0.0,0.0,0.0,0.0,0.0,0.0,0.7635,0.737,0.7098,0.7119,0.7251,0.7453,0.7556,0.7706,0.7848,0.7928,0.7988,0.7988,0.7988,0.7988,0.7988,0.8038,0.8038,0.7988,0.8038,0.0,0.0,0.0,0.0,0.0,0.0,0.0,0.0,0.9921,1.0625,1.1755,1.1701,0.0,0.0,0.0,0.0,0.0,1.2146,1.22,1.1601,1.0798,1.1391,1.1873,1.0907,1.0852,1.097,1.105,1.2441,1.3279,1.2055,1.2999,0.0,0.0,0.0,0.0,0.0,0.0,0.0,0.0,0.0,0.0,0.0,0.0,0.0,0.0,0.0,0.0,0.0,1.943,1.943,1.943,1.943,1.943,1.943,1.9185,1.859,1.7513,1.7513,1.6926,1.5924,1.6101,1.675,0.0,0.0,0.0,1.943,1.943,1.943,1.943,1.943,1.943,1.943,1.943,1.9546,1.9853,0.0,0.0,0.0,0.0,0.0,0.0,0.0,0.0,0.0,0.0,0.0,0.0,0.0,0.0,0.0,0.0,0.0,0.0,0.0,0.0,0.0,0.7547,0.7503,0.737,0.7098,0.7272,0.7414,0.7563,0.7706,0.7855,0.7955,0.7982,0.7988,0.7988,0.7988,0.7988,0.8038,0.8237,0.8187,0.8038,0.8237,0.0,0.0,0.0,0.0,0.0,0.0,0.0,0.0,1.0996,1.2028,1.3156,1.4083,0.0,0.0,0.0,0.0,0.0,1.3014,1.3285,1.2852,1.2254,1.15,1.0907,1.0743,1.1446,1.2192,1.2478,1.4497,1.5886,1.4887,1.5024,1.5213,0.0,0.0,0.0,0.0,0.0,0.0,0.0,0.0,0.0,0.0,0.0,0.0,0.0,0.0,0.0,0.0,1.943,1.943,1.943,1.943,1.943,1.943,1.8344,1.7689,1.7513,1.7513,1.7396,1.722,1.8357,1.8894,0.0,0.0,1.9243,1.943,1.943,1.943,1.943,1.943,1.943,1.943,1.943,1.9546,1.988,0.0,0.0,0.0,0.0,0.0,0.0,0.0,0.0,0.0,0.0,0.0,0.0,0.0,0.0,0.0,0.0,0.0,0.0,0.0,0.0,0.7415,0.7724,0.7537,0.7406,0.7265,0.7333,0.7482,0.7712,0.778,0.7889,0.7988,0.7988,0.7988,0.7988,0.7988,0.7988,0.7988,0.8137,0.8137,0.7995,0.0,0.0,0.0,0.0,0.0,0.0,0.0,0.0,0.0,0.0,1.2733,1.4298,1.4846,0.0,0.0,0.0,0.0,0.0,1.4256,1.3609,1.2689,1.3221,1.2472,1.1446,1.0852,1.1555,1.2474,1.2848,1.4965,1.6473,1.5448,0.0,1.6632,1.6632,0.0,0.0,0.0,0.0,0.0,0.0,0.0,0.0,0.0,0.0,0.0,0.0,0.0,0.0,0.0,0.0,1.943,1.943,1.943,1.943,1.943,1.8823,1.8532,1.8532,1.8532,1.8532,1.8532,1.9127,1.943,1.943,0.0,1.943,1.943,1.943,1.943,1.943,1.943,1.943,1.943,1.943,1.9546,1.9867,0.0,0.0,0.0,0.0,0.0,0.0,0.0,0.0,0.0,0.0,0.0,0.0,0.0,0.0,0.0,0.0,0.0,0.0,0.0,0.7576,0.7419,0.7775,0.7573,0.7453,0.7419,0.7487,0.7584,0.7814,0.7848,0.7874,0.7988,0.7988,0.7988,0.7988,0.7988,0.7988,0.7988,0.7988,0.8008,0.8106,0.0,0.0,0.0,0.0,0.0,0.0,0.0,0.0,0.0,0.0,0.0,0.0,0.0,0.0,0.0,1.5083,1.4589,1.4352,1.55,1.4363,1.3058,1.4245,1.3437,1.2146,1.1282,1.2237,1.3416,1.3704,1.5613,1.6952,0.0,1.6728,0.0,0.0,0.0,0.0,0.0,0.0,0.0,0.0,0.0,0.0,0.0,0.0,0.0,0.0,0.0,0.0,0.0,0.0,1.9466,1.9466,1.9466,1.9439,1.943,1.943,1.943,1.943,1.943,1.943,1.943,1.943,1.943,1.943,1.943,1.943,1.943,1.943,1.943,1.943,1.943,1.943,1.943,1.943,1.9506,1.9746,0.0,0.0,0.0,0.0,0.0,0.0,0.0,0.0,0.0,0.0,0.0,0.0,0.0,0.0,0.0,0.0,0.0,0.0,0.0,0.7766,0.758,0.7444,0.7549,0.7516,0.7419,0.7638,0.7787,0.7814,0.7907,0.7982,0.7988,0.7988,0.7988,0.7988,0.7988,0.7988,0.7988,0.7988,0.8126,0.8357,0.947,0.0,0.0,0.0,0.0,0.0,0.0,0.0,0.0,0.0,0.0,0.0,0.0,0.0,1.55,1.6004,1.5725,1.5553,1.6749,1.6152,1.5221,1.5648,1.4083,1.2363,1.2309,1.4201,1.6077,1.6363,1.7654,1.8459,1.7499,1.7443,0.0,0.0,0.0,0.0,0.0,0.0,0.0,0.0,0.0,0.0,0.0,0.0,0.0,0.0,0.0,0.0,0.0,0.0,0.0,1.9773,1.9773,1.9639,1.943,1.943,1.943,1.943,1.943,1.943,1.943,1.943,1.943,1.943,1.943,1.943,1.943,1.943,1.943,1.943,1.943,1.943,1.943,1.943,1.9386,1.9479,0.0,0.0,0.0,0.0,0.0,0.0,0.0,0.0,0.0,0.0,0.0,0.0,0.0,0.0,0.0,0.0,0.0,0.0,0.0,0.7702,0.7597,0.7688,0.7699,0.7706,0.7645,0.7753,0.7862,0.7901,0.7961,0.7988,0.7988,0.7988,0.7988,0.7988,0.7988,0.7988,0.8045,0.8879,0.9314,0.9493,1.0837,1.1385,0.0,0.0,0.0,0.0,0.0,0.0,0.0,0.0,1.5488,1.6086,1.6418,1.6258,1.6045,1.6418,1.6524,1.663,1.7067,1.5927,1.4781,1.5701,1.484,1.372,1.3521,1.4918,1.6167,1.5647,1.734,1.884,1.8713,0.0,0.0,0.0,0.0,0.0,0.0,0.0,0.0,0.0,0.0,0.0,0.0,0.0,0.0,0.0,0.0,0.0,0.0,0.0,0.0,2.0067,1.9893,1.9746,1.9639,1.9452,1.943,1.943,1.943,1.943,1.943,1.943,1.943,1.943,1.943,1.943,1.943,1.943,1.943,1.943,1.943,1.943,1.943,1.943,1.943,1.9511,0.0,0.0,0.0,0.0,0.0,0.0,0.0,0.0,0.0,0.0,0.0,0.0,0.0,0.0,0.0,0.0,0.0,0.0,0.8123,0.7859,0.7697,0.7848,0.7856,0.7882,0.7882,0.7882,0.7887,0.7988,0.7988,0.7988,0.7988,0.7988,0.7988,0.8038,0.8336,0.8556,0.8707,0.9575,1.0043,1.0269,1.1256,1.1921,0.0,0.0,0.0,0.0,0.0,0.0,0.0,0.0,1.6033,1.6683,1.6683,1.663,1.6643,1.6789,1.6842,1.6842,1.7226,1.6094,1.5056,1.625,1.6187,1.5783,1.5553,1.632,1.6962,1.6292,1.7704,1.9132,1.939,0.0,0.0,0.0,0.0,0.0,0.0,0.0,0.0,0.0,0.0,0.0,0.0,0.0,0.0,0.0,0.0,0.0,0.0,0.0,0.0,0.0,2.0094,1.9893,1.98,1.9506,1.943,1.943,1.943,1.943,1.943,1.943,1.943,1.943,1.943,1.943,1.943,1.943,1.943,1.943,1.943,1.943,1.943,1.943,1.943,1.9511,0.0,0.0,0.0,0.0,0.0,0.0,0.0,0.0,0.8612,0.8612,0.8612,0.0,0.0,0.0,0.0,0.0,0.0,0.0,0.8279,0.8211,0.8063,0.7814,0.7907,0.7988,0.7988,0.7988,0.7988,0.7988,0.7988,0.7988,0.7988,0.7988,0.7988,0.8038,0.9122,0.9755,0.9969,0.9884,1.0095,1.0527,1.0527,1.1478,1.294,0.0,0.0,0.0,0.0,0.0,0.0,0.0,1.6683,1.6683,1.6683,1.6948,1.7173,1.7173,1.6577,1.618,1.7318,1.6981,1.6574,1.7739,1.825,1.849,1.849,1.8718,1.8918,1.8931,1.9158,1.9372,1.943,1.943,0.0,0.0,0.0,0.0,0.0,0.0,0.0,0.0,0.0,0.0,0.0,0.0,0.0,0.0,0.0,0.0,0.0,0.0,0.0,0.0,2.0388,2.0094,1.9813,1.9519,1.943,1.943,1.943,1.943,1.943,1.943,1.943,1.943,1.943,1.943,1.943,1.943,1.943,1.943,1.943,1.943,1.943,1.943,1.943,1.9511,0.0,0.0,0.0,0.0,0.0,0.0,0.0,0.0,0.8612,0.8612,0.8674,0.0,0.0,0.0,0.0,0.0,0.0,0.0,0.8225,0.8035,0.791,0.7921,0.7968,0.7988,0.7988,0.7988,0.7988,0.7988,0.7988,0.7988,0.7988,0.7988,0.8379,0.9171,0.9638,0.9869,0.9943,1.1018,1.1677,1.2062,1.3016,1.3751,1.446,0.0,0.0,0.0,0.0,0.0,0.0,0.0,0.0,0.0,1.6789,1.6789,1.6895,1.712,1.7014,1.6947,1.7689,1.6993,1.639,1.7963,1.7802,1.7583,1.8576,1.8865,1.8985,1.9199,1.8642,1.8344,1.9243,1.943,0.0,0.0,0.0,0.0,0.0,0.0,0.0,0.0,0.0,0.0,0.0,0.0,0.0,0.0,0.0,0.0,0.0,0.0,0.0,0.0,2.0494,2.0127,2.0107,1.9613,1.943,1.943,1.943,1.943,1.943,1.943,1.943,1.943,1.943,1.943,1.943,1.943,1.943,1.943,1.943,1.943,1.943,1.943,1.943,1.9511,0.0,0.0,0.0,0.0,0.0,0.0,0.0,0.0,0.8666,0.8666,0.8729,0.8696,0.0,0.0,0.0,0.0,0.0,0.0,0.8237,0.8049,0.7894,0.7988,0.7988,0.7988,0.7988,0.7988,0.7988,0.7988,0.7988,0.7988,0.7988,0.8428,0.8812,0.913,1.0129,1.0357,1.0163,1.1528,1.2259,1.2612,1.3385,1.4148,1.49,0.0,0.0,0.0,0.0,0.0,0.0,0.0,0.0,0.0,1.7107,1.7054,1.7107,1.7331,1.7054,1.6827,1.7649,1.7083,1.6599,1.8121,1.8147,1.8071,1.888,1.9105,1.9145,1.939,1.8765,1.8473,1.9243,1.943,0.0,0.0,0.0,0.0,0.0,0.0,0.0,0.0,0.0,0.0,0.0,0.0,0.0,0.0,0.0,0.0,0.0,0.0,0.0,0.0,2.0535,2.0167,2.0167,1.9653,1.943,1.943,1.943,1.943,1.943,1.943,1.943,1.943,1.943,1.943,1.943,1.943,1.943,1.943,1.943,1.943,1.943,1.943,1.9497,1.9599,0.0,0.0,0.8612,0.8629,0.0,0.0,0.0,0.0,0.8799,0.8799,0.8721,0.8683,0.0,0.0,0.0,0.0,0.0,0.0,0.0,0.8137,0.7988,0.7988,0.7988,0.7988,0.7988,0.7988,0.7988,0.7988,0.7988,0.8038,0.8187,0.9088,0.918,0.8678,1.0619,1.1138,1.0687,1.1762,1.2354,1.258,1.258,1.3491,1.4846,1.4793,0.0,0.0,0.0,0.0,0.0,0.0,0.0,0.0,1.7477,1.7582,1.7582,1.7609,1.6868,1.6336,1.7423,1.7316,1.7198,1.8335,1.8971,1.943,1.943,1.943,1.943,1.943,0.0,1.943,1.943,0.0,0.0,0.0,0.0,0.0,0.0,0.0,0.0,0.0,0.0,0.0,0.0,0.0,0.0,0.0,0.0,0.0,0.0,0.0,0.0,2.1109,2.0535,2.0167,2.0167,1.9653,1.943,0.0,1.943,1.943,1.943,1.943,1.943,1.943,1.943,1.943,1.943,1.943,1.943,1.943,1.943,1.943,1.943,1.943,1.9546,1.984,0.0,0.0,0.8653,0.8739,0.0,0.0,0.0,0.0,0.0,0.8699,0.8666,0.0,0.0,0.0,0.0,0.0,0.0,0.0,0.0,0.8038,0.7988,0.7988,0.7988,0.7988,0.7988,0.7988,0.7988,0.7988,0.7988,0.8428,0.927,0.8808,0.9345,1.0744,1.1615,1.1915,1.1753,1.3143,1.389,1.4148,1.4148,1.5114,1.663,1.6352,1.663,0.0,0.0,0.0,0.0,0.0,0.0,0.0,1.7331,1.7424,1.7569,1.7595,1.7566,1.7711,1.8448,1.839,1.8318,1.9008,1.9279,1.943,1.943,1.943,1.943,1.943,1.943,1.943,0.0,0.0,0.0,0.0,0.0,0.0,0.0,0.0,0.0,0.0,0.0,0.0,0.0,0.0,0.0,0.0,0.0,0.0,0.0,0.0,0.0,2.1109,2.0535,2.0167,2.0167,1.9653,1.943,0.0,1.943,1.943,1.943,1.943,1.943,1.943,1.943,1.943,1.943,1.943,1.943,1.943,1.943,1.943,1.943,1.943,1.9546,1.984,0.0,0.0,0.0,0.0,0.0,0.0,0.0,0.0,0.0,0.0,0.0,0.0,0.0,0.0,0.0,0.0,0.7988,0.0,0.0,0.7988,0.7988,0.7988,0.7988,0.7988,0.7988,0.7988,0.7988,0.7988,0.8113,0.8449,0.8994,0.8983,0.9717,1.1027,1.1748,1.2162,1.2266,1.3621,1.4266,1.4482,1.5125,1.5939,1.6749,1.6736,1.6736,1.6802,1.712,0.0,0.0,0.0,0.0,0.0,0.0,0.0,1.7782,1.778,1.798,1.833,1.8637,1.8704,1.8811,1.9252,1.943,1.943,1.943,1.943,1.943,1.943,1.943,0.0,0.0,0.0,0.0,0.0,0.0,0.0,0.0,0.0,0.0,0.0,0.0,0.0,0.0,0.0,0.0,0.0,0.0,0.0,0.0,2.1109,2.1109,2.1109,2.0535,2.0167,2.0167,1.9653,1.943,1.943,1.943,1.943,1.943,1.943,1.943,1.943,1.943,1.943,1.943,1.943,1.943,1.943,1.943,1.9452,1.9573,1.9573,1.9853,2.0241,0.0,0.0,0.0,0.0,0.0,0.0,0.0,0.0,0.0,0.0,0.0,0.0,0.0,0.0,0.7988,0.0,0.0,0.0,0.0,0.0,0.0,0.7988,0.7988,0.7988,0.7988,0.8015,0.8029,0.8029,0.8235,0.8374,0.8402,0.9212,1.0032,1.0794,1.1674,1.231,1.2797,1.3997,1.4546,1.4654,1.5791,1.6271,1.6377,1.663,1.6577,1.6537,1.7067,1.7107,1.6948,1.7424,0.0,0.0,0.0,0.0,1.8009,1.8115,1.837,1.8584,1.8624,1.8811,1.9065,1.9305,1.943,0.0,1.943,1.943,1.943,1.943,0.0,0.0,0.0,0.0,0.0,0.0,0.0,0.0,0.0,0.0,0.0,0.0,0.0,0.0,0.0,0.0,0.0,0.0,0.0,0.0,2.1096,2.1109,2.1109,2.1109,2.0535,2.0167,2.0167,1.9653,1.943,1.943,1.943,1.943,1.943,1.943,1.943,1.943,1.943,1.943,1.943,1.943,1.9457,1.9439,1.9439,1.9626,1.988,1.988,2.0214,2.0681,0.0,0.0,0.0,0.0,0.0,0.0,0.0,0.0,0.0,0.0,0.8223,0.8038,0.0,0.0,0.0,0.7988,0.7988,0.7988,0.7988,0.0,0.0,0.7988,0.7988,0.7988,0.7988,0.8174,0.8241,0.8241,0.8384,0.852,0.8655,0.8809,0.9892,1.1797,1.2187,1.294,1.4051,1.519,1.5832,1.6004,1.5939,1.6205,1.663,1.6683,1.6842,1.712,1.7424,1.7529,1.7477,1.7582,1.7582,0.0,0.0,0.0,1.8089,1.8651,1.8838,1.8918,1.9185,1.9336,1.9319,0.0,1.943,1.943,0.0,0.0,1.943,0.0,0.0,0.0,0.0,0.0,0.0,0.0,0.0,0.0,0.0,0.0,0.0,0.0,0.0,0.0,0.0,0.0,0.0,0.0,0.0,0.0,2.1096,2.1109,2.1109,2.1109,2.0535,2.0167,2.0167,1.9653,1.943,1.943,1.943,1.943,1.943,1.943,1.943,1.943,1.943,1.943,1.943,1.943,1.9519,1.9746,1.9746,1.992,2.0174,2.0174,2.0388,2.0681,0.0,0.0,0.0,0.0,0.0,0.0,0.0,0.0,0.0,0.0,0.0,0.7988,0.0,0.0,0.0,0.816,0.8167,0.8201,0.8282,0.8289,0.8289,0.8289,0.8289,0.8289,0.8289,0.8357,0.8391,0.8391,0.854,0.8962,0.9731,0.9761,1.0666,1.2285,1.3028,1.4051,1.519,1.5672,1.5939,1.6057,1.6111,1.6365,1.6736,1.6895,1.7067,1.7226,1.7477,1.7477,1.7411,1.7729,1.7836,1.7889,1.8196,0.0,0.0,0.0,1.9038,1.9199,1.939,1.943,1.943,0.0,1.943,1.943,1.943,0.0,0.0,0.0,0.0,0.0,0.0,0.0,0.0,0.0,0.0,0.0,0.0,0.0,0.0,0.0,0.0,0.0,0.0,0.0,0.0,0.0,0.0,2.0561,2.0855,2.1029,2.1109,2.1109,2.0535,2.0167,2.0167,1.9653,1.943,1.943,1.943,1.9452,1.9613,1.9613,1.9519,1.943,1.943,1.9466,1.9613,1.9613,1.9786,2.004,2.004,2.0227,2.0481,2.0481,2.0668,2.0922,0.0,0.0,0.0,0.0,0.0,0.0,0.0,0.0,0.0,0.0,0.0,0.0,0.0,0.0,0.0,0.0,0.8374,0.837,0.8472,0.8479,0.8479,0.8479,0.8479,0.8479,0.8479,0.852,0.854,0.854,0.9012,0.9676,1.0592,1.1268,1.2037,1.2906,1.3781,1.4654,1.5512,1.5779,1.5939,1.6004,1.6217,1.6471,1.6736,1.7067,1.7173,1.7226,1.7477,1.753,1.7476,1.7862,1.8049,1.8155,1.8504,1.8744,0.0,0.0,0.0,1.943,1.943,0.0,1.943,1.943,1.943,1.943,0.0,0.0,0.0,0.0,0.0,0.0,0.0,0.0,0.0,0.0,0.0,0.0,0.0,0.0,0.0,0.0,0.0,0.0,0.0,0.0,0.0,0.0,0.0,2.0361,2.0655,2.0949,2.1109,2.1109,2.0535,2.0167,2.0167,1.9653,1.943,1.943,1.9439,1.9586,1.98,1.988,1.9786,1.9586,1.9586,1.9706,1.9907,1.9907,2.008,2.0347,2.0347,2.0521,2.0788,2.0788,2.0922,2.1109,0.0,0.0,0.0,0.0,0.0,0.0,0.0,0.0,0.0,0.0,0.0,0.8309,0.8445,0.8459,0.8465,0.8472,0.8472,0.8472,0.8479,0.8479,0.8479,0.8479,0.8479,0.0,0.8479,0.8621,0.8696,0.8696,0.9977,1.0601,1.071,1.296,1.4062,1.4116,1.4169,1.4223,1.4385,1.5458,1.6057,1.6271,1.6271,1.6471,1.6736,1.7067,1.7173,1.7226,1.7477,1.7769,1.7969,1.7982,1.8237,1.8517,1.8811,1.8918,1.8985,0.0,0.0,0.0,1.943,1.943,0.0,1.943,1.943,0.0,0.0,0.0,0.0,0.0,0.0,0.0,0.0,0.0,0.0,0.0,0.0,0.0,0.0,0.0,0.0,0.0,0.0,0.0,0.0,0.0,0.0,0.0,0.0,2.0361,2.0655,2.0949,2.1109,2.1109,2.0535,2.0167,2.0167,1.9653,1.943,1.943,1.9639,1.9786,1.9813,2.008,2.0201,2.0187,2.0187,2.0201,2.0153,2.0153,2.0388,2.0655,2.0655,2.0828,2.1082,2.1082,2.1096,2.1109,0.0,0.0,0.0,0.0,0.0,0.0,0.0,0.0,0.0,0.0,0.0,0.0,0.0,0.8479,0.852,0.8621,0.8716,0.8777,0.8777,0.8777,0.8777,0.8777,0.8777,0.8777,0.8777,0.8825,0.9235,0.9984,1.0475,1.1492,1.296,1.3781,1.4223,1.4223,1.4976,1.5298,1.5298,1.5725,1.6057,1.6324,1.6324,1.659,1.7014,1.7173,1.7331,1.749,1.7582,1.7782,1.8022,1.8263,1.8531,1.8824,1.9118,1.9212,1.9225,1.9332,1.943,1.943,0.0,0.0,0.0,1.943,1.943,1.943,0.0,0.0,0.0,0.0,0.0,0.0,0.0,0.0,0.0,0.0,0.0,0.0,0.0,0.0,0.0,0.0,0.0,0.0,0.0,0.0,0.0,0.0,0.0,0.0,2.0388,2.0842,2.1109,2.1109,2.0535,2.0054,1.9679,1.9466,1.9466,1.9639,1.9746,2.0,2.0361,2.0468,2.0615,2.0802,2.0802,2.0695,2.0521,2.0521,2.0695,2.0949,2.0949,2.1015,2.1109,2.1109,2.1109,2.1109,0.0,0.0,0.0,0.0,0.0,0.8653,0.8498,0.8574,0.8657,0.8712,0.0,0.0,0.0,0.0,0.8676,0.8777,0.8824,0.8885,0.8885,0.8885,0.8885,0.8885,0.9265,0.9478,0.9478,0.9811,1.0405,1.1273,1.1584,1.2558,1.4223,1.46,1.4761,1.4815,1.5137,1.5083,1.4804,1.5565,1.5832,1.5779,1.6258,1.6747,1.7209,1.737,1.7595,1.7769,1.7889,1.8076,1.8315,1.8571,1.8838,1.9105,1.9305,1.943,1.943,1.943,1.943,1.943,1.943,1.943,0.0,0.0,1.943,1.943,0.0,0.0,0.0,0.0,0.0,0.0,0.0,0.0,0.0,0.0,0.0,0.0,0.0,0.0,0.0,0.0,0.0,0.0,0.0,0.0,0.0,0.0,0.0,0.0,2.0167,2.0788,2.1015,2.0815,2.0441,1.996,1.943,1.9466,1.9613,1.98,2.0,2.0294,2.0681,2.0775,2.0922,2.1109,2.1109,2.1002,2.0815,2.0815,2.0935,2.1109,2.1109,2.1109,2.1109,2.1109,2.1109,2.1109,0.0,0.0,0.9079,0.8922,0.9175,0.9287,0.8958,0.8905,0.8969,0.918,0.0,0.0,0.0,0.0,0.0,0.8885,0.8885,0.8885,0.8885,0.8885,0.8885,0.8885,1.0021,1.0672,1.0672,1.1469,1.2058,1.2363,1.3275,1.3933,1.4223,1.5351,1.5885,1.5832,1.4761,1.3565,1.2635,1.4911,1.5393,1.4793,1.6152,1.6861,1.7181,1.7779,1.8005,1.8076,1.8366,1.8677,0.0,1.8918,0.0,0.0,0.0,1.943,1.943,1.943,1.943,1.943,0.0,0.0,0.0,0.0,0.0,0.0,1.943,0.0,0.0,0.0,0.0,0.0,0.0,0.0,0.0,0.0,0.0,0.0,0.0,0.0,0.0,0.0,0.0,0.0,0.0,0.0,0.0,0.0,0.0,2.0167,2.0167,2.0788,2.0842,2.0193,2.0167,1.996,1.943,1.9653,1.98,1.9813,2.0401,2.0681,2.0695,2.0975,2.1109,2.1109,2.1109,2.1109,2.1109,2.1109,2.1109,2.1109,2.1109,2.1109,2.1109,2.1109,2.1109,2.1109,0.0,0.9621,0.9376,0.9526,0.9527,0.9503,0.9442,0.9331,0.9261,0.0,0.0,0.0,0.8878,0.8885,0.8885,0.8885,0.8885,0.8885,0.8885,0.8885,0.8885,0.8885,0.921,0.9375,0.9375,0.9654,1.0194,1.1164,1.2243,1.3278,1.4223,1.5351,1.5885,1.5885,1.5565,1.4911,1.404,1.4685,1.5286,1.591,1.6696,1.7201,1.752,1.788,1.8134,0.0,0.0,1.8677,1.8918,0.0,1.9118,1.943,0.0,1.943,1.943,1.943,1.943,1.943,1.943,0.0,0.0,0.0,0.0,0.0,1.943,1.943,0.0,0.0,0.0,0.0,0.0,0.0,0.0,0.0,0.0,0.0,0.0,0.0,0.0,0.0,0.0,0.0,0.0,0.0,0.0,0.0,1.9907,2.0167,2.0167,2.0788,2.0842,2.0193,2.0167,1.996,1.943,1.9653,1.9907,2.012,2.0494,2.0788,2.0989,2.1069,2.1109,2.1109,2.1109,2.1109,2.1109,2.1109,2.1109,2.1109,2.1109,2.1109,2.1109,2.1109,2.1109,2.1109,1.0257,1.0018,0.9875,0.9998,0.9931,0.983,0.9721,0.9537,0.9382,0.0,0.0,0.0,0.8885,0.8885,0.8885,0.8885,0.8885,0.8885,0.8885,0.8885,0.8885,0.8885,0.9375,0.9644,0.9644,1.0498,1.1359,1.2146,1.3194,1.4115,1.4922,1.5083,1.519,1.519,1.4643,1.4428,1.4428,1.4689,1.5221,1.6012,1.6821,1.7418,1.7815,1.8194,1.8506,0.0,0.0,0.0,1.9105,1.9105,1.9225,0.0,0.0,0.0,1.943,0.0,1.943,1.943,1.943,1.943,1.943,1.943,0.0,0.0,1.943,1.943,1.943,0.0,0.0,0.0,0.0,0.0,0.0,0.0,0.0,0.0,0.0,0.0,0.0,0.0,0.0,0.0,0.0,0.0,0.0,1.943,1.9786,2.016,2.0401,2.0855,2.0842,2.0193,2.0167,1.996,1.943,1.9773,2.0067,2.0241,2.0655,2.0949,2.1109,2.1109,2.1109,2.1109,2.1109,2.1109,2.1109,2.1109,2.1109,2.1109,2.1109,2.1109,2.1109,2.1109,2.1109,2.1109,0.0,1.0407,1.0347,1.028,1.0257,1.0147,0.9871,0.9596,0.9382,0.0,0.9106,0.8885,0.8885,0.8885,0.8885,0.8885,0.8885,0.8885,0.8885,0.8885,0.8885,0.8885,0.9911,1.0507,1.0507,1.2442,1.3518,1.3619,1.4643,1.5235,1.5286,1.4428,1.4062,1.4169,1.3122,1.3285,1.445,1.5008,1.5395,1.5759,1.685,1.7606,1.8122,0.0,1.8902,1.8997,1.9301,1.943,1.943,1.943,1.943,0.0,0.0,0.0,0.0,0.0,1.943,1.943,1.943,1.943,1.943,1.943,1.943,0.0,1.943,1.943,1.943,0.0,0.0,0.0,0.0,0.0,0.0,0.0,0.0,0.0,0.0,0.0,0.0,0.0,0.0,0.0,0.0,1.943,1.943,1.943,1.9666,2.0094,2.0641,2.0949,2.0842,2.0193,2.0167,1.9973,1.9426,1.996,2.0254,2.0294,2.0842,2.1109,2.1109,2.1109,2.1109,2.1109,2.1109,2.1109,2.1109,2.1109,2.1109,2.1109,2.1109,2.1109,2.1109,2.1109,2.1109,2.1109,1.0366,1.0319,1.0218,0.9919,0.9871,0.9871,0.9816,0.9596,0.9382,0.9382,0.9106,0.8885,0.8885,0.8885,0.8885,0.8885,0.8885,0.8885,0.8885,0.8885,0.8885,0.8885,0.9099,0.9265,0.9265,1.0585,1.0858,0.9919,1.2,1.2532,1.1701,1.2417,1.3295,1.4223,1.4202,1.4804,1.591,1.6542,1.6954,1.7191,1.7641,1.8076,1.842,1.8769,1.9074,1.9301,1.9359,1.943,1.943,1.943,1.943,1.943,0.0,0.0,0.0,1.943,0.0,0.0,0.0,0.0,0.0,0.0,0.0,0.0,1.943,1.943,1.943,0.0,0.0,0.0,0.0,0.0,0.0,0.0,0.0,0.0,0.0,0.0,0.0,0.0,0.0,0.0,0.0,1.943,1.943,1.943,1.9853,2.0307,2.0655,2.0949,2.0842,2.0193,2.0167,2.0067,1.972,2.0054,2.0361,2.0601,2.0949,2.1109,2.1109,2.1109,2.1109,2.1109,2.1109,2.1109,2.1109,2.1109,2.1109,2.1109,2.1109,2.1109,2.1109,2.1109,2.1109,2.1109,1.0312,1.0147,1.0036,1.0036,0.9816,0.9651,0.9761,0.943,0.9217,0.9375,0.9106,0.8885,0.8885,0.8885,0.8885,0.8885,0.8885,0.8885,0.8885,0.8885,0.8885,0.8885,0.8885,0.8885,0.8885,1.0076,1.0398,0.9809,1.1546,1.2091,1.1546,1.1546,1.1928,1.2689,1.3231,1.3996,1.4898,1.6533,1.7426,1.7817,1.8115,0.0,1.8743,1.9003,1.9243,1.943,1.943,1.943,1.943,1.943,1.943,0.0,0.0,1.943,1.943,0.0,1.943,1.943,0.0,0.0,0.0,1.943,0.0,0.0,0.0,1.943,1.943,0.0,0.0,0.0,0.0,0.0,0.0,0.0,0.0,0.0,0.0,0.0,0.0,0.0,0.0,0.0,0.0,1.943,1.943,1.943,1.9907,2.0294,2.0441,2.0869,2.0909,2.0468,2.0307,2.016,2.0013,2.016,2.0374,2.0681,2.0975,2.1109,2.1109,2.1109,2.1109,2.1109,2.1109,2.1109,2.1109,2.1109,2.1109,2.1109,2.1109,2.1109,2.1109,2.1109,2.1109,2.1109,1.0147,1.0036,0.9926,1.0036,0.9651,0.9437,0.9596,0.921,0.8995,0.9272,0.9051,0.8885,0.8885,0.8905,0.8981,0.8981,0.9008,0.9022,0.9022,0.9022,0.9008,0.8981,0.8981,0.8967,0.8885,1.0076,1.0562,1.0351,1.1492,1.1928,1.171,1.1055,1.1,1.1383,1.2564,1.3282,1.3805,1.6386,1.7623,1.778,0.0,1.8787,1.9055,1.9301,1.943,1.943,1.943,1.943,1.943,1.943,1.943,1.943,1.943,1.943,0.0,0.0,0.0,0.0,0.0,0.0,0.0,0.0,0.0,1.943,0.0,0.0,0.0,0.0,0.0,0.0,0.0,0.0,0.0,0.0,0.0,0.0,0.0,0.0,0.0,0.0,0.0,0.0,0.0,1.943,1.943,1.943,1.9853,2.0174,2.0227,2.0735,2.0922,2.0681,2.0388,2.0254,2.0321,2.0207,2.0414,2.0762,2.1002,2.1109,2.1109,2.1109,2.1109,2.1109,2.1109,2.1109,2.1109,2.1109,2.1109,2.1109,2.1109,2.1109,2.1122,2.1176,2.1189,2.1203,0.9761,1.0091,0.9981,0.9217,0.9272,0.9327,0.9051,0.894,0.894,0.894,0.894,0.8885,0.8885,0.9055,0.9187,0.9187,0.9252,0.9334,0.9334,0.9334,0.9273,0.9193,0.9187,0.9069,0.8885,1.0076,1.0186,0.9099,1.0296,1.0351,0.932,1.0507,1.1492,1.2363,1.4516,1.5185,1.4878,1.7547,1.797,0.0,1.8622,1.9332,0.0,1.9372,1.943,1.943,1.943,1.943,1.943,0.0,1.943,1.943,0.0,1.943,1.943,1.943,0.0,0.0,0.0,0.0,0.0,0.0,1.943,0.0,0.0,0.0,0.0,0.0,0.0,0.0,0.0,0.0,0.0,0.0,0.0,0.0,0.0,0.0,0.0,0.0,0.0,0.0,0.0,0.0,1.943,1.943,1.9666,1.996,2.0214,2.0548,2.0708,2.0681,2.0388,2.0361,2.0628,2.0361,2.0508,2.1056,2.1096,2.1109,2.1109,2.1109,2.1109,2.1109,2.1109,2.1109,2.1109,2.1109,2.1109,2.1109,2.1109,2.1109,2.1149,2.1403,2.1561,2.1601,0.9541,0.9541,0.943,0.921,0.9161,0.9106,0.9161,0.9217,0.9189,0.9105,0.9062,0.9096,0.9184,0.9252,0.9401,0.9573,0.9629,0.9671,0.0,0.0,0.9585,0.9344,0.9255,0.9462,1.0062,0.9798,1.0076,1.0954,1.0781,1.0781,1.0954,1.1546,1.1764,1.1764,1.4265,1.5011,1.4617,0.0,1.8383,0.0,0.0,0.0,0.0,1.943,1.943,1.943,1.943,1.943,1.943,0.0,1.943,0.0,0.0,0.0,0.0,0.0,0.0,0.0,0.0,0.0,0.0,0.0,0.0,0.0,1.943,0.0,1.943,0.0,0.0,0.0,0.0,0.0,0.0,0.0,0.0,0.0,0.0,0.0,0.0,0.0,0.0,0.0,0.0,0.0,0.0,0.0,0.0,1.992,2.0214,2.0508,2.0748,2.0922,2.0481,2.0454,2.0922,2.0468,2.0521,2.1109,2.1109,2.1109,2.1109,2.1109,2.1109,2.1109,2.1109,2.1109,2.1109,2.1109,2.1109,2.1109,2.1109,2.1109,2.1149,2.1507,2.1614,2.1655,0.9272,0.9217,0.9154,0.9272,0.9161,0.912,0.9321,0.9328,0.9328,0.9255,0.9275,0.9316,0.9367,0.9538,0.9676,0.9909,1.0062,1.0149,0.0,0.0,1.0062,1.0251,0.9622,0.0,1.1134,0.9734,0.982,1.1515,1.0641,1.0625,1.1437,1.1928,1.1764,1.1227,1.4174,1.5021,1.436,0.0,1.8628,1.8577,1.9185,1.943,1.943,1.943,1.943,1.943,1.943,1.943,1.943,1.943,1.943,0.0,1.943,0.0,0.0,0.0,0.0,0.0,1.943,0.0,0.0,0.0,0.0,0.0,0.0,0.0,0.0,0.0,0.0,0.0,0.0,0.0,0.0,0.0,0.0,0.0,0.0,0.0,0.0,0.0,0.0,0.0,0.0,0.0,0.0,0.0,0.0,0.0,2.0153,2.0441,2.0722,2.1096,2.0615,2.0601,2.1109,2.0601,2.0615,2.1109,2.1109,2.1109,2.1109,2.1109,2.1109,2.1109,2.1109,2.1109,2.1109,2.1109,2.1109,2.1122,2.1203,2.1229,2.1269,2.1563,2.1789,2.183,0.894,0.9375,0.9596,0.8995,0.9154,0.9321,0.9236,0.92,0.9255,0.9354,0.9374,0.9374,0.0,0.0,0.0,0.0,0.0,1.077,1.077,0.0,1.0936,0.0,0.0,1.0281,0.0,1.0065,0.92,0.9313,0.9064,0.8995,0.9044,1.0726,1.1374,1.1282,1.5022,1.5873,1.4597,1.793,1.8635,1.763,1.8881,1.943,1.943,0.0,1.943,1.943,1.943,0.0,0.0,1.943,1.943,0.0,0.0,0.0,0.0,0.0,0.0,0.0,0.0,0.0,0.0,1.943,0.0,0.0,0.0,0.0,1.943,0.0,0.0,0.0,0.0,0.0,0.0,1.8985,0.0,0.0,0.0,0.0,0.0,0.0,0.0,0.0,0.0,0.0,0.0,0.0,0.0,0.0,2.014,2.0241,2.0508,2.1096,2.0815,2.0802,2.1109,2.0815,2.0815,2.1109,2.1109,2.1109,2.1109,2.1109,2.1109,2.1109,2.1109,2.1109,2.1109,2.1109,2.1109,2.1136,2.1494,2.1601,2.1641,2.1857,2.2151,2.2432,0.9062,0.9251,0.9273,0.8954,0.9126,0.9299,0.9337,0.9306,0.0,0.0,0.9648,0.0,0.0,0.9961,1.035,0.0,0.0,1.2053,1.2946,1.2113,0.0,0.0,0.0,1.0583,0.0,0.0,1.0045,1.1444,1.0771,1.0849,1.1555,1.2309,1.2766,1.2911,1.5389,1.6247,0.0,0.0,0.0,0.0,0.0,1.943,1.943,0.0,0.0,1.943,1.943,1.943,0.0,1.943,1.943,1.943,1.943,1.943,1.943,1.943,1.943,0.0,0.0,0.0,1.943,1.943,0.0,0.0,0.0,0.0,0.0,0.0,0.0,0.0,0.0,0.0,1.9332,1.9239,1.9305,0.0,0.0,0.0,0.0,0.0,0.0,0.0,0.0,0.0,0.0,0.0,0.0,0.0,0.0,2.0134,2.0414,2.0815,2.0722,2.0815,2.1109,2.0815,2.0815,2.1109,2.1109,2.1109,2.1109,2.1109,2.1109,2.1109,2.1109,2.1109,2.1109,2.1109,2.1109,2.1136,2.1443,2.1735,2.1871,2.2164,2.2338,2.2458,0.9275,0.9289,0.9205,0.911,0.9171,0.9344,0.0,0.0,0.0,0.0,0.9806,0.0,1.0112,0.0,1.0429,0.0,1.1631,1.2053,1.2886,1.2475,0.0,1.4143,1.2286,0.0,0.0,0.0,0.0,0.0,1.1354,1.1206,1.1979,1.2755,1.3155,1.347,1.5614,1.6729,1.6999,1.8706,1.943,0.0,0.0,1.943,0.0,0.0,1.943,1.943,0.0,1.943,1.943,1.943,1.943,1.943,1.943,1.943,1.943,1.943,1.943,1.943,1.943,1.943,0.0,1.943,1.943,0.0,1.943,0.0,0.0,0.0,0.0,0.0,0.0,0.0,0.0,1.943,1.943,1.9417,0.0,2.004,0.0,0.0,0.0,0.0,0.0,0.0,0.0,0.0,0.0,0.0,0.0,0.0,2.0374,2.0668,2.0775,2.0922,2.1109,2.0922,2.0922,2.1109,2.1109,2.1109,2.1109,2.1109,2.1109,2.1109,2.1109,2.1109,2.1109,2.1109,2.1176,2.1296,2.159,2.1884,2.2164,2.2352,2.2485,2.2605,0.9395,0.9401,0.9401,0.0,0.9395,0.0,0.0,0.0,0.9666,0.0,0.9822,0.9822,0.9822,1.0126,1.0301,1.0429,1.0732,1.0906,1.0967,1.1752,0.0,0.0,1.4421,1.4955,1.6903,0.0,0.0,0.0,0.0,1.025,1.0532,1.2078,1.2822,1.3069,1.592,0.0,1.7391,1.8777,1.943,1.943,1.943,1.943,1.943,1.943,1.943,1.943,1.943,1.943,1.943,1.943,1.943,1.943,1.943,1.943,1.943,1.943,1.943,1.943,1.943,1.943,1.943,1.943,0.0,0.0,0.0,0.0,1.943,0.0,0.0,0.0,0.0,0.0,0.0,1.943,1.9417,1.9533,0.0,0.0,0.0,0.0,0.0,0.0,0.0,0.0,0.0,0.0,0.0,0.0,0.0,0.0,2.0361,2.0641,2.0949,2.1109,2.1109,2.1109,2.1109,2.1109,2.1109,2.1109,2.1109,2.1109,2.1109,2.1109,2.1109,2.1109,2.1109,2.1122,2.1296,2.1641,2.1884,2.2191,2.2445,2.2445,2.2619,2.2928,0.953,0.9639,0.9707,0.0,0.9618,0.9598,0.0,0.0,0.0,0.0,0.9943,1.0004,1.0482,1.0429,1.0785,1.1993,1.2174,0.0,0.0,0.0,0.0,1.6031,1.4183,1.4183,1.6562,1.4834,0.0,1.3558,0.0,1.3135,1.3146,1.3781,1.4785,1.6103,1.686,1.7823,1.8848,1.9216,1.943,1.943,1.943,1.943,0.0,0.0,1.943,1.943,1.943,1.943,1.943,1.943,1.943,1.943,1.943,1.943,1.943,1.943,1.943,1.943,1.943,1.943,1.943,1.943,1.943,1.943,0.0,0.0,0.0,0.0,0.0,0.0,0.0,0.0,0.0,0.0,0.0,0.0,0.0,0.0,0.0,2.1031,0.0,0.0,0.0,0.0,0.0,0.0,0.0,0.0,0.0,0.0,0.0,2.0347,2.0842,2.1109,2.1109,2.1109,2.1109,2.1109,2.1109,2.1109,2.1109,2.1109,2.1109,2.1109,2.1109,2.1109,2.1122,2.1349,2.1547,2.1668,2.2111,2.2485,2.2752,2.2752,2.2792,2.2928,0.9686,0.0,0.0,0.9822,0.0,0.0,0.999,0.9883,0.0,1.0247,1.0126,0.0,1.1322,1.0906,1.1329,1.3366,1.2535,0.0,1.45,0.0,0.0,1.6621,1.5902,1.6149,1.776,1.6385,0.0,1.546,0.0,0.0,1.4766,1.5517,1.6402,1.7353,1.7885,1.8622,1.943,1.943,1.943,1.943,1.943,0.0,0.0,1.943,1.943,1.943,1.943,1.943,1.943,1.943,1.943,1.943,1.943,1.943,1.943,1.943,1.943,1.943,1.943,1.943,1.943,1.943,1.943,1.943,1.943,1.943,1.943,0.0,0.0,0.0,0.0,0.0,0.0,0.0,0.0,0.0,0.0,0.0,0.0,0.0,0.0,0.0,0.0,0.0,0.0,0.0,0.0,0.0,0.0,0.0,0.0,2.0167,2.0802,2.1109,2.1109,2.1109,2.1109,2.1109,2.1109,2.1109,2.1109,2.1109,2.1109,2.1122,2.1243,2.1296,2.1323,2.1617,2.1817,2.1977,2.2432,2.2712,2.2928,2.2928,2.2928,2.2928,0.0,0.0,0.0,0.0,0.0,0.0,0.0,1.0247,0.0,1.0543,0.0,1.114,1.2457,1.1864,1.2286,1.455,0.0,1.2346,1.4609,1.4728,1.5429,1.7032,1.8098,1.8939,1.9372,1.804,0.0,0.0,0.0,1.5747,1.6042,1.7161,1.7689,1.7806,0.0,0.0,0.0,1.943,1.943,1.943,1.943,1.943,1.943,1.943,1.943,1.943,1.943,1.943,1.943,1.943,1.943,1.943,1.943,1.943,1.943,1.943,1.943,1.943,1.943,1.943,1.943,1.943,1.943,1.943,1.943,1.943,1.943,1.943,1.943,1.943,0.0,0.0,0.0,0.0,0.0,0.0,0.0,0.0,0.0,0.0,0.0,0.0,0.0,0.0,0.0,0.0,0.0,0.0,0.0,0.0,0.0,2.0227,2.0802,0.0,2.1109,0.0,2.1109,2.1109,2.1109,2.1109,2.1109,2.1109,2.1136,2.1189,2.1443,2.1641,2.1695,2.1924,2.2218,2.2498,2.2766,2.2928,2.2928,2.2928,2.2928,2.2928,0.0,0.0,0.0,0.0,0.0,1.1976,1.2217,1.1322,1.1027,1.2157,1.2277,1.2877,1.4431,1.4431,1.4609,1.5332,1.5035,0.0,0.0,0.0,0.0,1.7337,1.763,1.8286,1.9372,1.9127,1.8881,0.0,0.0,1.8286,1.8344,1.8519,1.8823,1.9068,0.0,0.0,1.943,1.943,0.0,1.943,1.943,1.943,1.943,1.943,1.943,1.943,1.943,1.943,1.943,1.943,1.943,1.943,1.943,1.943,1.943,1.943,1.943,1.943,1.943,1.943,1.943,1.943,1.943,1.943,1.943,1.943,1.943,1.943,1.943,1.943,1.943,0.0,0.0,0.0,0.0,0.0,0.0,0.0,0.0,0.0,0.0,0.0,0.0,0.0,0.0,0.0,0.0,0.0,0.0,0.0,0.0,0.0,2.0802,0.0,0.0,0.0,2.1109,2.1109,2.1109,2.1109,2.1109,2.1109,2.1243,2.1547,2.1601,2.1762,2.1937,2.2218,2.2512,2.2792,2.2914,2.2928,2.2928,2.2928,2.2928,2.2928,0.0,0.0,0.0,0.0,0.0,0.0,0.0,1.2757,0.0,1.3775,1.3237,1.3237,1.4669,1.3655,1.3715,1.5865,1.4857,1.4917,1.6938,1.6585,1.6868,1.8169,1.8402,0.0,1.9372,1.943,1.9301,1.9185,0.0,0.0,1.8169,1.8823,1.8881,1.846,0.0,1.943,0.0,0.0,0.0,1.943,1.943,1.943,1.943,1.943,1.943,1.943,1.943,1.943,1.943,1.943,1.943,1.943,1.943,1.943,1.943,1.943,1.943,1.943,1.943,1.943,1.943,1.943,1.943,1.943,1.943,1.943,1.943,1.943,1.943,1.943,1.943,1.9649,0.0,0.0,0.0,0.0,0.0,0.0,0.0,0.0,0.0,0.0,0.0,0.0,0.0,0.0,0.0,0.0,0.0,0.0,0.0,0.0,0.0,0.0,0.0,0.0,0.0,2.1109,2.1109,2.1109,2.1109,2.1109,2.1269,2.1628,2.1775,2.1937,2.2231,2.2525,2.2726,2.2928,2.2928,2.2928,2.2928,2.2928,2.2928,2.2928,0.0,1.024,0.0,0.0,1.3048,0.0,1.4361,1.4133,1.4133,1.4906,1.3655,1.3177,1.448,1.2817,1.2937,1.6208,1.4728,1.5025,1.8298,1.7877,1.7935,1.8939,1.9243,1.943,1.943,1.943,1.943,0.0,0.0,0.0,0.0,1.8939,0.0,0.0,0.0,0.0,0.0,0.0,1.943,1.943,1.943,1.943,1.943,1.943,1.943,1.943,1.943,1.943,1.943,1.943,1.943,1.943,1.943,1.943,1.943,1.943,1.943,1.943,1.943,1.943,1.943,1.943,1.943,1.943,1.943,1.943,1.943,1.943,1.943,1.943,1.943,1.9707,0.0,0.0,0.0,0.0,0.0,0.0,0.0,0.0,0.0,0.0,0.0,0.0,0.0,0.0,0.0,1.9965,1.9627,2.0484,0.0,0.0,0.0,2.1109,2.1109,0.0,2.1109,0.0,2.1109,2.1109,2.1109,2.1176,2.1363,2.1722,2.1951,2.2245,2.2525,2.2766,2.2928,2.2928,2.2928,2.2928,2.2928,2.2928,2.2928,2.2928,0.0,0.0,0.0,0.0,0.0,0.0,1.4302,1.5311,1.5795,1.4777,1.3536,1.3177,1.448,1.4361,1.4837,1.6385,1.6562,1.7267,1.8765,1.9068,1.9243,1.9359,1.9359,1.943,1.943,1.943,1.943,0.0,0.0,0.0,0.0,0.0,0.0,0.0,0.0,0.0,0.0,1.943,1.943,1.943,1.943,1.943,1.943,1.943,1.943,1.943,1.943,1.943,1.943,1.943,1.943,1.943,1.943,1.943,1.943,1.943,1.943,1.943,1.943,1.943,1.943,1.943,1.943,1.943,1.943,1.943,1.943,1.943,1.943,1.943,1.943,1.988,2.027,0.0,0.0,0.0,0.0,0.0,0.0,0.0,0.0,0.0,0.0,0.0,0.0,0.0,0.0,1.9712,2.0219,2.0294,2.0422,2.0628,0.0,2.1109,2.1109,2.1109,2.1109,2.1109,2.1109,2.1109,2.1122,2.139,2.167,2.1964,2.2258,2.2539,2.2887,2.2914,2.2928,2.2928,2.2928,2.2928,2.2928,2.2928,2.2928,2.2928,0.0,0.0,0.0,0.0,0.0,0.0,0.0,1.4004,1.3646,1.2937,1.2577,1.2577,1.3108,1.2457,1.2517,1.3844,1.4896,1.6079,1.7396,1.846,1.9113,1.9113,1.9301,1.943,1.943,1.943,1.943,0.0,0.0,0.0,0.0,0.0,0.0,0.0,0.0,1.943,1.943,1.943,1.943,1.943,1.943,1.943,1.943,1.943,1.943,1.943,1.943,1.943,1.943,1.943,1.943,1.943,1.943,1.943,1.943,1.943,1.943,1.943,1.943,1.943,1.943,1.943,1.943,1.943,1.943,1.943,1.943,1.943,1.943,1.943,1.943,1.988,2.027,0.0,0.0,0.0,0.0,0.0,0.0,0.0,0.0,0.0,0.0,0.0,0.0,0.0,0.0,0.0,2.0023,2.0487,0.0,2.073,0.0,2.1109,2.1109,2.1109,2.1109,2.1109,2.1109,2.1203,2.1376,2.1561,2.1804,2.2258,2.2552,2.2752,2.2928,2.2928,2.2928,2.2928,2.2928,2.2928,2.2928,2.2928,2.2928,2.2928,1.0717,0.0,1.1434,0.0,1.3048,1.3407,1.4004,1.3646,1.3108,1.2466,1.2697,1.2749,1.2277,1.1796,1.2105,1.3366,1.4609,1.5843,1.7103,1.8344,1.9055,1.9055,1.9243,0.0,1.943,1.943,1.943,1.943,1.943,0.0,0.0,0.0,0.0,0.0,1.943,1.943,1.943,1.943,1.943,1.943,1.943,1.943,1.943,1.943,1.943,1.943,1.943,1.943,1.943,1.943,1.943,1.943,1.943,1.943,1.943,1.943,1.943,1.943,1.943,1.943,1.943,1.943,1.943,1.943,1.943,1.943,1.943,1.943,1.9475,1.9533,1.9533,1.9982,2.0443,2.0443,0.0,0.0,0.0,0.0,0.0,0.0,2.1089,2.1089,2.1203,0.0,0.0,0.0,0.0,0.0,0.0,0.0,0.0,0.0,0.0,0.0,0.0,2.1109,2.1109,2.1109,2.1109,2.1269,2.1628,2.1724,2.2084,2.2565,2.2766,2.2928,2.2928,2.2928,2.2928,2.2928,2.2928,2.2928,2.2928,2.2928,2.2928,2.2928,1.2697,1.3407,1.4183,1.448,1.5144,1.5213,1.4262,1.5144,1.5488,1.4242,1.4361,1.3944,1.2397,1.3586,1.5084,1.6326,1.6797,1.7501,1.8823,1.9185,1.9372,0.0,0.0,1.943,1.943,1.943,1.943,1.943,0.0,0.0,1.9372,0.0,1.943,1.943,1.943,1.943,1.943,1.943,1.943,1.943,1.943,1.943,1.943,1.943,1.943,1.943,1.943,1.943,1.943,1.943,1.943,1.943,1.943,1.943,1.943,1.943,1.943,1.943,1.943,1.943,1.943,1.943,1.943,1.943,1.943,1.943,1.943,1.943,1.9591,1.9809,1.9809,2.027,2.0716,2.0716,0.0,0.0,0.0,0.0,0.0,0.0,2.0902,2.0845,2.1146,0.0,0.0,0.0,0.0,0.0,0.0,0.0,0.0,2.1096,2.1109,0.0,2.1109,2.1109,2.1109,2.1109,2.1109,2.1269,2.1641,2.2151,2.2579,2.2859,2.2928,2.2928,2.2928,2.2928,2.2928,2.2928,2.2928,2.2928,2.2928,2.2928,2.2928,2.2928,1.4063,1.4242,1.448,1.4599,1.4787,1.4787,1.449,1.4777,1.4896,1.448,1.5488,1.602,1.5537,1.5133,1.5084,0.0,1.6621,1.7513,0.0,1.8881,1.943,1.943,1.943,1.943,1.943,1.943,1.943,1.943,0.0,0.0,0.0,1.943,1.943,1.943,1.943,1.943,1.943,1.943,1.943,1.943,1.943,1.943,1.943,1.943,1.943,1.943,1.943,1.943,1.943,1.943,1.943,1.943,1.943,1.943,1.943,1.943,1.943,1.943,1.943,1.943,1.943,1.943,1.943,1.943,1.943,1.943,1.943,1.943,1.9591,1.9809,1.9809,2.027,2.0716,2.0716,2.096,0.0,0.0,0.0,0.0,0.0,2.0902,2.0816,0.0,2.0826,0.0,0.0,0.0,0.0,0.0,0.0,0.0,0.0,2.1109,0.0,2.1109,2.1109,2.1109,2.1109,2.1309,2.167,2.2151,2.2539,2.2779,2.2928,2.2928,2.2928,2.2928,2.2928,2.2928,2.2928,2.2928,2.3065,2.3201,2.2996,2.3065,2.3201,1.4966,1.5192,1.5311,1.4718,1.4896,1.5144,1.5144,1.5569,1.5865,1.5865,1.6868,1.7513,1.7513,1.6926,0.0,1.6691,1.763,1.8227,1.8227,1.8952,1.943,1.943,1.943,1.943,1.943,0.0,0.0,1.943,1.943,1.943,1.943,1.943,1.943,1.943,1.943,1.943,1.943,1.943,1.943,1.943,1.943,1.943,1.943,1.943,1.943,1.943,1.943,1.943,1.943,1.943,1.943,1.943,1.943,1.943,1.943,1.943,1.943,1.943,1.943,1.943,1.943,1.943,1.943,1.9457,1.9506,1.9533,1.9559,1.9666,1.9915,2.0151,2.0151,2.0548,2.0899,2.0899,2.1088,2.1205,2.1205,0.0,0.0,0.0,0.0,0.0,0.0,2.0795,0.0,0.0,0.0,0.0,0.0,0.0,0.0,2.1109,2.1109,0.0,2.1109,2.1109,2.1162,2.1283,2.1683,2.2071,2.2432,2.2726,2.2928,2.2928,2.2928,2.2928,2.2928,2.2928,2.2928,2.2928,2.2928,2.2996,2.3201,2.2996,2.2996,2.3201,1.5672,1.6312,0.0,0.0,1.5661,0.0,1.6287,1.7303,1.8081,1.8081,1.8303,1.8478,1.8478,1.8712,1.9063,1.9367,0.0,0.0,0.0,1.9372,1.9359,1.943,1.943,1.943,1.943,1.943,1.943,1.943,1.943,1.943,1.943,1.943,1.943,1.943,1.943,1.943,1.943,1.943,1.943,1.943,1.943,1.943,1.943,1.943,1.943,1.943,1.943,1.943,1.943,1.943,1.943,1.943,1.943,1.943,1.943,1.943,1.943,1.943,1.943,1.943,1.943,1.943,1.9386,1.9466,1.976,1.9826,1.9907,2.0174,2.047,2.0711,2.0711,2.0953,2.1194,2.1194,2.1194,2.1194,2.1194,0.0,0.0,0.0,0.0,0.0,0.0,2.0618,2.051,0.0,0.0,0.0,0.0,0.0,2.1109,2.1109,2.1109,2.1109,2.1109,2.1136,2.1296,2.1681,2.2164,2.2432,2.2458,2.2739,2.2928,2.2928,2.2928,2.2928,2.2928,2.2928,2.2928,2.2928,2.2928,2.2928,2.2928,2.2928,2.2928,2.2928,0.0,0.0,1.8555,1.8179,1.83,1.8434,1.8434,1.8749,1.893,1.893,1.899,1.899,1.899,1.9111,1.9171,1.9232,1.9129,1.8997,1.8997,1.8997,1.9113,1.9372,1.943,1.943,1.943,1.943,1.943,1.943,1.943,1.943,1.943,1.943,1.943,1.943,1.943,1.943,1.943,1.943,1.943,1.943,1.943,1.943,1.943,1.943,1.943,1.943,1.943,1.943,1.943,1.943,1.943,1.943,1.943,1.943,1.943,1.943,1.943,1.943,1.943,1.943,1.943,1.943,1.9533,1.9773,2.0067,2.0134,2.0147,2.0214,2.047,2.0711,2.0711,2.0953,2.1194,2.1194,2.1194,2.1194,2.1194,2.1194,0.0,0.0,2.0893,2.0807,2.1087,2.0808,2.0757,0.0,0.0,0.0,0.0,2.1109,2.1109,2.1109,2.1109,2.1109,2.1109,2.1336,2.171,2.2218,2.2352,2.2539,2.2752,2.2832,2.2928,2.2928,2.2928,2.2928,2.2928,2.3201,2.3133,2.2928,2.3543,2.3543,2.327,2.327,2.327,2.327,1.9376,1.9315,1.9181,1.9242,1.9059,1.8949,1.8827,1.8766,1.8766,1.8766,1.8766,1.8766,1.8766,1.8888,1.8949,1.8827,1.8914,1.9094,1.9272,1.9272,1.9404,1.976,1.976,1.9693,1.9573,1.9559,1.9506,1.943,1.943,1.943,1.943,1.943,1.943,1.943,1.943,1.943,1.943,1.943,1.9439,1.9559,1.9426,1.9452,1.9546,1.947,1.943,1.943,1.943,1.943,1.943,1.943,1.943,1.943,1.943,1.943,1.9399,1.9533,1.9466,1.943,1.943,1.9466,1.9599,1.9733,1.988,2.008,2.0374,2.0441,2.0468,2.0601,2.0752,2.0875,2.0875,2.0999,2.1122,2.1122,2.1122,2.1183,2.1368,2.1368,0.0,2.1368,2.1245,2.1128,2.1105,2.0994,2.0935,2.1096,0.0,0.0,2.1109,2.1109,2.1109,2.1109,2.1109,2.1176,2.1309,2.1737,2.2111,2.2418,2.2552,2.2712,2.2928,2.2928,2.2928,2.2928,2.2928,2.2928,2.2928,2.3133,2.3133,2.3133,2.3406,2.3475,2.3406,2.3406,2.3406,2.3406,1.9701,1.9504,1.9307,1.932,1.9074,1.8766,1.847,1.8408,1.8408,1.8408,1.8408,1.8408,1.847,1.8705,1.8766,1.8593,1.9013,1.9405,1.9633,1.9694,1.9876,2.018,2.0167,2.012,1.9867,1.9867,1.9746,1.9492,1.9492,1.9492,1.9492,1.9492,1.9492,1.9492,1.9492,1.9492,1.9492,1.9492,1.9639,1.984,1.9599,1.9639,1.984,1.9586,1.9492,1.9492,1.9492,1.9492,1.9492,1.9492,1.9492,1.9492,1.9492,1.9492,1.9546,1.9786,1.9693,1.9492,1.9492,1.9679,1.9933,2.0227,2.0294,2.0374,2.0681,2.0735,2.0802,2.1002,2.1082,2.1096,2.1056,2.1082,2.1109,2.1109,2.1109,2.1235,2.1551,0.0,2.1614,2.1677,2.1614,2.1488,2.1172,2.1109,2.1109,2.1109,2.1109,2.1109,0.0,2.1109,2.1136,2.1176,2.1176,2.1336,2.1748,2.2178,2.2445,2.2485,2.2739,2.2928,2.2928,2.2928,2.2928,2.2928,2.2928,2.2928,2.2928,2.2928,2.3133,2.3338,2.3133,2.3201,2.3406,2.3475,2.3475,2.3543,2.0042,1.9979,1.984,1.9574,1.9511,1.932,1.9015,1.8951,1.8951,1.8951,1.8951,1.9079,1.9396,1.9447,1.9586,1.9789,1.9916,1.9776,1.9415,1.9633,1.9937,2.018,2.0167,2.0153,2.0174,2.016,2.0147,2.0094,2.0094,2.0094,2.0094,2.0094,2.0094,2.0094,2.0094,2.0094,2.0094,2.0094,2.012,2.016,2.012,2.012,2.016,2.012,2.0094,2.0094,2.0094,2.0094,2.0094,2.0094,2.0094,2.0094,2.0094,2.0094,2.0107,2.0147,2.0134,2.0094,2.0094,2.0134,2.0241,2.0535,2.0601,2.0681,2.0975,2.1042,2.0989,2.0788,2.0935,2.1029,2.0788,2.0949,2.1109,2.1109,2.1109,2.1235,2.1551,0.0,2.174,2.1978,2.179,2.1614,2.1551,2.1299,2.1109,2.1109,2.1109,2.1109,2.1109,2.1109,2.1229,2.1534,2.1547,2.1737,2.2271,2.2378,2.2539,2.2792,2.2914,2.2928,2.2928,2.2928,2.2928,2.2928,2.2928,2.2928,2.2928,2.3201,2.3201,2.2996,2.3611,2.3679,2.3406,2.3747,2.3884,2.3898,2.0361,2.0234,2.0106,2.0157,1.9966,1.9775,1.9392,1.9392,1.9392,1.9392,1.9392,1.952,1.9839,1.9839,1.9903,2.0106,2.0297,2.0245,2.0037,2.0149,2.0335,2.0646,2.0708,2.0628,2.0481,2.0307,2.0167,2.0167,2.0167,2.0167,2.0167,2.0167,2.0167,2.0167,2.0167,2.0167,2.0167,2.0167,2.0321,2.0454,2.0294,2.0334,2.0454,2.0294,2.0167,2.0167,2.0167,2.0167,2.0167,2.0167,2.0167,2.0167,2.0167,2.0167,2.0167,2.0167,2.012,2.004,2.0187,2.012,2.0067,2.0361,2.0441,2.0468,2.0601,2.0762,2.0842,2.0708,2.0909,2.1069,2.0935,2.1015,2.1172,2.1362,2.1235,0.0,0.0,2.1727,2.1677,2.1803,2.1664,2.1551,2.1362,2.1172,2.1109,2.1109,2.1109,2.1176,2.1336,2.1349,2.1483,2.1842,2.1937,2.2151,2.2418,2.2579,2.2726,2.2928,2.2928,2.2928,2.2928,2.2928,2.2928,2.2928,2.2928,2.2928,2.2928,2.3065,2.327,2.3475,2.3611,2.3816,2.402,2.4224,2.4292,2.4292,2.0666,2.0488,2.0425,2.0539,2.0361,2.0106,1.9775,1.9711,1.9711,1.9711,1.9711,1.9839,2.017,2.0234,2.0234,2.0361,2.0539,2.0729,2.0729,2.0729,2.0856,2.1109,2.1109,2.1002,2.0775,2.0548,2.0441,2.0441,2.0441,2.0441,2.0441,2.0441,2.0441,2.0441,2.0441,2.0441,2.0441,2.0441,2.0561,2.0762,2.0535,2.0575,2.0748,2.0521,2.0441,2.0428,2.0361,2.0334,2.0321,2.0254,2.0167,2.0167,2.0167,2.0167,2.0167,2.0167,2.0067,1.9947,2.0113,2.0067,1.9973,2.0267,2.0334,2.0347,2.0428,2.0615,2.0762,2.0695,2.0909,2.1082,2.1029,2.1069,2.1172,2.1425,0.0,0.0,0.0,2.174,2.1614,2.174,2.1677,2.1488,2.1235,2.1172,2.1136,2.1203,2.1216,2.1336,2.1708,2.1722,2.179,2.2071,2.2298,2.2458,2.2525,2.2752,2.2928,2.2928,2.2928,2.2928,2.2928,2.2928,2.2928,2.2928,2.2928,2.2928,2.2928,2.2928,2.327,2.3816,2.3543,2.3816,2.4495,2.4495,2.4563,2.4713,2.1046,2.1046,2.0919,2.0666,2.0615,2.0425,2.0106,2.0043,2.0043,2.0043,2.0043,2.017,2.0552,2.0539,2.0666,2.0982,2.1046,2.1046,2.1046,2.1046,2.1046,2.1109,2.1109,2.1096,2.1082,2.1056,2.1042,2.1042,2.1042,2.1042,2.1042,2.1042,2.1042,2.1042,2.1042,2.1042,2.1042,2.1042,2.1056,2.1082,2.1056,2.1056,2.1082,2.1056,2.1042,2.1015,2.0735,2.0641,2.0601,2.0321,2.0167,2.0167,2.0167,2.0167,2.0167,2.0167,2.0214,2.014,2.0167,2.0214,2.0267,2.0575,2.0641,2.0722,2.0989,2.1056,2.1002,2.0735,2.0909,2.1029,2.0762,2.0922,2.1109,2.1109,0.0,0.0,2.1614,2.1614,2.174,2.2041,2.179,2.1614,2.1551,2.1299,2.1229,2.1561,2.1588,2.1708,2.1937,2.1951,2.2084,2.2378,2.2405,2.2552,2.2887,2.2914,2.2928,2.2928,2.2928,2.2928,2.2928,2.2928,2.2928,2.2928,2.2928,2.2928,2.2928,2.2928,2.3133,2.3406,2.3406,2.3816,2.4495,2.4495,2.4713,2.5052,2.1109,2.1109,2.1046,2.0919,2.0919,2.0792,2.0488,2.0425,2.0425,2.0425,2.0425,2.0539,2.0856,2.0919,2.0982,2.1109,2.1109,2.1109,2.1109,2.1109,2.1109,2.1109,2.1109,2.1109,2.1109,2.1109,2.1109,2.1109,2.1109,2.1109,2.1109,2.1109,2.1109,2.1109,2.1109,2.1109,2.1109,2.1109,2.1109,2.1109,2.1109,2.1002,2.0842,2.0842,2.0722,2.0548,2.0441,2.0521,2.0655,2.0548,2.0628,2.0775,2.0775,2.0775,2.0735,2.0561,2.0374,2.0167,2.0167,2.0167,2.0254,2.0374,2.0401,2.0428,2.0535,2.0708,2.0815,2.0695,2.0909,2.1082,2.0962,2.1029,2.1172,2.1362,0.0,2.1235,2.1551,2.1425,2.1362,2.1488,2.1362,2.1366,2.1555,2.1504,2.151,2.1804,2.1817,2.1951,2.2231,2.2432,2.2579,2.2686,2.2699,2.2752,2.2928,2.2928,2.2928,2.2928,2.2928,2.2928,2.2928,2.2928,2.2928,2.2928,2.2928,2.2928,2.2928,2.3133,2.3406,2.3816,2.402,2.4442,2.4849,2.4849,2.4984,2.5119,2.1109,2.1109,2.1109,2.1109,2.1109,2.1046,2.0792,2.0729,2.0729,2.0729,2.0729,2.0856,2.1046,2.1109,2.1109,2.1109,2.1109,2.1109,2.1109,2.1109,2.1109,2.1109,2.1109,2.1109,2.1109,2.1109,2.1109,2.1109,2.1109,2.1109,2.1109,2.1109,2.1109,2.1109,2.1109,2.1109,2.1109,2.1109,2.1056,2.0975,2.0975,2.0802,2.0548,2.0641,2.0548,2.0374,2.0374,2.0508,2.0655,2.0575,2.0668,2.0842,2.0842,2.0842,2.0815,2.0708,2.0535,2.0388,2.0481,2.0508,2.0481,2.0401,2.0374,2.0401,2.0494,2.0668,2.0815,2.0815,2.0975,2.1109,2.1109,2.1109,2.1172,2.1425,2.1235,2.1172,2.1425,2.1235,2.1149,2.1243,2.1256,2.1363,2.1722,2.1762,2.1804,2.2098,2.2124,2.2245,2.2539,2.2752,2.2928,2.2928,2.2928,2.2928,2.2928,2.2928,2.2928,2.2928,2.2928,2.2928,2.2928,2.2928,2.2928,2.2928,2.2928,2.2928,2.3065,2.3338,2.3679,2.417,2.4442,2.4781,2.5119,2.5119,2.5119,2.5119,2.1109,2.1109,2.1109,2.1109,2.1109,2.1109,2.1109,2.1109,2.1109,2.1109,2.1109,2.1109,2.1109,2.1109,2.1109,2.1109,2.1109,2.1109,2.1109,2.1109,2.1109,2.1109,2.1109,2.1109,2.1109,2.1109,2.1109,2.1109,2.1109,2.1109,2.1109,2.1109,2.1109,2.1109,2.1109,2.1109,2.1109,2.1109,2.0949,2.0681,2.0681,2.0508,2.0267,2.0561,2.0681,2.0668,2.0668,2.0668,2.0628,2.0334,2.0241,2.0241,2.0241,2.0241,2.0294,2.0601,2.0681,2.0735,2.1029,2.1109,2.1042,2.0748,2.0681,2.0762,2.1042,2.1109,2.1109,2.1109,2.1109,2.1109,2.1109,2.1109,2.1109,2.1109,2.1109,2.1109,2.1109,2.1109,2.1229,2.1588,2.1614,2.1735,2.1964,2.1991,2.2111,2.2405,2.2418,2.2552,2.2846,2.2928,2.2928,2.2928,2.2928,2.2928,2.2928,2.2928,2.2928,2.2928,2.2928,2.2928,2.2928,2.2928,2.2928,2.2928,2.2928,2.3065,2.3406,2.3406,2.3816,2.4495,2.4495,2.4781,2.5119,2.5119,2.5119,2.5119,2.1109,2.1109,2.1109,2.1109,2.1109,2.1109,2.1109,2.1109,2.1109,2.1109,2.1109,2.1109,2.1109,2.1109,2.1109,2.1109,2.1109,2.1109,2.1109,2.1109,2.1109,2.1109,2.1109,2.1109,2.1109,2.1109,2.1109,2.1109,2.1109,2.1109,2.1109,2.1109,2.1109,2.1109,2.1109,2.1002,2.0815,2.1029,2.0949,2.0695,2.0895,2.0802,2.0548,2.0641,2.0548,2.0361,2.0361,2.0494,2.0655,2.0575,2.0681,2.0842,2.0842,2.0842,2.0869,2.0949,2.0975,2.1002,2.1082,2.1109,2.1082,2.1002,2.0975,2.1002,2.1096,2.1109,2.1109,2.1109,2.1109,2.1109,2.1109,2.1109,2.1109,2.1109,2.1283,2.1416,2.1416,2.159,2.175,2.1844,2.1857,2.1977,2.2258,2.2285,2.2418,2.2712,2.2726,2.2766,2.2859,2.2928,2.2928,2.2928,2.2928,2.2928,2.2928,2.2928,2.2928,2.2928,2.2928,2.2928,2.2928,2.2928,2.2928,2.2928,2.3133,2.3338,2.3406,2.3952,2.4292,2.4495,2.4781,2.4984,2.5187,2.6182,2.6568,2.662,2.1109,2.1109,2.1109,2.1109,2.1109,2.1109,2.1109,2.1109,2.1109,2.1109,2.1109,2.1109,2.1109,2.1109,2.1109,2.1109,2.1109,2.1109,2.1109,2.1109,2.1056,2.0949,2.0935,2.0989,2.1109,2.1002,2.0935,2.0935,2.0815,2.0762,2.0762,2.0882,2.0935,2.0949,2.1056,2.1015,2.0855,2.1029,2.0949,2.0695,2.0869,2.0762,2.0508,2.0628,2.0561,2.0428,2.0535,2.0695,2.0842,2.0842,2.0962,2.1109,2.1109,2.1109,2.1109,2.1109,2.1109,2.1109,2.1109,2.1109,2.1109,2.1109,2.1109,2.1109,2.1109,2.1109,2.1109,2.1109,2.1109,2.1149,2.1269,2.1283,2.1323,2.1443,2.1603,2.1789,2.1789,2.1871,2.2031,2.2151,2.2151,2.2271,2.2565,2.2592,2.2672,2.2846,2.2928,2.2928,2.2928,2.2928,2.2928,2.2928,2.2928,2.2928,2.2928,2.2928,2.2928,2.2928,2.2928,2.2928,2.2928,2.2928,2.2996,2.3133,2.3338,2.3543,2.3884,2.4292,2.4578,2.4781,2.4984,2.5119,2.5187,2.6048,2.6702,2.7219,2.1109,2.1109,2.1109,2.1109,2.1109,2.1109,2.1109,2.1109,2.1109,2.1109,2.1082,2.1069,2.1069,2.1042,2.1029,2.1029,2.1029,2.1029,2.1029,2.1029,2.0922,2.0681,2.0695,2.0855,2.1149,2.0869,2.0722,2.0748,2.0508,2.0374,2.0361,2.0628,2.0735,2.0722,2.0989,2.1096,2.1069,2.1096,2.0949,2.0681,2.0708,2.0548,2.0334,2.0615,2.0722,2.0748,2.1015,2.1109,2.1109,2.1109,2.1109,2.1109,2.1109,2.1109,2.1109,2.1109,2.1109,2.1109,2.1109,2.1109,2.1109,2.1109,2.1122,2.1149,2.1122,2.1136,2.1149,2.1149,2.1162,2.1269,2.1601,2.1655,2.1748,2.1937,2.2004,2.2031,2.2031,2.2044,2.2164,2.2432,2.2458,2.2565,2.2832,2.2928,2.2928,2.2928,2.2928,2.2928,2.2928,2.2928,2.2928,2.2928,2.2928,2.2928,2.2928,2.2886,2.2886,2.2928,2.2928,2.2928,2.2928,2.2928,2.3133,2.3475,2.3502,2.3926,2.4538,2.4635,2.4868,2.5207,2.5207,2.5207,2.5207,2.5343,2.6124,2.7248,2.1109,2.1109,2.1109,2.1109,2.1109,2.1109,2.1109,2.1109,2.1109,2.1109,2.0909,2.0775,2.0775,2.0561,2.0428,2.0428,2.0428,2.0428,2.0428,2.0428,2.0494,2.0668,2.0895,2.1149,2.1443,2.1162,2.1136,2.1427,2.1523,2.1496,2.1333,2.14,2.1243,2.1015,2.1082,2.0989,2.0788,2.1015,2.0949,2.0695,2.0922,2.0975,2.0922,2.0989,2.1015,2.1029,2.1082,2.1109,2.1109,2.1109,2.1109,2.1109,2.1109,2.1109,2.1109,2.1109,2.1109,2.1109,2.1109,2.1109,2.1109,2.1109,2.1283,2.139,2.1162,2.1296,2.1521,2.1521,2.1643,2.1817,2.1884,2.1897,2.1911,2.1977,2.2178,2.2325,2.2325,2.2525,2.2767,2.2752,2.2766,2.2792,2.2928,2.2928,2.2928,2.2928,2.2928,2.2928,2.2928,2.2928,2.2928,2.2928,2.2928,2.2928,2.2928,2.31,2.31,2.2928,2.2928,2.3065,2.327,2.327,2.3475,2.3898,2.4424,2.473,2.4965,2.5487,2.5743,2.5813,2.5813,2.5813,2.5952,2.7031,2.7636,2.8237,2.1109,2.1109,2.1109,2.1109,2.1109,2.1069,2.0922,2.0909,2.0855,2.0708,2.0561,2.0468,2.0468,2.0321,2.0167,2.0167,2.0167,2.0294,2.0441,2.0575,2.0722,2.0869,2.1162,2.139,2.1614,2.1537,2.1537,2.1614,2.1563,2.1416,2.1199,2.1283,2.1189,2.0909,2.1042,2.1029,2.0895,2.1042,2.1029,2.0895,2.1042,2.1109,2.1109,2.1109,2.1109,2.1109,2.1109,2.1109,2.1109,2.1109,2.1109,2.1109,2.1109,2.1109,2.1109,2.1109,2.1109,2.1136,2.1283,2.1323,2.1349,2.1496,2.1643,2.1683,2.139,2.155,2.1764,2.1764,2.1884,2.2031,2.2164,2.2191,2.2245,2.2378,2.2539,2.2632,2.2632,2.2766,2.2928,2.2928,2.2928,2.2928,2.2928,2.2928,2.2928,2.2928,2.2928,2.2928,2.2928,2.2928,2.2928,2.2928,2.3006,2.3086,2.3086,2.338,2.346,2.337,2.337,2.344,2.3579,2.3579,2.3775,2.4136,2.4512,2.4862,2.5211,2.5594,2.5807,2.6018,2.6018,2.6424,2.7107,2.7107,2.7994,2.9628,2.1109,2.1109,2.1109,2.1109,2.1069,2.0949,2.0708,2.0628,2.0508,2.0267,2.0187,2.016,2.016,2.0107,2.008,2.008,2.0174,2.0334,2.0588,2.0922,2.1136,2.1189,2.147,2.1722,2.1762,2.1991,2.1991,2.1762,2.151,2.1229,2.0909,2.1149,2.1082,2.0762,2.1002,2.1109,2.1109,2.1109,2.1109,2.1109,2.1109,2.1109,2.1109,2.1109,2.1109,2.1109,2.1109,2.1149,2.1189,2.1243,2.1256,2.1256,2.1256,2.1256,2.1256,2.1256,2.1256,2.1309,2.1563,2.1695,2.1748,2.1924,2.2017,2.1991,2.1815,2.1884,2.2058,2.2058,2.2098,2.2205,2.2445,2.2498,2.2579,2.2819,2.2928,2.2928,2.2928,2.2928,2.2928,2.2928,2.2928,2.2928,2.2928,2.2928,2.2928,2.2928,2.2928,2.2928,2.2928,2.2913,2.2939,2.2939,2.3247,2.3407,2.3407,2.3701,2.3848,2.3848,2.3888,2.3933,2.391,2.391,2.4052,2.4408,2.4534,2.4903,2.5526,2.5923,2.6234,2.6587,2.6869,2.7695,2.8654,2.7415,2.8654,3.1333,2.1109,2.1109,2.1109,2.1109,2.0895,2.0722,2.0681,2.0454,2.0281,2.0241,2.0013,1.9853,1.9853,1.9639,1.9479,1.9479,1.9947,2.0193,2.0233,2.0802,2.1229,2.1547,2.1777,2.2044,2.2298,2.2592,2.2592,2.2298,2.2512,2.2338,2.1804,2.1844,2.1577,2.1056,2.1096,2.1109,2.1109,2.1109,2.1109,2.1109,2.1109,2.1109,2.1109,2.1109,2.1109,2.1109,2.1109,2.1269,2.1601,2.1777,2.1871,2.1871,2.1871,2.1871,2.1871,2.1871,2.1871,2.1871,2.1911,2.1924,2.1937,2.1977,2.2178,2.2352,2.2311,2.2338,2.2365,2.2365,2.2565,2.2752,2.2792,2.2806,2.2887,2.2928,2.2928,2.2928,2.2928,2.2928,2.2928,2.2928,2.2928,2.2928,2.2928,2.2928,2.2928,2.2928,2.2928,2.2928,2.2928,2.3113,2.326,2.326,2.3554,2.3714,2.3714,2.3995,2.4142,2.4155,2.4396,2.4407,2.4266,2.4266,2.4394,2.4748,2.537,2.5712,2.6013,2.7911,2.875,2.8893,3.0227,3.0862,3.1073,3.0862,3.1844,3.339,2.1109,2.1109,2.1056,2.0895,2.0762,2.0561,2.0241,2.008,1.9933,1.9773,1.9639,1.9559,1.9559,1.9586,1.9679,1.984,2.0241,2.0615,2.0949,2.1363,2.1737,2.2031,2.2311,2.2539,2.2659,2.2792,2.2806,2.2672,2.2806,2.2565,2.1991,2.1991,2.167,2.1109,2.1109,2.1109,2.1109,2.1109,2.1109,2.1109,2.1109,2.1203,2.1363,2.1363,2.1456,2.1603,2.1603,2.1683,2.1817,2.1937,2.1991,2.1991,2.1991,2.1991,2.1991,2.1991,2.1991,2.2017,2.2178,2.2231,2.2271,2.2432,2.2579,2.2672,2.2672,2.2672,2.2672,2.2672,2.2766,2.2928,2.2928,2.2928,2.2928,2.2928,2.2928,2.2928,2.2928,2.2928,2.2928,2.2928,2.2928,2.2928,2.2928,2.2928,2.2939,2.3113,2.3126,2.3193,2.3354,2.35,2.3581,2.3581,2.3861,2.4008,2.4008,2.4302,2.4449,2.4449,2.4569,2.4576,2.4467,2.4684,2.4902,2.5046,2.5606,2.5967,2.633,2.8182,2.9019,2.9377,3.0872,3.1508,3.1719,3.3397,3.39,3.3918]}]]